[[{"header":{"parameterUnit":"m.s-1","parameterCategory":1,"la1":30.6,"la2":29.2853,"lo1":-89.7004,"lo2":-87.6739,"dy":0.0162,"dx":0.0183,"nx":112,"ny":82,"refTime":"2026-05-05T12:00:00:Z","depth":0,"parameterNumber":2,"parameterNumberName":"U-component_of_WINDS"},"data":[0.0,0.0,0.0,0.0,0.0,0.0,0.0,0.0,0.0,0.0,0.0,0.0,0.0,0.0,0.0,0.0,0.0,0.0,0.0,0.0,0.0,0.0,0.0,0.0,0.0,0.0,0.0,0.0,0.0,0.0,0.0,0.0,0.0,0.0,0.0,0.0,0.0,0.0,0.0,0.0,0.0,0.0,0.0,0.0,0.0,0.0,0.0,0.0,0.0,0.0,0.0,0.0,0.0,0.0,0.0,0.0,0.0,0.0,0.0,0.0,0.0,0.0,0.0,0.0,0.0,0.0,0.0,0.0,0.0,0.0,0.0,0.0,0.0,0.0,0.0,0.0,0.0,0.0,0.0,0.0,0.0,0.0,0.0,0.0,0.0,0.0,0.0,0.0,0.0,0.0,-1.3203,-1.4985,-1.7108,-1.8385,-1.8385,-1.7831,-1.7116,-1.6272,0.0,0.0,0.0,0.0,0.0,0.0,0.0,0.0,0.0,0.0,0.0,0.0,0.0,0.0,0.0,0.0,0.0,0.0,0.0,0.0,0.0,0.0,0.0,0.0,0.0,0.0,0.0,0.0,0.0,0.0,0.0,0.0,0.0,0.0,0.0,0.0,0.0,0.0,0.0,0.0,0.0,0.0,0.0,0.0,0.0,0.0,0.0,0.0,0.0,0.0,0.0,0.0,0.0,0.0,0.0,0.0,0.0,0.0,0.0,0.0,0.0,0.0,0.0,0.0,0.0,0.0,0.0,0.0,0.0,0.0,0.0,0.0,0.0,0.0,0.0,0.0,0.0,0.0,0.0,0.0,0.0,0.0,0.0,0.0,0.0,0.0,0.0,0.0,0.0,0.0,0.0,0.0,0.0,0.0,0.0,0.0,0.0,0.0,0.0,0.0,0.0,0.0,0.0,0.0,-1.3682,-1.6515,-1.7718,-1.8348,-1.8385,-1.8301,-1.7676,-1.6375,0.0,0.0,0.0,0.0,0.0,0.0,0.0,0.0,0.0,0.0,0.0,0.0,0.0,0.0,0.0,0.0,0.0,0.0,0.0,0.0,0.0,0.0,0.0,0.0,0.0,0.0,0.0,0.0,0.0,0.0,0.0,0.0,0.0,0.0,0.0,0.0,0.0,0.0,0.0,0.0,0.0,0.0,0.0,0.0,0.0,0.0,0.0,0.0,0.0,0.0,0.0,0.0,0.0,0.0,0.0,0.0,0.0,0.0,0.0,0.0,0.0,0.0,0.0,0.0,0.0,0.0,0.0,0.0,0.0,0.0,0.0,0.0,0.0,0.0,0.0,0.0,0.0,0.0,0.0,0.0,0.0,0.0,0.0,0.0,0.0,0.0,0.0,0.0,0.0,0.0,0.0,0.0,0.0,0.0,0.0,0.0,0.0,0.0,0.0,0.0,0.0,0.0,0.0,-1.3504,-1.5365,-1.7617,-1.8196,-1.8408,-1.8445,-1.806,-1.7203,-1.5806,-1.3902,0.0,0.0,0.0,0.0,0.0,0.0,0.0,0.0,0.0,0.0,0.0,0.0,0.0,0.0,0.0,0.0,0.0,0.0,0.0,0.0,0.0,0.0,0.0,0.0,0.0,0.0,0.0,0.0,0.0,0.0,0.0,0.0,0.0,0.0,0.0,0.0,0.0,0.0,0.0,0.0,0.0,0.0,0.0,0.0,0.0,0.0,0.0,0.0,0.0,0.0,0.0,0.0,0.0,0.0,0.0,0.0,0.0,0.0,0.0,0.0,0.0,0.0,0.0,0.0,0.0,0.0,0.0,0.0,0.0,0.0,0.0,0.0,0.0,0.0,0.0,0.0,0.0,0.0,0.0,0.0,0.0,0.0,0.0,0.0,0.0,0.0,0.0,0.0,0.0,0.0,0.0,0.0,0.0,0.0,0.0,0.0,0.0,0.0,0.0,0.0,0.0,0.0,-1.54,-1.6921,-1.8286,-1.8465,-1.8415,-1.8222,-1.7641,-1.6624,-1.5041,-1.3494,0.0,0.0,0.0,0.0,0.0,0.0,0.0,0.0,0.0,0.0,0.0,0.0,0.0,0.0,0.0,0.0,0.0,0.0,0.0,0.0,0.0,0.0,0.0,0.0,0.0,0.0,0.0,0.0,0.0,0.0,0.0,0.0,0.0,0.0,0.0,0.0,0.0,0.0,0.0,0.0,0.0,0.0,0.0,0.0,0.0,0.0,0.0,0.0,0.0,0.0,0.0,0.0,0.0,0.0,0.0,0.0,0.0,0.0,0.0,0.0,0.0,0.0,0.0,0.0,0.0,0.0,0.0,0.0,0.0,0.0,0.0,0.0,0.0,0.0,0.0,0.0,0.0,0.0,0.0,0.0,0.0,0.0,0.0,0.0,0.0,0.0,0.0,0.0,0.0,0.0,0.0,0.0,0.0,0.0,0.0,0.0,0.0,0.0,0.0,0.0,0.0,0.0,-1.6256,-1.7533,-1.8397,-1.8485,-1.8204,-1.7448,-1.7343,-1.6413,-1.4307,-1.2734,0.0,0.0,0.0,0.0,0.0,0.0,0.0,0.0,0.0,0.0,0.0,0.0,0.0,0.0,0.0,0.0,0.0,0.0,0.0,0.0,0.0,0.0,0.0,0.0,0.0,0.0,0.0,0.0,0.0,0.0,0.0,0.0,0.0,0.0,0.0,0.0,0.0,0.0,0.0,0.0,0.0,0.0,0.0,0.0,0.0,0.0,0.0,0.0,0.0,0.0,0.0,0.0,0.0,0.0,0.0,0.0,0.0,0.0,0.0,0.0,0.0,0.0,0.0,0.0,0.0,0.0,0.0,0.0,0.0,0.0,0.0,0.0,0.0,0.0,0.0,0.0,0.0,0.0,0.0,0.0,0.0,0.0,0.0,0.0,0.0,0.0,0.0,0.0,0.0,0.0,0.0,0.0,0.0,0.0,0.0,0.0,0.0,0.0,0.0,0.0,0.0,0.0,-1.6063,-1.7623,0.0,-1.8485,-1.838,-1.8081,-1.7168,-1.5884,-1.4151,0.0,0.0,0.0,0.0,0.0,0.0,0.0,0.0,0.0,0.0,0.0,0.0,0.0,0.0,0.0,0.0,0.0,0.0,0.0,0.0,0.0,0.0,0.0,0.0,0.0,0.0,0.0,0.0,0.0,0.0,0.0,0.0,0.0,0.0,0.0,0.0,0.0,0.0,0.0,0.0,0.0,0.0,0.0,0.0,0.0,0.0,0.0,0.0,0.0,0.0,0.0,0.0,0.0,0.0,0.0,0.0,0.0,0.0,0.0,0.0,0.0,0.0,0.0,0.0,0.0,0.0,0.0,0.0,0.0,0.0,0.0,0.0,0.0,0.0,0.0,0.0,0.0,0.0,0.0,0.0,0.0,0.0,0.0,0.0,0.0,0.0,0.0,0.0,0.0,0.0,0.0,0.0,0.0,0.0,0.0,0.0,0.0,0.0,0.0,0.0,0.0,0.0,-1.3991,-1.6256,-1.7906,0.0,-1.8485,-1.8397,-1.8134,-1.694,-1.5479,-1.376,0.0,0.0,0.0,0.0,0.0,0.0,0.0,0.0,0.0,0.0,0.0,0.0,0.0,0.0,0.0,0.0,0.0,0.0,0.0,0.0,0.0,0.0,0.0,0.0,0.0,0.0,0.0,0.0,0.0,0.0,0.0,0.0,0.0,0.0,0.0,0.0,0.0,0.0,0.0,0.0,0.0,0.0,0.0,0.0,0.0,0.0,0.0,0.0,0.0,0.0,0.0,0.0,0.0,0.0,0.0,0.0,0.0,0.0,0.0,0.0,0.0,0.0,0.0,0.0,0.0,0.0,0.0,0.0,0.0,0.0,0.0,0.0,0.0,0.0,0.0,0.0,0.0,0.0,0.0,0.0,0.0,0.0,0.0,0.0,0.0,0.0,0.0,0.0,0.0,0.0,0.0,0.0,0.0,0.0,0.0,0.0,0.0,0.0,0.0,0.0,0.0,0.0,-1.4781,-1.7028,-1.8485,-1.8485,-1.8485,-1.8186,-1.7378,-1.6642,-1.5268,0.0,0.0,0.0,0.0,0.0,0.0,0.0,0.0,0.0,0.0,0.0,0.0,0.0,0.0,0.0,0.0,0.0,0.0,0.0,0.0,0.0,0.0,0.0,0.0,0.0,0.0,0.0,0.0,0.0,0.0,0.0,0.0,0.0,0.0,0.0,0.0,0.0,0.0,0.0,0.0,0.0,0.0,0.0,0.0,0.0,0.0,0.0,0.0,0.0,0.0,0.0,0.0,0.0,0.0,0.0,0.0,0.0,0.0,0.0,0.0,0.0,0.0,0.0,0.0,0.0,0.0,0.0,0.0,0.0,0.0,0.0,0.0,0.0,0.0,0.0,0.0,0.0,0.0,0.0,0.0,0.0,0.0,0.0,0.0,0.0,0.0,0.0,0.0,0.0,0.0,0.0,0.0,0.0,0.0,0.0,0.0,0.0,0.0,0.0,0.0,0.0,0.0,0.0,-1.4026,-1.6729,-1.8485,-1.8485,-1.8485,-1.8397,-1.8169,-1.6958,-1.5481,-1.3786,0.0,0.0,0.0,0.0,0.0,0.0,0.0,0.0,0.0,0.0,0.0,0.0,0.0,0.0,0.0,0.0,0.0,0.0,0.0,0.0,0.0,0.0,0.0,0.0,0.0,0.0,0.0,0.0,0.0,0.0,0.0,0.0,0.0,0.0,0.0,0.0,0.0,0.0,0.0,0.0,0.0,0.0,0.0,0.0,0.0,0.0,0.0,0.0,0.0,0.0,0.0,0.0,0.0,0.0,0.0,0.0,0.0,0.0,0.0,0.0,0.0,0.0,0.0,0.0,0.0,0.0,0.0,0.0,0.0,0.0,0.0,0.0,0.0,0.0,0.0,0.0,0.0,0.0,0.0,0.0,0.0,0.0,0.0,0.0,0.0,0.0,0.0,0.0,0.0,0.0,0.0,0.0,0.0,0.0,0.0,0.0,0.0,0.0,0.0,0.0,0.0,0.0,-1.3675,-1.6308,-1.8134,-1.8467,-1.8485,-1.8485,-1.8485,-1.7361,-1.5869,-1.4076,0.0,0.0,0.0,0.0,0.0,0.0,0.0,0.0,0.0,0.0,0.0,0.0,0.0,0.0,0.0,0.0,0.0,0.0,0.0,0.0,0.0,0.0,0.0,0.0,0.0,0.0,0.0,0.0,0.0,0.0,0.0,0.0,0.0,0.0,0.0,0.0,0.0,0.0,0.0,0.0,0.0,0.0,0.0,0.0,0.0,0.0,0.0,0.0,0.0,0.0,0.0,0.0,0.0,0.0,0.0,0.0,0.0,0.0,0.0,0.0,0.0,0.0,0.0,0.0,0.0,0.0,0.0,0.0,0.0,0.0,0.0,0.0,0.0,0.0,0.0,0.0,0.0,0.0,0.0,0.0,0.0,0.0,0.0,0.0,0.0,0.0,0.0,0.0,0.0,0.0,0.0,0.0,0.0,0.0,0.0,0.0,0.0,0.0,0.0,0.0,0.0,0.0,-1.371,-1.5993,-1.7694,-1.8415,-1.8485,-1.8485,-1.8485,-1.7746,-1.6361,-1.4138,0.0,0.0,0.0,0.0,0.0,0.0,0.0,0.0,0.0,0.0,0.0,0.0,0.0,0.0,0.0,0.0,0.0,0.0,0.0,0.0,0.0,0.0,0.0,0.0,0.0,0.0,0.0,0.0,0.0,0.0,0.0,0.0,0.0,0.0,0.0,0.0,0.0,0.0,0.0,0.0,0.0,0.0,0.0,0.0,0.0,0.0,0.0,0.0,0.0,0.0,0.0,0.0,0.0,0.0,0.0,0.0,0.0,0.0,0.0,0.0,-0.7427,0.0,0.0,0.0,0.0,0.0,0.0,0.0,0.0,0.0,0.0,0.0,0.0,0.0,0.0,0.0,0.0,0.0,0.0,0.0,0.0,0.0,0.0,0.0,0.0,0.0,0.0,0.0,0.0,0.0,0.0,0.0,0.0,0.0,0.0,0.0,0.0,0.0,0.0,0.0,0.0,0.0,-1.4535,-1.68,-1.8309,-1.8467,-1.8485,-1.8485,-1.8485,-1.7746,-1.6607,-1.4949,-1.2653,0.0,0.0,0.0,0.0,0.0,0.0,0.0,0.0,0.0,0.0,0.0,0.0,0.0,0.0,0.0,0.0,0.0,0.0,0.0,0.0,0.0,0.0,0.0,0.0,0.0,0.0,0.0,0.0,0.0,0.0,0.0,0.0,0.0,0.0,0.0,0.0,0.0,0.0,0.0,0.0,0.0,0.0,0.0,0.0,0.0,0.0,0.0,0.0,0.0,0.0,0.0,0.0,0.0,0.0,0.0,0.0,0.0,0.0,0.0,0.0,-1.1749,0.0,0.0,0.0,0.0,0.0,0.0,0.0,0.0,0.0,0.0,0.0,0.0,0.0,0.0,0.0,0.0,0.0,0.0,0.0,0.0,0.0,0.0,0.0,0.0,0.0,0.0,0.0,0.0,0.0,0.0,0.0,0.0,0.0,0.0,0.0,0.0,0.0,0.0,0.0,0.0,-1.4746,-1.6712,-1.8081,-1.845,-1.8485,-1.8485,-1.8485,-1.8116,-1.7221,-1.5727,-1.3792,0.0,0.0,0.0,0.0,0.0,0.0,0.0,0.0,0.0,0.0,0.0,0.0,0.0,0.0,0.0,0.0,0.0,0.0,0.0,0.0,0.0,0.0,0.0,0.0,0.0,0.0,0.0,0.0,0.0,0.0,0.0,0.0,0.0,0.0,0.0,0.0,0.0,0.0,0.0,0.0,0.0,0.0,0.0,0.0,0.0,0.0,0.0,0.0,0.0,0.0,0.0,0.0,0.0,-1.9872,-2.2593,-2.2884,-1.6694,-1.5887,-1.9152,-1.6607,-1.6642,-1.8292,0.0,0.0,0.0,0.0,0.0,0.0,0.0,0.0,0.0,0.0,0.0,0.0,0.0,0.0,0.0,0.0,0.0,0.0,0.0,0.0,0.0,0.0,0.0,0.0,0.0,-1.6993,-1.6624,0.0,0.0,0.0,0.0,0.0,0.0,0.0,0.0,0.0,0.0,0.0,0.0,-1.5114,-1.6624,-1.7746,-1.8415,-1.8485,-1.8485,-1.8485,-1.8485,-1.7888,-1.6484,-1.5079,-1.3886,0.0,0.0,0.0,0.0,0.0,0.0,0.0,0.0,0.0,0.0,0.0,0.0,0.0,0.0,0.0,0.0,0.0,0.0,0.0,0.0,0.0,0.0,0.0,0.0,0.0,0.0,0.0,0.0,0.0,0.0,0.0,0.0,-0.5823,-0.855,0.0,0.0,0.0,0.0,0.0,0.0,0.0,0.0,0.0,0.0,0.0,0.0,0.0,-1.4899,-1.7853,-1.7888,-1.7888,-1.7888,-1.8713,-2.0504,-2.2884,-1.6694,-1.7027,-2.2463,-2.2043,0.0,-1.8467,-1.8046,0.0,0.0,0.0,0.0,0.0,0.0,0.0,0.0,0.0,0.0,0.0,0.0,0.0,0.0,0.0,0.0,0.0,0.0,0.0,0.0,0.0,0.0,-2.0192,-2.0192,-2.0192,-1.9963,0.0,-1.7326,-1.5624,-1.4744,-1.3956,0.0,0.0,0.0,0.0,0.0,0.0,0.0,-1.6782,-1.7783,-1.838,-1.8485,-1.8485,-1.8485,-1.8485,-1.8485,-1.8116,-1.722,-1.6343,-1.5255,-1.3801,-1.278,0.0,0.0,0.0,0.0,0.0,0.0,0.0,0.0,0.0,0.0,0.0,0.0,0.0,0.0,0.0,0.0,0.0,0.0,0.0,0.0,0.0,0.0,0.0,0.0,0.0,0.0,0.0,0.0,0.0,-0.5864,-0.7317,-1.0458,-1.1652,-1.129,0.0,0.0,0.0,0.0,0.0,0.0,0.0,0.0,0.0,-1.218,-1.511,-1.7311,-1.8505,-1.8485,-1.9363,-2.1083,-2.1083,-2.1803,-2.3007,-2.0289,-2.0534,-2.3095,-2.3095,-2.2347,-2.1083,-2.1083,-2.0065,-1.8362,0.0,0.0,0.0,0.0,-1.8432,-2.0837,-1.9099,-1.7607,0.0,-2.0082,0.0,0.0,0.0,0.0,0.0,0.0,0.0,0.0,0.0,0.0,0.0,-2.0807,-2.0807,-2.0719,-2.0402,-1.9524,-1.8292,0.0,-1.5711,-1.4939,-1.4131,0.0,0.0,0.0,0.0,-1.608,-1.7168,-1.8011,-1.8485,-1.8485,-1.8485,-1.8485,-1.8485,-1.8485,-1.8344,-1.8011,-1.7238,-1.6519,-1.5835,-1.464,-1.3306,0.0,0.0,0.0,0.0,0.0,0.0,0.0,0.0,0.0,0.0,0.0,0.0,0.0,0.0,0.0,0.0,0.0,0.0,0.0,0.0,0.0,0.0,0.0,0.0,0.0,0.0,0.0,0.0,-0.8032,-0.945,-1.2742,-1.4053,-1.4288,0.0,0.0,0.0,0.0,0.0,0.0,-1.8556,-1.9009,-1.7947,-1.5307,-1.827,-1.9823,-1.9679,-1.9679,-2.0837,-2.3095,-2.3095,-2.3095,-2.3095,-2.3095,-2.3095,-2.313,-2.3944,-2.4295,-2.4225,-2.341,-2.2224,-2.0767,-1.9977,-1.9679,-1.9679,-1.9679,-2.1627,-2.3962,-2.1645,-2.0837,-2.1223,-2.3541,0.0,-2.5612,-2.0749,0.0,0.0,0.0,0.0,-1.9544,-2.1485,-2.1683,-2.1381,-2.1381,-2.1381,-2.1329,-2.1158,-2.1123,-2.0521,0.0,-1.7607,-1.6835,-1.6027,0.0,0.0,0.0,0.0,-1.6993,-1.7536,-1.8309,-1.8713,-1.852,-1.8485,-1.8485,-1.8485,-1.8485,-1.8485,-1.8485,-1.7941,-1.7518,-1.7308,-1.6186,-1.5062,-1.3906,0.0,0.0,0.0,0.0,0.0,0.0,0.0,0.0,0.0,0.0,0.0,0.0,0.0,0.0,0.0,0.0,0.0,0.0,0.0,0.0,0.0,0.0,0.0,0.0,0.0,0.0,0.0,0.0,0.0,-1.6022,-1.6077,0.0,0.0,0.0,0.0,-1.395,-1.6896,-1.8659,-1.8788,-2.0114,-2.0085,-1.8329,-2.1259,-2.2874,-2.2874,-2.2874,-2.2961,-2.3095,-2.3095,-2.3095,-2.3095,-2.3095,-2.3095,-2.3252,-2.6209,-2.7473,-2.7245,-2.4313,-2.4734,-2.6946,-2.4015,-2.2874,-2.2874,-2.2874,-2.4822,-2.7455,-2.728,-2.7227,-2.7262,-2.742,-2.5595,-2.3102,-2.182,-2.0504,0.0,0.0,-1.9485,-2.104,-2.2622,-2.2988,-2.2972,-2.2972,-2.2972,-2.2803,-2.2084,-2.1949,-2.1685,0.0,-2.0012,-1.9257,-1.845,0.0,-1.715,-1.7185,-1.7871,-1.8397,-1.8415,-1.9134,-1.9345,-1.8573,-1.8485,-1.8485,-1.8485,-1.8485,-1.8485,-1.8485,-1.845,-1.8099,-1.7343,-1.7238,-1.615,-1.3941,-1.3766,0.0,0.0,0.0,0.0,0.0,0.0,0.0,0.0,0.0,0.0,0.0,0.0,0.0,0.0,0.0,0.0,0.0,0.0,0.0,0.0,0.0,0.0,0.0,0.0,0.0,0.0,0.0,0.0,-1.4994,-1.6208,0.0,-1.624,-1.5461,-1.4795,-1.433,-1.9159,-2.1619,-2.0474,-2.112,-2.1065,-2.0156,-2.1092,-2.2101,-2.3102,-2.3095,-2.3095,-2.3095,-2.3095,-2.3095,-2.3235,-2.7262,-2.9088,-2.9158,-3.0246,-3.072,-3.0633,-2.9544,-2.9737,-3.0615,-2.9509,-2.663,-2.3095,-2.3095,-2.505,-2.7701,-2.7701,-2.7701,-2.7701,-2.7701,-2.6068,-2.405,-2.3706,-2.2786,-2.1937,-2.2177,-2.2639,-2.3284,-2.432,-2.4567,-2.4471,-2.3979,-2.3857,-2.3646,-2.2874,-2.2716,-2.2628,-2.2347,-2.1259,-2.0332,-2.0033,-1.9731,-1.9556,-1.9556,-1.9784,-1.9981,-1.9981,-1.9819,-1.9591,-1.9292,-1.8801,-1.8485,-1.8485,-1.8485,-1.8485,-1.8485,-1.8485,-1.8362,-1.8081,-1.8081,-1.7221,-1.5413,-1.4869,-1.3324,0.0,0.0,0.0,0.0,0.0,0.0,0.0,0.0,0.0,0.0,0.0,0.0,0.0,0.0,0.0,0.0,0.0,0.0,0.0,0.0,0.0,0.0,0.0,0.0,0.0,0.0,-1.5256,-1.5483,-1.7258,-1.8181,-1.7439,-1.7472,-1.7074,-1.6008,-2.0807,-2.3322,-2.219,-2.1813,-2.1206,-2.0291,-2.1119,-2.2066,-2.3102,-2.3095,-2.3628,-2.4664,-2.5735,-2.5682,-2.484,-3.0036,-3.2406,-3.2406,-3.2406,-3.2406,-3.2406,-3.2406,-3.2406,-3.2406,-3.2406,-2.9878,-2.6244,-2.6244,-2.7543,-2.9281,-2.9281,-2.8825,-2.8175,-2.7824,-2.6964,-2.6016,-2.5489,-2.4761,-2.4217,-2.4576,-2.4796,-2.5015,-2.5314,-2.5401,-2.5279,-2.4787,-2.4497,-2.4163,-2.3628,-2.3295,-2.3095,-2.3095,-2.2277,-2.1487,-2.1264,-2.1211,-2.1123,-2.0842,-2.1035,-2.1123,-2.0842,-2.0613,-2.0275,-1.9749,-1.9222,-1.8783,-1.852,-1.8485,-1.8485,-1.8485,-1.8485,-1.8485,-1.8485,-1.8485,-1.7888,-1.6607,-1.529,-1.3745,-1.1967,0.0,0.0,0.0,0.0,0.0,0.0,0.0,0.0,0.0,0.0,0.0,0.0,0.0,0.0,0.0,0.0,0.0,0.0,0.0,0.0,0.0,0.0,0.0,-1.4349,-1.5769,-1.7092,-1.7853,-1.9377,-2.0373,-2.0409,-1.9648,-1.9232,-1.9377,-2.2129,-2.3795,-2.3795,-2.2265,-2.0635,-1.9002,-2.1648,-2.3095,-2.3095,-2.3295,-2.484,-2.7736,-3.0791,-3.065,-2.7789,-3.0896,-3.23,-3.23,-3.2318,-3.2335,-3.2335,-3.2353,-3.2353,-3.2371,-3.2388,-3.2406,-3.2406,-3.2406,-3.2406,-3.2406,-3.2406,-3.1089,-2.9228,-2.814,-2.8298,-2.8631,-2.7122,-2.6468,-2.6125,-2.5602,-2.5869,-2.6126,-2.5622,-2.5472,-2.5472,-2.5437,-2.4875,-2.4374,-2.4321,-2.3681,-2.3137,-2.3095,-2.3095,-2.2874,-2.2154,-2.2013,-2.1768,-2.1,-2.1545,0.0,-2.0982,-2.1545,-2.1417,-1.9889,-1.9714,-1.9363,-1.8555,-1.8485,-1.8485,-1.8485,-1.8485,-1.8485,-1.8485,-1.8485,-1.8116,-1.7325,-1.5081,-1.3552,-1.2762,0.0,0.0,0.0,0.0,0.0,0.0,0.0,0.0,0.0,0.0,0.0,0.0,0.0,0.0,0.0,0.0,0.0,0.0,0.0,0.0,0.0,-1.7019,-1.7182,-1.5429,-1.7566,-1.9177,-1.8797,-2.0717,-2.2256,-2.2781,-2.1622,-2.2274,-2.5733,-2.4628,-2.3795,-2.3795,-2.331,-2.279,-2.2232,-2.28,-2.3095,-2.3095,-2.7596,-2.9123,-2.7701,-2.8579,-2.8544,-2.7754,-2.9404,-3.0159,-3.0176,-3.0562,-3.0738,-3.0773,-3.13,-3.1528,-3.1581,-3.2177,-3.2406,-3.2406,-3.2406,-3.2406,-3.2406,-3.2406,-3.2037,-3.137,-3.0299,-2.9474,-2.8825,-2.8403,-2.7824,-2.7251,-2.7104,-2.7186,-2.7238,-2.7104,-2.7069,-2.6929,-2.6402,-2.6121,-2.5665,-2.455,-2.4146,-2.3786,-2.3225,-2.3095,-2.3049,-2.2838,-2.2803,-2.2733,-2.2505,-2.2663,0.0,-2.2505,-2.2189,-2.1615,-2.0613,-2.0012,-1.9363,-1.8555,-1.8485,-1.8485,-1.8485,-1.8485,-1.8485,-1.8485,-1.8485,-1.8116,-1.7325,-1.5588,-1.4581,0.0,0.0,0.0,0.0,0.0,0.0,0.0,0.0,0.0,0.0,0.0,0.0,0.0,0.0,0.0,0.0,0.0,0.0,0.0,0.0,0.0,0.0,-1.9051,-1.9503,-1.7765,-1.9123,-2.0373,-2.059,-2.2129,-2.3469,-2.423,-2.3795,-2.4628,-2.7399,-2.5244,-2.3753,-2.3664,-2.6128,-2.6939,-2.5589,-2.4647,-2.4118,-2.4067,-2.8983,-3.0527,-2.8702,-2.8017,-2.7701,-2.7736,-2.8807,-2.9299,0.0,-2.9878,-3.0106,-3.0141,-3.0562,-3.0738,0.0,0.0,0.0,0.0,0.0,-3.2406,-3.2406,-3.2406,-3.2406,-3.2213,-3.1142,-3.0369,-2.9808,-2.9509,-2.8618,-2.777,-2.8092,-2.7964,-2.7701,-2.7701,-2.7701,-2.7596,-2.7157,-2.6823,-2.6349,-2.5454,-2.4778,-2.4163,-2.3681,-2.333,0.0,-2.3095,-2.3095,-2.3095,-2.3095,-2.3095,-2.3095,-2.3095,-2.2733,-2.2154,-2.1404,-2.0907,-2.0205,-1.9099,-1.8994,0.0,0.0,0.0,-1.8485,-1.8485,-1.8485,0.0,0.0,0.0,0.0,0.0,0.0,0.0,0.0,-1.4114,-1.4329,0.0,0.0,0.0,0.0,0.0,0.0,0.0,0.0,0.0,0.0,0.0,0.0,0.0,0.0,0.0,0.0,-2.0735,-2.1351,-2.0662,-2.0644,-2.1224,-2.2654,-2.356,-2.4339,-2.5063,-2.595,-2.6421,-2.6312,-2.5081,-2.4248,-2.4057,0.0,0.0,0.0,0.0,-2.5976,-2.5665,-2.8438,-2.9843,-2.9825,-2.8386,-2.7701,-2.7736,-2.8684,-2.9123,-2.9158,-2.9632,-2.9843,-2.9843,-2.993,-3.0071,-3.0352,-3.1651,-3.2195,-3.2248,-3.2177,-3.2248,-3.2371,-3.2195,0.0,0.0,-3.1036,-3.0808,-3.0808,-3.0159,-2.8977,-2.8006,-2.8601,-2.8245,-2.7701,-2.7701,-2.7701,-2.7701,-2.7701,-2.721,-2.6718,-2.663,-2.5524,-2.4515,-2.4339,-2.3716,-2.3225,-2.3112,-2.3095,-2.3095,-2.3095,-2.3095,-2.3095,-2.3095,-2.3095,-2.2821,-2.2066,0.0,0.0,-1.9942,-1.9819,-1.9521,-1.8783,-1.8768,-1.8768,-1.8768,-1.8768,-1.8415,-1.7711,-1.7676,-1.7361,-1.673,-1.7379,-1.7687,-1.7668,-1.6937,-1.6958,0.0,0.0,0.0,0.0,0.0,0.0,0.0,0.0,0.0,0.0,0.0,0.0,0.0,0.0,0.0,-2.2781,-2.2473,-2.2165,-2.2238,-2.2745,-2.3234,-2.3542,-2.4864,-2.5805,-2.595,-2.729,-2.7797,-2.691,-2.7363,-2.7615,-2.7456,-2.834,-2.9195,-2.9917,-2.9573,-2.8706,-2.7262,-2.7859,-2.8157,-2.8157,0.0,0.0,-2.7701,-2.7912,-2.7999,-2.8017,-2.8122,-2.8157,-2.821,-2.886,-2.9878,-3.0949,-3.0668,-3.0914,-3.1352,-3.0756,-3.1335,-3.2213,-3.0984,-3.0791,-3.1001,-3.0422,-2.9843,-2.9316,-2.9176,-2.9074,0.0,-2.8117,-2.7824,-2.7701,-2.7701,-2.7701,-2.7701,-2.7701,-2.7596,-2.7315,-2.6736,-2.6384,-2.5788,-2.455,-2.4181,-2.3857,-2.3225,-2.3095,-2.3095,-2.3095,-2.3095,-2.3095,-2.3095,-2.3095,-2.2821,-2.2066,-2.2019,-2.1633,-2.0684,-2.0596,-2.0525,-2.0367,-2.0367,-2.0367,-2.0367,-2.0367,-2.0279,-2.0117,-2.0111,-2.0047,-1.9906,-2.0055,-2.0127,-2.0112,-1.9377,-1.9087,0.0,0.0,0.0,0.0,0.0,0.0,0.0,0.0,0.0,0.0,0.0,-1.7183,-1.7928,0.0,-2.2745,-2.2998,-2.3053,-2.3089,-2.3234,-2.3904,-2.4556,-2.4954,-2.5715,-2.6367,-2.6765,-2.6928,-2.7019,-2.7001,-2.8739,-2.9367,-2.8416,-2.9155,-2.9651,-2.9781,-2.9703,-2.9223,-2.834,-2.7924,-2.7701,-2.7701,-2.7701,-2.7701,-2.7701,-2.7701,-2.7701,-2.7719,-2.8122,-2.8298,-2.8351,-2.9176,-3.0176,-3.1124,-3.0387,-3.0808,-3.1756,-3.1388,-3.1739,-3.2283,-3.1528,-3.1142,-3.0949,-3.072,-3.0124,-2.9544,-2.98,-2.9598,-2.92,-2.8639,-2.8117,-2.7701,-2.7701,-2.7701,-2.7701,-2.7701,-2.742,-2.7157,-2.7157,-2.6542,-2.5893,-2.5524,-2.4822,-2.4181,-2.3769,-2.3383,-2.3095,-2.3095,-2.3095,-2.3095,-2.3095,-2.3095,-2.2961,-2.2593,-2.2558,-2.2242,-2.1474,-2.1035,-2.0807,-2.0807,-2.0807,-2.0807,-2.0807,-2.0807,-2.0811,-2.0798,-2.0798,-2.0793,-2.0802,-2.1188,-2.14,-2.1416,-2.14,-2.1197,0.0,0.0,0.0,0.0,0.0,0.0,0.0,0.0,-1.3041,-1.8239,-2.1657,-2.34,-2.2264,-2.2025,-2.2131,-2.2528,-2.3397,-2.3976,-2.3813,-2.4628,-2.5425,-2.5914,-2.6113,-2.6403,-2.6892,-2.5982,-2.5878,-2.7001,-2.921,-3.0017,-2.8838,-3.0284,-3.057,-2.9307,-2.9059,-2.8928,-2.8752,-2.8047,-2.7771,-2.7929,-2.7929,-2.8017,-2.8157,-2.8157,-2.8157,-2.8193,-2.886,-2.9141,-2.9193,-3.0001,-3.0668,-3.1159,-3.072,-3.1317,-3.2353,-3.2055,-3.2037,-3.2142,-3.2002,-3.1616,-3.1177,-3.1019,-3.058,-3.0141,-3.043,-2.992,-2.9185,-2.9026,-2.8363,-2.7701,-2.7701,-2.7701,-2.7701,-2.7701,-2.7245,-2.6981,-2.7561,-2.6718,-2.5998,-2.6507,-2.5595,-2.4655,-2.4356,-2.3751,-2.3295,-2.3112,-2.3095,-2.3095,-2.3095,-2.3095,-2.3095,-2.3095,-2.3095,-2.2874,-2.2259,-2.161,-2.1264,-2.1264,-2.1264,-2.1264,-2.1264,-2.1264,-2.1251,-2.1247,-2.1251,-2.1253,-2.1249,-2.1902,-2.2206,-2.2224,-2.2979,-2.301,-1.2425,-1.3031,-1.4378,-1.5405,-1.601,-1.6321,0.0,0.0,-1.8441,-1.9158,-2.0792,-2.241,-2.3523,-2.3719,-2.3694,-2.3653,-2.432,-2.461,-2.3904,-2.5117,-2.5842,-2.5208,-2.5769,-2.595,-2.5335,-2.5353,-2.5927,-2.7272,-2.8304,-2.9349,-3.0474,-3.0563,-3.0149,-2.9136,-2.8986,-2.8574,-2.7871,-2.7736,-2.8052,-2.8772,-2.8772,-2.9141,-2.9843,-2.9843,-2.9843,-2.9843,-2.993,-2.9983,-3.0036,-3.0773,-3.1124,-3.1247,-3.1897,-3.2248,-3.223,-3.0861,-3.0773,-3.123,-3.058,-3.0738,-3.1089,-3.044,-3.0176,-3.0018,-2.9607,-2.9207,-2.8789,-2.807,-2.7789,-2.7701,-2.7701,-2.7701,-2.7701,-2.7701,-2.7631,-2.7596,-2.7683,-2.7561,-2.728,-2.6718,-2.6472,-2.591,-2.455,-2.4233,-2.3909,-2.3225,-2.3095,-2.3095,-2.3095,-2.3095,-2.3095,-2.3095,-2.3095,-2.3084,-2.2972,-2.2909,-2.2856,-2.2856,-2.2856,-2.2856,-2.2856,-2.2856,-2.2856,-2.2838,-2.2838,-2.2832,-2.2849,-2.2919,-2.2996,-2.3014,-2.3786,-2.4102,-1.4517,-1.5031,-1.612,-1.7018,-1.7784,-1.8298,-1.8298,-1.8812,-1.9672,-2.0976,-2.2263,-2.3235,-2.3304,-2.3722,-2.3992,0.0,-2.4085,-2.4393,-2.4701,-2.4773,-2.4846,-2.4972,-2.5298,-2.5371,-2.5027,-2.5099,-2.5606,-2.662,-2.7863,-2.9042,-3.006,-2.9955,-2.9632,-2.9119,-2.8529,-2.8035,-2.7701,-2.8157,-2.8561,-2.8912,-2.9369,-2.9772,-3.0106,-3.0106,-3.0334,-3.0738,-3.0738,-3.1001,-3.1458,-3.1774,-3.1897,-3.1932,-3.2265,-3.2406,-3.2318,-3.1686,-3.1633,-3.1844,-3.1545,-3.1335,-3.1142,-3.0843,-3.0457,-3.0071,-2.9839,-2.9351,-2.8724,-2.7914,-2.7712,-2.7701,-2.7701,-2.7701,-2.7701,-2.7701,-2.7368,-2.7174,-2.7613,-2.7368,-2.7104,-2.7227,-2.6894,-2.6402,-2.5752,-2.4875,-2.4198,-2.3839,-2.34,-2.3095,-2.3095,-2.3095,-2.3095,-2.3095,-2.3095,-2.3095,-2.3095,-2.3095,-2.3095,-2.3095,-2.3095,-2.3095,-2.3095,-2.3095,-2.3095,-2.3095,-2.3095,-2.3323,-2.3788,-2.3804,-2.4015,-2.4453,-2.4769,-2.5191,-1.6408,-1.6958,-1.7752,-1.8574,-1.9381,-2.0003,-2.0003,-2.0003,-2.0372,-2.173,-2.2832,-2.3235,-2.23,-2.2993,-2.3666,-2.3526,-2.4031,-2.4574,-2.4918,-2.4664,-2.4502,-2.4646,-2.4664,-2.4755,-2.4972,-2.5009,-2.5425,-2.6457,-2.7834,-2.8879,-2.9557,-2.9482,-2.9205,-2.88,-2.8088,-2.7806,-2.8017,-2.8614,-2.9105,-2.9544,-3.0124,-3.0527,-3.0738,-3.0738,-3.1036,-3.1528,-3.1528,-3.1861,-3.2406,-3.2406,-3.2406,-3.2406,-3.2406,-3.2406,-3.2406,-3.2406,-3.2406,-3.2406,-3.2406,-3.2019,-3.1528,-3.1528,-3.1177,-3.072,-3.0718,-3.0033,-2.9022,-2.7993,-2.7704,-2.7701,-2.7701,-2.7701,-2.7701,-2.7701,-2.7297,-2.7052,-2.7578,-2.728,-2.7069,-2.7596,-2.7262,-2.6841,-2.6648,-2.5665,-2.4866,-2.4655,-2.4102,-2.3593,-2.3147,-2.3095,-2.3095,-2.3095,-2.3095,-2.3095,-2.3095,-2.3095,-2.3095,-2.3095,-2.3095,-2.3095,-2.3095,-2.3095,-2.3095,-2.3095,-2.3323,-2.3726,-2.4305,-2.4506,-2.4875,-2.5419,-2.563,-2.6051,-1.7619,-1.861,-1.9418,-2.0228,-2.1088,-2.1729,-2.1729,-2.1729,-2.1492,-2.0704,-2.1219,-2.1497,-2.0623,-2.1735,-2.2752,-2.2727,-2.4646,-2.5588,-2.4049,-2.5153,-2.557,-2.4013,-2.3831,-2.4139,0.0,-2.5009,-2.566,-2.7254,-2.8141,-2.8879,-2.9566,-2.9464,-2.8984,-2.8067,-2.7806,-2.807,-2.886,-2.8895,-2.965,-3.1124,-3.1142,-3.1581,-3.2335,-3.2335,-3.2335,-3.2353,-3.2353,-3.2371,-3.2406,-3.2406,-3.2406,-3.2406,-3.2406,-3.2406,-3.2406,-3.2406,-3.2406,-3.2406,-3.2406,-3.2371,-3.2353,-3.2353,-3.2353,-3.2335,-3.2311,-3.1291,-2.9741,-2.8167,-2.7704,-2.7701,-2.7701,-2.7701,-2.7701,-2.7701,-2.7683,-2.7666,-2.7701,-2.7683,-2.7666,-2.7701,-2.7683,-2.7438,-2.6736,-2.6578,-2.6279,-2.5489,-2.5349,-2.4805,-2.3295,-2.3095,-2.3095,-2.3095,-2.3095,-2.3095,-2.3095,-2.3095,-2.3095,-2.3095,-2.3095,-2.3095,-2.3095,-2.3095,-2.3095,-2.3095,-2.3858,-2.4287,-2.4304,-2.5015,-2.5384,-2.5419,-2.6209,-2.6595,-1.8463,-1.9087,-1.9748,-2.1694,-2.2391,-2.2593,-2.2593,-2.2593,-2.2337,-2.1494,-2.1513,-2.1588,-2.1189,-2.1298,-2.1879,-2.3218,-2.499,-2.5896,-2.499,-2.595,-2.6403,-2.5497,-2.4918,0.0,0.0,0.0,0.0,-2.7327,-2.8135,-2.8662,-2.8802,-2.8667,-2.8403,-2.8014,-2.8317,-2.8631,-2.8895,-2.9913,-3.0685,-3.1194,-3.1739,-3.2142,-3.2406,-3.2406,-3.2406,-3.2406,-3.2406,-3.2406,-3.2406,-3.2406,-3.2406,-3.2406,-3.2406,-3.2406,-3.2406,-3.2406,-3.2406,-3.2406,-3.2406,-3.2406,-3.2406,-3.2406,-3.2406,-3.2388,-3.2404,-3.1315,-2.9761,-2.8132,-2.7701,-2.7701,-2.7701,-2.7701,-2.7701,-2.7701,-2.7701,-2.7701,-2.7701,-2.7701,-2.7701,-2.7701,-2.7701,-2.7613,-2.7368,-2.6929,-2.6332,-2.5524,-2.5401,-2.5208,-2.4699,-2.419,-2.3892,-2.3892,-2.3418,-2.3095,-2.3095,-2.3095,-2.3095,-2.3095,-2.3095,-2.3095,-2.3095,-2.3611,-2.3892,-2.3892,-2.4647,-2.5269,-2.5823,-2.6086,-2.6455,-2.6929,-2.721,-2.7332,-1.9363,-2.017,-2.0996,-2.2611,-2.3235,-2.3364,-2.307,-2.2776,-2.2318,-2.1457,-2.0782,-2.0438,-2.0625,-2.0407,-2.0807,-2.2654,-2.4556,-2.566,-2.5316,-2.6349,-2.691,-2.6276,-2.5751,-2.5751,0.0,0.0,0.0,-2.7363,-2.8135,-2.8536,-2.8424,-2.8273,-2.8261,-2.8404,-2.8722,-2.9158,-2.972,-3.0703,-3.1335,-3.1633,-3.2142,-3.2406,-3.2406,-3.2406,-3.2406,-3.2406,-3.2406,-3.2406,-3.2406,-3.2406,-3.2406,-3.2406,-3.2406,-3.2406,-3.2406,-3.2406,-3.2406,-3.2406,-3.2406,-3.2406,-3.2406,-3.2406,-3.2406,-3.2406,-3.2406,-3.151,-3.0249,-2.8992,-2.86,-2.8534,-2.8282,-2.8164,-2.8112,-2.7848,-2.773,-2.7701,-2.7701,-2.7701,-2.7701,-2.7701,-2.7701,-2.7701,-2.7701,-2.7315,-2.6823,-2.6297,-2.6226,-2.6016,-2.5472,-2.498,-2.4602,-2.4339,-2.3839,-2.3418,-2.3112,-2.3095,-2.3095,-2.3095,-2.3095,-2.3095,-2.3095,-2.3857,-2.4304,-2.4304,-2.5314,-2.6086,-2.6613,-2.6876,-2.7245,-2.7701,-2.7701,-2.7701,-2.0393,-2.1786,-2.3015,-2.3052,-2.3639,-2.3988,-2.3144,-2.2318,-2.1473,-2.0558,-1.9081,-1.8179,0.0,0.0,-1.9576,-2.1242,-2.3433,-2.4972,-2.5045,-2.6457,-2.72,0.0,0.0,0.0,0.0,0.0,0.0,-2.7526,0.0,-2.8554,-2.8478,-2.8327,-2.8546,-2.9154,-2.9074,-2.972,-3.1177,-3.123,-3.1633,-3.2406,-3.2406,-3.2406,-3.2406,-3.2406,-3.2406,-3.2406,-3.2406,-3.2406,-3.2406,-3.2406,-3.2406,-3.2406,-3.2406,-3.2406,-3.2406,-3.2406,-3.2406,-3.2406,-3.2406,-3.2406,-3.2406,-3.2406,-3.2406,-3.2406,-3.2406,-3.1844,-3.1089,-3.0495,-3.0261,-3.0053,-2.9336,-2.9077,-2.8853,-2.8118,-2.783,-2.7701,-2.7701,-2.7701,-2.7701,-2.7701,-2.7701,-2.7701,-2.7701,-2.7701,-2.7701,-2.7701,-2.7701,-2.7174,-2.5717,-2.5489,-2.5191,-2.4497,-2.4392,-2.4032,-2.3295,-2.3217,-2.3217,-2.3217,-2.3217,-2.3217,-2.3217,-2.3979,-2.4427,-2.4427,-2.5893,-2.6665,-2.6665,-2.735,-2.7701,-2.7701,-2.7701,-2.7701,-2.197,-2.2667,-2.3144,-2.3749,-2.4043,-2.3823,-2.2428,-2.1437,-2.0429,-1.9005,-1.791,-1.7406,-1.8097,0.0,0.0,-2.1133,-2.2962,0.0,-2.5733,-2.729,0.0,-2.883,0.0,-2.8304,-2.9101,-2.9174,0.0,0.0,-2.883,-2.8807,-2.9269,-2.9205,-2.9451,-3.0071,-3.0472,-3.0871,-3.1258,-3.1807,-3.2195,-3.2406,-3.2406,-3.2406,-3.2406,-3.2406,-3.2406,-3.2406,-3.2406,-3.2406,-3.2406,-3.2406,-3.2406,-3.2406,-3.2406,-3.2406,-3.2406,-3.2406,-3.2406,-3.2406,-3.2406,-3.2406,-3.2406,-3.2406,-3.2406,-3.2406,-3.2406,-3.1844,-3.1142,-3.0876,-3.055,-3.0221,-3.0039,-2.9561,-2.9083,-2.88,-2.82,-2.7701,-2.7701,-2.7701,-2.7701,-2.7701,-2.7701,-2.7701,-2.7701,-2.7701,-2.7701,-2.7701,-2.7701,-2.7561,-2.7157,-2.663,-2.6226,-2.6033,-2.5489,-2.5033,-2.484,-2.4822,-2.4822,-2.4822,-2.4822,-2.4822,-2.4822,-2.5595,-2.6016,-2.6016,-2.6946,-2.742,-2.742,-2.7613,-2.7701,-2.7701,-2.7701,-2.7701,-2.274,-2.3272,-2.3639,-2.408,-2.3933,-2.3345,-2.2097,-2.0849,-1.9622,-1.8361,-1.716,-1.6552,-1.7278,-1.7394,-1.8159,0.0,0.0,0.0,-2.5461,-2.7363,-2.8775,0.0,-2.95,0.0,-2.9771,-3.0142,-3.017,0.0,-2.9717,-2.9809,-3.0152,-3.0114,-3.036,-3.0932,-3.1239,-3.15,-3.1771,-3.2194,-3.2406,-3.2406,-3.2406,-3.2406,-3.2406,-3.2406,-3.2406,-3.2406,0.0,-3.2406,-3.2406,-3.2406,-3.2406,-3.2406,-3.2406,-3.2406,-3.2406,-3.2406,-3.2406,-3.2406,-3.2406,-3.2406,-3.2388,-3.2422,-3.2473,-3.2507,-3.2523,-3.2256,-3.1951,-3.1962,-3.1724,-3.1382,-3.1057,-3.0604,-3.0135,-2.969,-2.9145,-2.8754,-2.8754,-2.8754,-2.8649,-2.8298,-2.7929,-2.7701,-2.7701,-2.7701,-2.7701,-2.7701,-2.7701,-2.7701,-2.7701,-2.735,-2.6964,-2.6648,-2.6209,-2.5788,-2.5437,-2.5401,-2.5401,-2.5401,-2.5401,-2.5401,-2.5401,-2.6174,-2.6613,-2.6613,-2.7315,-2.7701,-2.7701,-2.7701,-2.7701,-2.7701,-2.7701,-2.7701,-2.3162,-2.3676,-2.4171,-2.4061,-2.3529,-2.274,-2.1694,-2.017,-1.872,-1.7821,-1.6373,-1.5535,-1.6342,-1.6519,-1.7346,-1.9739,0.0,-2.3125,-2.4773,-2.7091,-2.8677,-2.8876,-3.0242,-3.0876,-3.017,-3.084,-3.0966,-3.017,-3.0858,-3.1247,-3.1073,-3.0998,-3.1224,-3.18,-3.171,-3.1886,-3.2388,-3.2406,-3.2406,-3.2406,-3.2406,-3.2406,-3.2406,-3.2406,-3.2406,-3.2406,-3.2406,0.0,-3.2406,-3.2406,-3.2406,-3.2406,-3.2406,-3.2406,-3.2406,-3.2406,-3.2406,-3.2406,-3.2406,-3.2406,-3.2422,-3.2507,-3.2573,-3.2654,-3.2734,-3.2848,-3.3011,-3.318,-3.3145,-3.2911,-3.2163,-3.1809,-3.1422,-3.0637,-3.0286,-3.0106,-3.0106,-3.0036,-2.9737,-2.9035,-2.8245,-2.7701,-2.7701,-2.7701,-2.7701,-2.7701,-2.7701,-2.7701,-2.7701,-2.7701,-2.7455,-2.6823,-2.6753,-2.6472,-2.577,-2.5717,-2.5717,-2.5717,-2.5717,-2.5717,-2.5717,-2.6384,-2.6753,-2.6753,-2.7368,-2.7701,-2.7701,-2.7701,-2.7701,-2.7701,-2.7701,-2.7754,-2.3988,-2.4098,-2.4043,-2.3382,-2.3107,-2.2428,-2.0225,-1.8482,0.0,-1.5429,-1.4313,-1.3858,-1.4678,-1.5355,-1.6559,-1.8922,-2.0662,-2.2491,-2.4683,-2.7091,-2.9101,0.0,-3.1419,-3.1926,-3.1799,-3.2506,0.0,0.0,0.0,-3.2647,-3.1851,-3.1786,-3.1977,-3.2441,-3.2426,-3.2415,-3.2406,-3.2406,-3.2406,-3.2406,-3.2406,-3.2406,-3.2406,-3.2406,-3.2406,-3.2406,-3.2406,0.0,-3.2406,-3.2406,-3.2406,-3.2406,-3.2406,-3.2406,-3.2406,-3.2406,-3.2406,-3.2406,-3.2406,-3.2406,-3.2422,-3.2557,-3.2687,-3.2813,-3.3032,-3.3214,-3.3332,-3.3408,-3.3379,-3.3284,-3.301,-3.2325,-3.1609,-3.1345,-3.0691,-3.0106,-3.0106,-2.9579,-2.907,-2.893,-2.8245,-2.7701,-2.7701,-2.7701,-2.7701,-2.7701,-2.7701,-2.7701,-2.7701,-2.7701,-2.7648,-2.7526,-2.7508,-2.7455,-2.7315,-2.7297,-2.7297,-2.7297,-2.7297,-2.7297,-2.7297,-2.7438,-2.7508,-2.7508,-2.7631,-2.7701,-2.7701,-2.7701,-2.7701,-2.7701,-2.7701,-2.8052,-2.419,-2.419,-2.4006,-2.3199,-2.2667,-2.1787,-1.9753,0.0,0.0,-1.4697,-1.345,-1.2826,-1.3629,-1.4398,-1.571,-1.8089,-1.9829,-2.1695,-2.4049,-2.6819,-2.9047,-3.0224,-3.1818,-3.2651,-3.2234,-3.2922,-3.3067,0.0,0.0,-3.3189,-3.2691,-3.2534,-3.2509,-3.2588,-3.2573,-3.2507,-3.2406,-3.2406,-3.2406,-3.2406,-3.2406,-3.2406,-3.2406,-3.2406,-3.2406,-3.2406,-3.2406,0.0,-3.2932,-3.2564,-3.2634,-3.295,-3.2546,-3.2406,-3.2406,-3.2406,-3.2406,-3.2406,-3.2406,-3.2406,-3.2422,-3.269,-3.2848,-3.3001,-3.3262,-3.3512,-3.3662,-3.3662,-3.3634,-3.355,-3.3415,-3.2859,-3.2344,-3.2222,-3.1729,-3.13,-3.13,-3.0668,-2.9983,-2.9597,-2.8877,-2.8315,-2.8315,-2.7982,-2.7841,-2.8263,-2.7964,-2.7701,-2.7701,-2.7701,-2.7701,-2.7701,-2.7701,-2.7701,-2.7701,-2.7701,-2.7701,-2.7701,-2.7701,-2.7701,-2.7701,-2.7701,-2.7701,-2.7701,-2.7701,-2.7701,-2.7701,-2.7701,-2.7701,-2.7701,-2.8122,-2.8526,-2.4115,-2.419,-2.3969,-2.296,-2.2209,-2.1185,-1.9212,-1.6986,-1.5061,-1.4095,-1.2742,-1.1921,-1.2557,-1.3412,-1.4723,0.0,-1.8616,-2.0608,-2.298,-2.6077,-2.8467,0.0,-3.1673,0.0,-3.2252,-3.2922,0.0,0.0,0.0,0.0,-3.3232,-3.2997,-3.2787,-3.2573,-3.2523,-3.2473,-3.2406,-3.2406,-3.2406,-3.2406,-3.2406,-3.2406,-3.2406,-3.2406,-3.2406,-3.2406,-3.2406,0.0,0.0,-3.2651,-3.2774,-3.3248,-3.2685,-3.2457,-3.2457,-3.2422,-3.2422,-3.2388,-3.2422,-3.2422,-3.2507,-3.282,-3.3037,-3.3202,-3.3502,-3.378,-3.3972,-3.3947,-3.3895,-3.3842,-3.3633,-3.3327,-3.2993,-3.2773,-3.2558,-3.2406,-3.2406,-3.1756,-3.1019,-3.0457,-2.9702,-2.9158,-2.9158,-2.8631,-2.8421,-2.907,-2.8473,-2.7964,-2.7964,-2.7806,-2.7701,-2.7701,-2.7701,-2.7701,-2.7701,-2.7701,-2.7701,-2.7701,-2.7701,-2.7701,-2.7701,-2.7701,-2.7701,-2.7701,-2.7701,-2.7701,-2.7701,-2.7877,-2.7964,-2.7982,-2.8789,-2.9246,-2.3912,-2.4151,-2.3823,-2.2209,-2.1752,-2.0892,-1.7742,0.0,-1.4077,-1.2542,-1.1521,-1.0903,-1.0929,-1.2169,-1.3527,-1.4487,-1.6588,-1.896,-2.1369,-2.4429,-2.7001,-2.854,0.0,0.0,-3.2198,-3.2922,0.0,0.0,0.0,0.0,-3.3011,-3.2902,-3.2707,-3.2541,-3.2489,-3.2473,-3.2406,-3.2406,-3.2406,-3.2406,-3.2406,-3.2406,-3.2406,-3.2406,-3.2406,-3.2406,-3.2406,0.0,0.0,-3.2508,-3.2558,-3.2679,-3.2608,-3.2573,-3.2573,-3.2523,-3.2439,-3.2388,-3.2473,-3.2523,-3.2639,-3.2961,-3.316,-3.335,-3.3743,-3.4049,-3.4269,-3.4316,-3.4245,-3.4124,-3.3921,-3.3504,-3.305,-3.2541,-3.244,-3.2406,-3.2406,-3.1756,-3.1177,-3.1107,-3.051,-3.0001,-3.0001,-2.993,-2.9913,-2.9983,-2.9299,-2.8789,-2.8789,-2.8157,-2.7701,-2.7701,-2.7701,-2.7701,-2.7701,-2.7701,-2.7701,-2.7701,-2.7701,-2.7701,-2.7701,-2.7701,-2.7701,-2.7701,-2.7701,-2.7701,-2.7701,-2.8438,-2.8789,-2.8807,-2.9614,-3.0352,-2.3214,-2.369,-2.369,-2.2045,-2.1607,-2.0751,-1.753,-1.5519,-1.389,-1.2263,-1.0911,-1.0159,-1.0621,-1.1608,-1.2803,-1.4076,-1.6334,-1.8562,-2.0518,-2.3487,-2.5896,-2.7037,-2.9308,0.0,0.0,0.0,0.0,0.0,0.0,0.0,-3.2993,-3.282,-3.259,-3.2457,-3.2457,-3.2422,-3.2406,-3.2406,-3.2406,-3.2406,-3.2406,-3.2406,-3.2406,-3.2406,-3.2406,-3.2406,-3.2406,0.0,0.0,-3.2717,-3.2922,-3.341,-3.3012,-3.2766,-3.2716,-3.2654,-3.2523,-3.2422,-3.2523,-3.2621,-3.2798,-3.3111,-3.3379,-3.3634,-3.3805,-3.4055,-3.4293,-3.4269,-3.4269,-3.4197,-3.3972,-3.3494,-3.2975,-3.2507,-3.2422,-3.2473,-3.2523,-3.2327,-3.2022,-3.1608,-3.1271,-3.1075,-3.1075,-3.0685,-3.0543,-3.1005,-3.0401,-2.9757,-2.9249,-2.8912,-2.8521,-2.8042,-2.7818,-2.7701,-2.7701,-2.7701,-2.7701,-2.7701,-2.7701,-2.7701,-2.7701,-2.8157,-2.8421,-2.8421,-2.8895,-2.9141,-2.9158,-2.9474,-2.9632,-2.965,-3.0404,-3.0914,-2.2281,-2.2847,-2.2957,-2.1589,-2.1025,-2.0117,-1.7391,-1.5311,-1.3564,-1.2187,-1.0621,-0.9671,-1.025,-1.1191,-1.2278,-1.3419,-1.5809,-1.8034,-1.9395,-2.2111,-2.4339,-2.5393,0.0,-2.9064,0.0,0.0,0.0,0.0,0.0,0.0,-3.3068,-3.2816,-3.259,-3.2406,-3.2406,-3.2406,-3.2406,-3.2406,-3.2406,-3.2406,-3.2406,-3.2406,-3.2406,-3.2406,-3.2406,-3.2406,-3.2406,0.0,0.0,-3.282,-3.309,-3.3681,-3.327,-3.3037,-3.2921,-3.283,-3.2639,-3.2473,-3.2657,-3.2784,-3.2939,-3.3291,-3.3597,-3.3868,-3.3865,-3.4062,-3.4269,-3.4245,-3.4245,-3.4173,-3.3823,-3.3379,-3.293,-3.2491,-3.2473,-3.2539,-3.2654,-3.277,-3.2755,-3.2258,-3.2181,-3.2181,-3.2181,-3.1733,-3.1583,-3.2109,-3.1565,-3.0866,-3.0291,-3.0004,-2.9556,-2.8766,-2.8439,-2.8152,-2.7824,-2.7777,-2.7748,-2.7701,-2.7701,-2.7806,-2.8052,-2.8627,-2.9062,-2.929,-2.9853,-3.0152,-3.0152,-3.0381,-3.0454,-3.044,-3.1194,-3.1545,-2.1098,-2.1571,-2.1425,-2.0607,-1.9806,-1.8788,-1.7089,-1.4844,-1.2876,-1.2061,-1.0621,-0.95,-0.95,-1.082,-1.1898,-1.1916,-1.4627,-1.7001,-1.7817,-2.001,-2.2131,0.0,0.0,-2.7163,-2.8759,0.0,0.0,0.0,0.0,0.0,-3.3214,-3.3006,-3.2722,-3.2388,-3.2406,-3.2406,-3.2406,-3.2406,-3.2406,-3.2406,-3.2406,-3.2406,-3.2406,-3.2406,-3.2406,0.0,0.0,0.0,0.0,-3.2692,-3.2916,-3.3129,-3.3244,-3.3286,-3.3262,-3.3068,-3.2816,-3.2639,-3.282,-3.2975,-3.3142,-3.3473,-3.378,-3.3998,-3.4074,-3.4148,-3.4221,-3.4269,-3.4197,-3.3979,-3.3532,-3.3262,-3.2961,-3.2525,-3.2489,-3.2654,-3.2781,-3.2939,-3.3142,-3.3243,-3.3273,-3.3273,-3.3273,-3.3273,-3.3255,-3.3273,-3.2651,-3.2172,-3.2172,-3.1474,-3.0685,-2.9878,-2.9727,-2.9233,-2.8096,-2.7946,-2.7842,-2.7701,-2.7701,-2.8052,-2.886,-2.8969,-2.9412,-3.0269,-3.0287,-3.0287,-3.0287,-3.0967,-3.1258,-3.1194,-3.2002,-3.2388,-1.8921,-1.9447,-1.97,-1.8885,-1.8504,-1.7887,-1.6244,-1.4451,-1.2876,-1.2061,-1.0621,-0.95,-0.95,-1.0857,-1.1947,-1.1908,-1.4603,-1.678,-1.7037,0.0,0.0,-2.2203,-2.4657,-2.7414,0.0,0.0,0.0,0.0,0.0,0.0,-3.3484,-3.328,-3.2961,-3.244,-3.2406,-3.2406,-3.2406,-3.2406,-3.2406,-3.2406,-3.2406,-3.2406,-3.2406,-3.2406,-3.2406,0.0,0.0,0.0,0.0,-3.274,-3.3024,-3.3262,-3.3473,-3.3587,-3.3625,-3.3473,-3.3111,-3.2749,-3.3037,-3.316,-3.3291,-3.3625,-3.3921,-3.4148,-3.4173,-3.4173,-3.4221,-3.4269,-3.4173,-3.3972,-3.368,-3.3397,-3.3068,-3.2639,-3.2672,-3.2834,-3.2988,-3.319,-3.3415,-3.3597,-3.3652,-3.3652,-3.3652,-3.3652,-3.3652,-3.3652,-3.3433,-3.3094,-3.2546,-3.2253,-3.1803,-3.0979,-3.0779,-2.9998,-2.8217,-2.8035,-2.794,-2.7701,-2.821,-2.8631,-2.8895,-3.0053,-3.0898,-3.1253,-3.1849,-3.2099,-3.2018,-3.2172,-3.2168,-3.2019,-3.2283,-3.2406,-1.6751,-1.7566,-1.8071,-1.7581,-1.7219,-1.6642,-1.5343,-1.3799,-1.2423,-1.1608,-1.0403,-0.9508,-0.9535,-1.0913,-1.2016,-1.1949,-1.4641,-1.6842,0.0,0.0,0.0,-2.2824,0.0,0.0,0.0,0.0,0.0,0.0,0.0,0.0,-3.3807,-3.3606,-3.3291,-3.2802,-3.2657,-3.2574,-3.2574,-3.2574,-3.2574,-3.2574,-3.2574,-3.2574,-3.2574,-3.2574,-3.2574,0.0,0.0,0.0,0.0,-3.2916,-3.316,-3.3426,-3.3652,-3.3788,-3.386,-3.3698,-3.3321,-3.2939,-3.319,-3.328,-3.335,-3.368,-3.3972,-3.4197,-3.4197,-3.4197,-3.4221,-3.4245,-3.4148,-3.3998,-3.3807,-3.3559,-3.325,-3.2766,-3.2848,-3.3037,-3.3142,-3.3397,-3.3671,-3.3895,-3.3947,-3.3947,-3.3947,-3.3947,-3.3947,-3.3947,-3.3947,-3.3762,-3.3271,-3.3216,-3.2902,-3.209,-3.19,-3.1148,-2.9492,-2.9215,-2.9027,-2.8818,-2.9236,-2.9581,-2.988,-3.0973,-3.1769,-3.221,-3.2804,-3.3068,-3.3001,-3.283,-3.2705,-3.2574,-3.2574,-3.2733,0.0,-1.5841,-1.6457,-1.6512,-1.5918,-1.5144,-1.4384,-1.2966,0.0,-1.0857,-1.006,-0.9535,-0.9651,-1.1004,-1.2104,-1.2156,-1.4776,-1.7103,0.0,-2.0154,0.0,0.0,-2.751,0.0,0.0,0.0,0.0,0.0,0.0,0.0,-3.4124,-3.3998,-3.377,-3.3447,-3.3129,-3.2979,-3.2948,-3.2948,-3.2948,-3.2948,-3.2948,-3.2948,-3.2948,-3.2948,-3.2948,0.0,0.0,0.0,0.0,-3.3129,-3.3404,-3.3706,-3.3853,-3.3987,-3.409,-3.3899,-3.3538,-3.3142,-3.3345,-3.3357,-3.335,-3.3707,-3.3998,-3.4197,-3.4197,-3.4197,-3.4197,-3.4197,-3.4148,-3.4049,-3.3868,-3.3698,-3.3473,-3.297,-3.3032,-3.325,-3.3321,-3.3597,-3.3895,-3.4148,-3.4197,-3.4197,-3.4197,-3.4197,-3.4197,-3.4197,-3.4197,-3.4197,-3.4197,-3.4197,-3.39,-3.3157,-3.3035,-3.26,-3.1661,-3.1129,-3.0779,-3.0635,-3.0564,-3.0831,-3.1501,-3.168,-3.2222,-3.3093,-3.3256,-3.3316,-3.3321,-3.3055,-3.2948,-3.2948,-3.2948,-3.3377,-1.2508,0.0,-1.4162,-1.4723,-1.4301,-1.3678,0.0,-1.218,-1.0993,-1.0748,-1.0096,-0.976,-1.0331,-1.1342,-1.2469,-1.3581,-1.5473,-1.7271,-1.8649,0.0,0.0,-2.7606,0.0,0.0,0.0,0.0,0.0,0.0,0.0,-3.4124,-3.4245,-3.4173,-3.4005,-3.377,-3.3707,-3.3522,-3.3202,-3.322,-3.322,-3.322,-3.322,-3.322,-3.322,-3.322,-3.322,0.0,0.0,0.0,-3.3202,-3.3426,-3.398,-3.4697,-3.4897,-3.5029,-3.5131,-3.4977,-3.421,-3.3291,-3.3473,-3.3426,-3.3408,-3.3928,-3.4148,-3.4197,-3.4197,-3.4197,-3.4197,-3.4197,-3.4148,-3.4074,-3.3972,-3.3834,-3.3597,-3.3262,-3.3309,-3.3462,-3.3502,-3.3707,-3.3947,-3.4148,-3.4197,-3.4197,-3.4197,-3.4197,-3.4197,-3.4197,-3.4197,-3.4197,-3.4197,-3.4197,-3.4123,-3.3937,-3.387,-3.3704,-3.3419,-3.203,-3.1109,-3.0921,-3.1351,-3.1637,-3.1658,-3.2414,-3.2961,-3.3262,-3.3541,-3.3671,-3.3615,-3.3339,-3.322,-3.322,-3.322,-3.3635,-1.1728,-1.2908,-1.3888,-1.4253,-1.4065,-1.3596,-1.2779,-1.1658,-1.0685,-1.0276,-1.0176,-1.0267,-1.0676,-1.2073,-1.3538,-1.4708,-1.6579,0.0,0.0,0.0,-2.5991,-2.8912,0.0,0.0,0.0,0.0,0.0,0.0,0.0,-3.4221,-3.4427,-3.4386,-3.4293,-3.4124,-3.4124,-3.3928,-3.3522,-3.3522,-3.3522,-3.3522,-3.3522,-3.3522,-3.3522,-3.3522,-3.3522,0.0,0.0,0.0,-3.3522,-3.368,-3.4284,-3.5118,-3.4855,-3.5069,-3.5442,-3.4881,-3.4174,-3.3455,-3.3587,-3.3597,-3.3634,-3.4055,-3.4197,-3.4197,-3.4197,-3.4197,-3.4197,-3.4197,-3.4173,-3.4148,-3.4099,-3.3998,-3.3815,-3.3597,-3.3597,-3.3671,-3.3698,-3.3834,-3.3998,-3.4173,-3.4197,-3.4197,-3.4197,-3.4197,-3.4197,-3.4197,-3.4197,-3.4197,-3.4197,-3.4197,-3.4197,-3.4197,-3.4173,-3.4124,-3.4099,-3.3185,-3.2518,-3.231,-3.2574,-3.264,-3.2451,-3.3033,-3.3397,-3.3541,-3.4174,-3.4273,-3.3807,-3.399,-3.4069,-3.4069,-3.4069,-3.4736,-1.1698,-1.3313,-1.4504,-1.4451,-1.4469,-1.4114,-1.258,-1.1571,-1.0812,-1.0133,0.0,-1.1059,-1.1306,-1.3125,0.0,0.0,0.0,0.0,-2.4563,-2.5828,-2.7296,0.0,0.0,0.0,0.0,0.0,0.0,0.0,0.0,-3.434,-3.4602,-3.4602,-3.4517,-3.4386,-3.4386,-3.4221,-3.3868,-3.3842,-3.3842,-3.3842,-3.3842,-3.3842,-3.3842,-3.3842,-3.3842,-3.3842,0.0,0.0,-3.3868,-3.3921,-3.4471,-3.5269,-3.458,-3.4797,-3.5404,-3.4537,-3.397,-3.3643,-3.3698,-3.3788,-3.3947,-3.4148,-3.4197,-3.4197,-3.4197,-3.4197,-3.4197,-3.4197,-3.4197,-3.4173,-3.4173,-3.4124,-3.4023,-3.386,-3.3842,-3.3895,-3.3842,-3.3921,-3.4049,-3.4173,-3.4197,-3.4197,-3.4197,-3.4197,-3.4197,-3.4197,-3.4197,-3.4197,-3.4197,-3.4197,-3.4197,-3.4197,-3.4197,-3.4197,-3.4197,-3.4197,-3.4099,-3.3868,-3.3753,-3.3597,-3.3408,-3.3502,-3.3688,-3.4017,-3.4895,-3.5003,-3.4334,-3.4944,-3.5266,-3.5266,-3.5266,-3.6094,-1.1822,-1.344,-1.4658,-1.4581,-1.4578,-1.4349,-1.3399,-1.2511,-1.1875,-1.1809,0.0,0.0,0.0,-1.4715,-1.6101,0.0,0.0,-2.3644,0.0,0.0,0.0,0.0,0.0,0.0,0.0,0.0,0.0,0.0,0.0,-3.445,-3.4583,-3.4539,-3.4473,-3.4386,-3.434,-3.4269,-3.4148,-3.4148,-3.4148,-3.4148,-3.4148,-3.4148,-3.4148,-3.4148,-3.4148,-3.4148,0.0,-3.4148,-3.4148,-3.4148,-3.4674,-3.5454,-3.533,-3.5367,-3.546,-3.5254,-3.4573,-3.378,-3.378,-3.3868,-3.3998,-3.4148,-3.4197,-3.4197,-3.4197,-3.4197,-3.4197,-3.4197,-3.4173,-3.4124,-3.4124,-3.4023,-3.3921,-3.3895,-3.3895,-3.3921,-3.3947,-3.4023,-3.4099,-3.4173,-3.4197,-3.4197,-3.4197,-3.4197,-3.4197,-3.4197,-3.4197,-3.4197,-3.4197,-3.4197,-3.4197,-3.4197,-3.4197,-3.4197,-3.4197,-3.4197,-3.4173,-3.4148,-3.4074,-3.3972,-3.3797,-3.3762,-3.4164,-3.5043,-3.5321,-3.5732,-3.6263,-3.6374,-3.6448,-3.6448,-3.6448,-3.6949,-1.1907,-1.3211,-1.4307,-1.5234,-1.5753,-1.5793,-1.5003,-1.4137,-1.3514,-1.3589,0.0,0.0,0.0,0.0,-1.8517,-2.1352,0.0,-2.5175,0.0,0.0,0.0,0.0,0.0,0.0,0.0,0.0,0.0,0.0,0.0,0.0,-3.4539,-3.4517,-3.445,-3.434,-3.4316,-3.4269,-3.4197,-3.4197,-3.4197,-3.4197,-3.4197,-3.4197,-3.4197,-3.4197,-3.4197,-3.4197,0.0,-3.4197,-3.4197,-3.4197,-3.4959,-3.6055,-3.5144,-3.5349,-3.6092,-3.5544,-3.5032,-3.4676,-3.5118,-3.5024,-3.4759,-3.486,-3.4569,-3.429,-3.4754,-3.4563,-3.4389,-3.5312,-3.4835,-3.4074,-3.3972,-3.3921,-3.3895,-3.3842,-3.3895,-3.3972,-3.4099,-3.4124,-3.4173,-3.4197,-3.4197,-3.4197,-3.4197,-3.4197,-3.4197,-3.4197,-3.4197,-3.4197,-3.4197,-3.4197,-3.4197,-3.4197,-3.4197,-3.4197,-3.4197,-3.4197,-3.4173,-3.4148,-3.4074,-3.4023,-3.3947,-3.4381,-3.484,-3.5351,-3.6281,-3.676,-3.6686,-3.7132,-3.7336,-3.7336,-3.7336,-3.7782,-1.1765,-1.2836,-1.3977,-1.5498,-1.6551,-1.7068,-1.6461,-1.5945,-1.5617,-1.5674,0.0,0.0,0.0,-1.9191,0.0,-2.3969,-2.5167,0.0,0.0,0.0,0.0,0.0,0.0,0.0,0.0,0.0,0.0,0.0,0.0,0.0,-3.4517,-3.4495,-3.4427,-3.4316,-3.4293,-3.4245,-3.4197,-3.4197,-3.4197,-3.4197,-3.4197,-3.4197,-3.4197,-3.4197,-3.4197,-3.4197,-3.4197,-3.4197,-3.4216,-3.442,-3.5256,-3.6296,-3.52,-3.5572,-3.6593,-3.5673,-3.5454,-3.574,-3.6324,-3.6192,-3.5688,-3.5553,-3.5163,-3.4866,-3.5349,-3.5175,-3.505,-3.6352,-3.5992,-3.5118,-3.4531,-3.4412,-3.4457,-3.4403,-3.4336,-3.4319,-3.447,-3.4327,-3.4197,-3.4197,-3.4197,-3.4197,-3.4197,-3.4197,-3.4197,-3.4197,-3.4197,-3.4197,-3.4197,-3.4197,-3.4197,-3.4197,-3.4197,-3.4197,-3.4197,-3.4197,-3.4173,-3.4124,-3.4074,-3.4049,-3.4049,-3.4881,-3.5443,-3.5699,-3.7143,-3.7689,-3.7262,-3.7875,-3.8172,-3.8172,-3.8172,-3.8507,-1.1244,-1.2425,-1.3812,-1.4772,-1.6157,-1.7291,-1.7309,-1.7794,-1.8256,-1.8313,0.0,0.0,0.0,-2.1795,-2.3398,-2.5133,-2.6114,0.0,0.0,0.0,0.0,0.0,0.0,0.0,0.0,0.0,0.0,0.0,0.0,0.0,-3.4583,-3.4473,-3.4386,-3.4386,-3.4269,-3.4197,-3.4197,-3.4197,-3.4197,-3.4197,-3.4197,-3.4197,-3.4197,-3.4197,-3.4197,-3.4197,-3.4197,-3.4197,-3.4253,-3.507,-3.546,-3.5646,-3.6278,-3.6593,-3.6593,-3.5795,-3.5962,-3.6612,-3.6686,-3.6649,-3.6482,-3.5739,-3.5962,-3.6389,-3.5702,-3.598,-3.6556,-3.6668,-3.7668,-3.8338,-3.6565,-3.6121,-3.613,-3.6131,-3.5634,-3.5243,-3.5379,-3.4773,-3.4197,-3.4197,-3.4197,-3.4197,-3.4197,-3.4197,-3.4197,-3.4197,-3.4197,-3.4197,-3.4197,-3.4197,-3.4197,-3.4197,-3.4197,-3.4197,-3.4197,-3.4197,-3.4197,-3.4197,-3.4197,-3.4197,-3.4197,-3.5033,-3.585,-3.6593,-3.7448,-3.8228,-3.8934,-3.899,-3.9008,-3.9008,-3.9008,-3.9045,-1.1705,-1.2423,-1.3304,-1.523,-1.6564,-1.7547,-1.8046,-1.9164,-2.012,-2.0157,-2.0778,0.0,0.0,0.0,-2.4501,-2.6154,0.0,0.0,0.0,0.0,0.0,0.0,0.0,0.0,0.0,0.0,0.0,0.0,0.0,0.0,0.0,-3.3462,-3.368,-3.3589,-3.4051,-3.4245,-3.4197,-3.4197,-3.4197,-3.4197,-3.4197,-3.4197,-3.4197,-3.4197,-3.4197,-3.4197,-3.4197,-3.4197,-3.4271,-3.5126,-3.5776,-3.6315,-3.7132,-3.7132,-3.6705,-3.6909,-3.7188,-3.7522,-3.8024,-3.7856,-3.7392,-3.7076,-3.6853,-3.6723,-3.6928,-3.6864,-3.6912,-3.7912,-3.8637,-3.8646,-3.673,-3.6287,-3.6333,-3.625,-3.6132,-3.5954,-3.5583,-3.5237,-3.4847,-3.4309,-3.4197,-3.4197,-3.4197,-3.4197,-3.4197,-3.4197,-3.4197,-3.4197,-3.4197,-3.4197,-3.4197,-3.4197,-3.4197,-3.442,-3.4959,-3.4996,-3.5219,-3.572,-3.5274,-3.4996,-3.4996,-3.6278,-3.7132,-3.7429,-3.8228,-3.8804,-3.9101,-3.9101,-3.9101,-3.9101,-3.9101,-3.938,-1.2134,-1.2645,-1.3308,-1.5321,-1.6875,-1.8108,-1.8892,-2.0335,-2.1595,-2.1871,-2.2534,-2.3228,-2.3633,0.0,0.0,0.0,0.0,0.0,0.0,0.0,0.0,0.0,0.0,0.0,0.0,0.0,0.0,0.0,0.0,0.0,0.0,-3.2622,-3.301,-3.3164,-3.3664,-3.4008,-3.4221,-3.4221,-3.4197,-3.4197,-3.4197,-3.4197,-3.4197,-3.4197,-3.4197,-3.4197,-3.4197,-3.4197,-3.429,-3.5404,-3.65,-3.7485,-3.7782,-3.7708,-3.7485,-3.7782,-3.8061,-3.8358,-3.8915,-3.8729,-3.8228,-3.7968,-3.7689,-3.7503,-3.7801,-3.77,-3.7691,-3.8804,-3.911,-3.8729,-3.7146,-3.6971,-3.7173,-3.708,-3.6971,-3.6795,-3.6345,-3.6055,-3.5683,-3.5107,-3.4977,-3.4977,-3.4977,-3.4977,-3.4977,-3.4977,-3.4773,-3.4606,-3.4606,-3.4364,-3.4309,-3.4569,-3.4853,-3.5244,-3.5813,-3.5869,-3.6092,-3.6668,-3.6408,-3.6129,-3.5887,-3.7169,-3.7894,-3.7894,-3.8692,-3.9101,-3.9101,-3.9101,-3.9101,-3.9101,-3.9101,-3.9565,-1.2397,-1.3036,-1.3914,-1.4787,0.0,0.0,-1.9916,-2.1309,-2.2653,-2.3536,-2.4299,-2.476,-2.465,-2.4682,0.0,0.0,0.0,0.0,0.0,0.0,0.0,0.0,0.0,0.0,0.0,0.0,0.0,0.0,0.0,0.0,0.0,-3.2083,-3.2454,-3.3259,-3.3164,-3.3492,-3.4274,-3.4221,-3.4197,-3.4197,-3.4197,-3.4197,-3.4197,-3.4197,-3.4197,-3.4197,-3.4197,-3.4197,-3.4327,-3.5999,-3.7652,-3.9027,-3.8209,-3.8395,-3.9008,-3.8209,-3.8414,-3.9101,-3.9101,-3.9101,-3.8971,-3.8172,-3.8451,-3.8952,-3.8154,-3.8469,-3.9101,-3.9101,-3.9101,-3.8915,-3.8116,-3.8396,-3.8892,-3.8873,-3.8339,-3.7803,-3.7894,-3.7262,-3.6705,-3.6686,-3.6686,-3.6686,-3.6686,-3.6686,-3.6686,-3.6686,-3.6017,-3.5497,-3.5497,-3.4736,-3.455,-3.5404,-3.6236,-3.6701,-3.6705,-3.6705,-3.6705,-3.6705,-3.7466,-3.7541,-3.6723,-3.7466,-3.7912,-3.7912,-3.8692,-3.9101,-3.9101,-3.9101,-3.9101,-3.9101,-3.9101,-3.9584,-1.2284,-1.3066,0.0,-1.5472,0.0,0.0,0.0,-2.2224,0.0,0.0,-2.5514,-2.5807,-2.6343,0.0,0.0,0.0,0.0,0.0,0.0,0.0,0.0,0.0,0.0,0.0,0.0,0.0,0.0,0.0,0.0,0.0,0.0,-3.094,-3.1332,-3.1534,-3.2655,-3.3299,-3.3431,-3.399,-3.4245,-3.4197,-3.4197,-3.4197,-3.4197,-3.4197,-3.4197,-3.4197,-3.4197,-3.4197,-3.4327,-3.5999,-3.7652,-3.9082,-3.8841,-3.8897,-3.9064,-3.8822,-3.8897,-3.9101,-3.9101,-3.9101,-3.9064,-3.8822,-3.8915,-3.9064,-3.8822,-3.8915,-3.9101,-3.9101,-3.9101,-3.9045,-3.8804,-3.8888,-3.8767,-3.7635,-3.7617,-3.7718,-3.7169,-3.7299,-3.7373,-3.6798,-3.6686,-3.6686,-3.6686,-3.6686,-3.6686,-3.6686,-3.65,-3.6333,-3.6333,-3.5622,-3.5442,-3.6266,-3.657,-3.6933,-3.7503,-3.7541,-3.7782,-3.8339,-3.8599,-3.8377,-3.7578,-3.8321,-3.8729,-3.8729,-3.8971,-3.9101,-3.9101,-3.9101,-3.9101,-3.9101,-3.9733,-4.0457,-1.2697,-1.378,0.0,-1.6374,-1.826,-2.0335,-2.2383,0.0,0.0,0.0,-2.6057,-2.6274,-2.7071,-2.7204,0.0,0.0,0.0,0.0,0.0,0.0,0.0,0.0,0.0,0.0,0.0,0.0,0.0,0.0,0.0,0.0,0.0,-3.0152,-3.0696,-3.1294,-3.2304,-3.3085,-3.3654,-3.4074,-3.4269,-3.4245,-3.4221,-3.4197,-3.4197,-3.4197,-3.4197,-3.4197,-3.4197,-3.4569,-3.5256,-3.6278,-3.7652,-3.9101,-3.9101,-3.9101,-3.9101,-3.9101,-3.9101,-3.9101,-3.9101,-3.9101,-3.9101,-3.9101,-3.9101,-3.9101,-3.9101,-3.9101,-3.9101,-3.9101,-3.9101,-3.9027,-3.8711,-3.8618,-3.8451,-3.7801,-3.8024,-3.8228,-3.7764,-3.8024,-3.8228,-3.7745,-3.7652,-3.7652,-3.7652,-3.7652,-3.7652,-3.7652,-3.7652,-3.7169,-3.5869,-3.5857,-3.6162,-3.6656,-3.7275,-3.784,-3.8339,-3.8377,-3.8581,-3.9064,-3.9101,-3.8878,-3.8395,-3.8841,-3.9101,-3.9101,-3.9101,-3.9268,-3.9621,-3.9621,-3.977,-4.0104,-4.0624,-4.1311,-1.3261,-1.4773,-1.6309,-1.7264,-1.9476,0.0,-2.4626,-2.5088,-2.5245,-2.6052,0.0,-2.6456,-2.7278,-2.743,0.0,0.0,0.0,0.0,0.0,0.0,0.0,0.0,0.0,0.0,0.0,0.0,0.0,0.0,0.0,0.0,0.0,-2.9701,-3.0396,-3.1936,-3.2064,-3.2828,-3.4383,-3.4325,-3.4316,-3.4293,-3.4245,-3.4197,-3.4197,-3.4197,-3.4197,-3.4197,-3.4197,-3.5144,-3.6686,-3.6686,-3.7652,-3.9101,-3.9101,-3.9101,-3.9101,-3.9101,-3.9101,-3.9101,-3.9101,-3.9101,-3.9101,-3.9101,-3.9101,-3.9101,-3.9101,-3.9101,-3.9101,-3.9101,-3.9101,-3.8934,-3.8191,-3.8005,-3.8191,-3.8934,-3.9045,-3.899,-3.899,-3.9045,-3.9101,-3.9101,-3.9101,-3.9101,-3.9101,-3.9101,-3.9101,-3.9101,-3.9101,-3.8024,-3.5033,-3.585,-3.6752,-3.6898,-3.8228,-3.9101,-3.9101,-3.9101,-3.9101,-3.9101,-3.9101,-3.9101,-3.9101,-3.9101,-3.9138,-3.9212,-3.9212,-3.964,-4.0494,-4.0494,-4.0884,-4.159,-4.1683,-4.2092,-1.2422,-1.4341,0.0,0.0,-1.9893,-2.2821,-2.4759,-2.5151,-2.5462,-2.6839,-2.7085,-2.7476,-2.8893,0.0,0.0,0.0,0.0,0.0,0.0,0.0,0.0,0.0,0.0,0.0,0.0,0.0,0.0,0.0,0.0,0.0,-2.9701,-2.9701,-3.0152,-3.1128,-3.1765,-3.257,-3.3559,-3.4154,-3.4386,0.0,-3.4293,-3.4245,-3.4197,-3.4197,-3.4197,-3.4197,-3.4197,-3.5144,-3.6686,-3.6686,-3.7652,-3.9101,-3.9101,-3.9101,-3.9101,-3.9101,-3.9101,-3.9101,-3.9101,-3.9101,-3.9101,-3.9101,-3.9101,-3.9101,-3.9101,-3.9101,-3.9101,-3.9101,-3.9101,-3.9064,-3.8897,-3.8841,-3.8897,-3.9064,-3.8618,-3.8154,-3.8154,-3.8655,-3.9101,-3.9101,-3.9101,-3.9101,-3.9101,-3.9101,-3.9101,-3.9101,-3.9101,-3.8841,-3.8135,-3.7243,-3.7181,-3.8459,-3.8897,-3.9101,-3.9101,-3.9101,-3.9101,-3.9101,-3.9101,-3.9101,-3.9101,-3.9101,-3.9417,-4.0104,-4.0104,-4.0513,-4.133,-4.133,-4.1423,-4.1609,-4.224,-4.263,-1.217,0.0,0.0,-1.9298,0.0,-2.3069,-2.4798,-2.5151,-2.5437,-2.6588,-2.7066,-2.7665,0.0,0.0,0.0,0.0,0.0,0.0,0.0,0.0,0.0,0.0,0.0,0.0,0.0,0.0,0.0,0.0,0.0,-2.9701,-2.9701,-2.9701,-3.0077,-3.0865,-3.1316,-3.2103,-3.3358,-3.3727,-3.4098,-3.4404,-3.4363,-3.4316,-3.4293,-3.4221,-3.4197,-3.4197,-3.4197,-3.5144,-3.6686,-3.6686,-3.7652,-3.9101,-3.9101,-3.9101,-3.9101,-3.9101,-3.9101,-3.9101,-3.9101,-3.9101,-3.9101,-3.9101,-3.9101,-3.9101,-3.9101,-3.9101,-3.9101,-3.9101,-3.9101,-3.9101,-3.9101,-3.9101,-3.9101,-3.9101,-3.8785,-3.8469,-3.8469,-3.8804,-3.9101,-3.9101,-3.9101,-3.9101,-3.9101,-3.9101,-3.9101,-3.9101,-3.9101,-3.9101,-3.9101,-3.8383,-3.8186,-3.9008,-3.9101,-3.9101,-3.9101,-3.9101,-3.9101,-3.9101,-3.9101,-3.9287,-3.9714,-3.9714,-3.9937,-4.0383,-4.0773,-4.1367,-4.2166,-4.2166,-4.237,-4.276,-4.3188,-4.3373,-1.2087,0.0,-1.8124,-2.1453,-2.2441,0.0,-2.4606,-2.5037,-2.5266,-2.5863,-2.659,0.0,0.0,0.0,0.0,0.0,0.0,0.0,0.0,0.0,0.0,0.0,0.0,0.0,0.0,0.0,0.0,0.0,0.0,-2.9701,-2.9701,-2.9701,-3.0077,-3.0865,-3.0884,-3.1635,-3.3156,-3.3262,-3.3652,-3.4289,-3.4353,-3.4386,-3.4404,-3.4293,-3.4221,-3.4221,-3.4221,-3.5095,-3.65,-3.663,-3.7559,-3.8915,-3.9045,-3.9101,-3.9101,-3.9101,-3.9101,-3.9101,-3.9101,-3.9101,-3.9101,-3.9101,-3.9101,-3.9101,-3.9101,-3.9101,-3.9101,-3.9101,-3.9101,-3.9101,-3.9101,-3.9101,-3.9101,-3.9101,-3.9101,-3.9101,-3.9101,-3.9101,-3.9101,-3.9101,-3.9101,-3.9101,-3.9101,-3.9101,-3.9101,-3.9101,-3.9101,-3.9101,-3.9101,-3.9101,-3.9101,-3.9101,-3.9101,-3.9101,-3.9101,-3.9101,-3.9101,-3.9101,-3.9268,-3.9714,-4.0438,-4.068,-4.081,-4.081,-4.146,-4.2203,-4.3002,-4.3002,-4.3355,-4.4005,-4.4005,-4.4005,-1.1786,0.0,-1.8038,0.0,-2.1985,-2.286,0.0,0.0,-2.5108,0.0,0.0,0.0,0.0,0.0,0.0,0.0,0.0,0.0,0.0,0.0,0.0,0.0,0.0,0.0,0.0,0.0,0.0,0.0,-2.9701,-2.9701,-2.9701,-2.9701,-3.0077,-3.0865,-3.0884,-3.1354,-3.2255,-3.3004,-3.3414,-3.3484,-3.4091,-3.4386,-3.4386,-3.4363,-3.434,-3.4293,-3.4293,-3.4803,-3.5702,-3.6408,-3.7225,-3.8135,-3.8822,-3.9101,-3.9101,-3.9101,-3.9101,-3.9101,-3.9101,-3.9101,-3.9101,-3.9101,-3.9101,-3.9101,-3.9101,-3.9101,-3.9101,-3.9101,-3.9101,-3.9101,-3.9101,-3.9101,-3.9101,-3.9101,-3.9101,-3.9101,-3.9101,-3.9101,-3.9101,-3.9101,-3.9101,-3.9101,-3.9101,-3.9101,-3.9101,-3.9101,-3.9101,-3.9101,-3.9101,-3.9101,-3.9101,-3.9101,-3.9101,-3.9101,-3.9101,-3.9101,-3.9101,-3.9101,-4.0011,-4.0634,-4.0717,-4.185,-4.2482,-4.2482,-4.2593,-4.3039,-4.3838,-4.3838,-4.3893,-4.4005,-4.4005,-4.4005,-1.3413,-1.5923,-1.801,0.0,-2.1909,-2.284,-2.3698,0.0,-2.5095,0.0,0.0,0.0,0.0,0.0,0.0,0.0,0.0,0.0,0.0,0.0,0.0,0.0,0.0,0.0,0.0,0.0,0.0,0.0,-2.9701,-2.9701,-2.9701,-2.9701,-2.9852,-3.0227,-3.0227,-3.0621,-3.1429,-3.1823,-3.246,-3.3377,-3.4142,-3.4517,-3.4517,-3.4517,-3.445,-3.434,-3.4316,-3.4796,-3.5566,-3.5894,-3.65,-3.7262,-3.7615,-3.8024,-3.8432,-3.8432,-3.8711,-3.9101,-3.9101,-3.9101,-3.9101,-3.9101,-3.9101,-3.9101,-3.9101,-3.9101,-3.9101,-3.9101,-3.9101,-3.9101,-3.9101,-3.9101,-3.9101,-3.9101,-3.9101,-3.9101,-3.9101,-3.9101,-3.9101,-3.9101,-3.9101,-3.9101,-3.9101,-3.9101,-3.9101,-3.9101,-3.9101,-3.9101,-3.9101,-3.9101,-3.9101,-3.9101,-3.9101,-3.9844,-4.1683,-4.185,-4.185,-4.185,-4.2314,-4.2314,-4.172,-4.2407,-4.3002,-4.3466,-4.3466,-4.3652,-4.4005,-4.4005,-4.4005,-4.4005,-4.4005,-4.4005,-1.4296,-1.6102,-1.733,-1.9663,-2.1122,-2.2136,0.0,0.0,-2.4796,0.0,0.0,0.0,0.0,0.0,0.0,0.0,0.0,0.0,0.0,0.0,0.0,0.0,0.0,0.0,0.0,0.0,0.0,0.0,-2.9701,-2.9701,-2.9701,-2.9701,-2.9701,-2.9701,-2.9701,-2.9983,-3.0603,-3.0809,-3.1748,-3.3419,-3.4001,-3.4395,-3.4602,-3.4602,-3.4539,-3.445,-3.4363,-3.4689,-3.528,-3.5436,-3.5876,-3.6408,-3.6612,-3.7188,-3.7894,-3.7894,-3.8414,-3.9101,-3.9101,-3.9101,-3.9101,-3.9101,-3.9101,-3.9101,-3.9101,-3.9101,-3.9101,-3.9101,-3.9101,-3.9101,-3.9101,-3.9101,-3.9101,-3.9101,-3.9101,-3.9101,-3.9101,-3.9101,-3.9101,-3.9101,-3.9101,-3.9101,-3.9101,-3.9101,-3.9101,-3.9101,-3.9101,-3.9101,-3.9101,-3.9101,-3.9101,-3.9101,-3.9844,-4.133,-4.3782,-4.4005,-4.4005,-4.4005,-4.4005,-4.3652,-4.2853,-4.3002,-4.3392,-4.3986,-4.4005,-4.4005,-4.4005,-4.4005,-4.4005,-4.4005,-4.4005,-4.4005,-1.3016,-1.4367,-1.5449,-1.7254,-1.8983,0.0,0.0,0.0,0.0,0.0,0.0,0.0,0.0,0.0,0.0,0.0,0.0,0.0,0.0,0.0,0.0,0.0,0.0,0.0,0.0,0.0,0.0,0.0,-2.9701,-2.9701,-2.9701,-2.9701,-2.9701,-2.9701,-2.9701,-2.972,-2.9758,-3.0527,-3.1748,-3.34,-3.3438,-3.3869,-3.4602,-3.4602,-3.4602,-3.4602,-3.4517,-3.4446,-3.4423,-3.5261,-3.5591,-3.5627,-3.6389,-3.7188,-3.7894,-3.7894,-3.8414,-3.9101,-3.9101,-3.9101,-3.9101,-3.9101,-3.9101,-3.9101,-3.9101,-3.9101,-3.9101,-3.9101,-3.9101,-3.9101,-3.9101,-3.9101,-3.9101,-3.9101,-3.9101,-3.9101,-3.9101,-3.9101,-3.9101,-3.9101,-3.9101,-3.9101,-3.9101,-3.9101,-3.9101,-3.9101,-3.9101,-3.9101,-3.9101,-3.9101,-3.9101,-3.9101,-4.1887,-4.3819,-4.3986,-4.4005,-4.4005,-4.4005,-4.4005,-4.3968,-4.3912,-4.3931,-4.3968,-4.4005,-4.4005,-4.4005,-4.4005,-4.4005,-4.4005,-4.4005,-4.4005,-4.4005,-1.2166,-1.3478,0.0,-1.5603,-1.7204,-1.8649,-1.9191,-2.0871,0.0,0.0,0.0,0.0,0.0,0.0,0.0,0.0,0.0,0.0,0.0,0.0,0.0,0.0,0.0,0.0,0.0,0.0,0.0,0.0,0.0,-2.9701,-2.9701,-2.9701,-2.9701,-2.9701,-2.9701,-2.9701,-2.9701,-3.0509,-3.1184,-3.1823,-3.2893,-3.355,-3.3851,-3.4358,-3.4602,-3.4602,-3.4561,-3.4517,-3.4446,-3.4675,-3.4758,-3.4753,-3.5002,-3.5925,-3.7132,-3.7132,-3.7968,-3.9101,-3.9101,-3.9101,-3.9101,-3.9101,-3.9101,-3.9101,-3.9101,-3.9101,-3.9101,-3.9101,-3.9101,-3.9101,-3.9101,-3.9101,-3.9621,-4.1739,-4.224,-4.224,-4.224,-4.224,-4.224,-4.224,-4.224,-4.224,-4.224,-4.224,-4.224,-4.224,-4.224,-4.224,-4.224,-4.224,-4.224,-4.224,-4.3299,-4.4005,-4.4005,-4.4005,-4.4005,-4.4005,-4.4005,-4.4005,-4.4005,-4.4005,-4.4005,-4.4005,-4.4005,-4.4005,-4.4005,-4.4005,-4.4005,-4.4005,-4.4005,-4.4005,-1.1407,-1.2435,0.0,0.0,0.0,-1.6903,-1.75,0.0,0.0,0.0,0.0,0.0,0.0,0.0,0.0,0.0,0.0,0.0,0.0,0.0,0.0,0.0,0.0,0.0,0.0,0.0,0.0,0.0,0.0,0.0,-2.9701,-2.9701,-2.9701,-2.9701,-2.9701,-2.9701,-2.9701,-3.0227,-3.064,-3.0902,-3.2029,-3.2874,-3.3419,-3.3944,-3.4339,-3.4602,-3.4602,-3.4561,-3.4495,-3.4386,-3.434,-3.4316,-3.4269,-3.5268,-3.6738,-3.6738,-3.7734,-3.9101,-3.9101,-3.9101,-3.9101,-3.9101,-3.9101,-3.9101,-3.9101,-3.9101,-3.9101,-3.9101,-3.9101,-3.9101,-3.9101,-3.9918,-4.1293,-4.3485,-4.4005,-4.4005,-4.4005,-4.4005,-4.4005,-4.4005,-4.4005,-4.4005,-4.4005,-4.4005,-4.4005,-4.4005,-4.4005,-4.4005,-4.4005,-4.4005,-4.4005,-4.4005,-4.4005,-4.4005,-4.4005,-4.4005,-4.4005,-4.4005,-4.4005,-4.4005,-4.4005,-4.4005,-4.4005,-4.4005,-4.4005,-4.4005,-4.4005,-4.4005,-4.4005,-4.4005,-4.4005,-4.4005,0.0,0.0,0.0,0.0,0.0,0.0,-1.5054,0.0,0.0,0.0,0.0,0.0,0.0,0.0,0.0,0.0,0.0,0.0,0.0,0.0,0.0,0.0,0.0,0.0,0.0,0.0,0.0,0.0,-2.9213,-2.9701,-2.9701,-2.9701,-2.9701,-2.9701,-2.9701,-2.9701,-2.9701,-2.9701,-3.0096,-3.0846,-3.0884,-3.1767,-3.3344,-3.3381,-3.3832,-3.4564,-3.4583,-3.4561,-3.4495,-3.4495,-3.4473,-3.4386,-3.4386,-3.5366,-3.6789,-3.6807,-3.7761,-3.9101,-3.9101,-3.9101,-3.9101,-3.9101,-3.9101,-3.9101,-3.9101,-3.9101,-3.9101,-3.9101,-3.9101,-3.912,-3.9212,-4.1609,-4.4005,-4.4005,-4.4005,-4.4005,-4.4005,-4.4005,-4.4005,-4.4005,-4.4005,-4.4005,-4.4005,-4.4005,-4.4005,-4.4005,-4.4005,-4.4005,-4.4005,-4.4005,-4.4005,-4.4005,-4.4005,-4.4005,-4.4005,-4.4005,-4.4005,-4.4005,-4.4005,-4.4005,-4.4005,-4.4005,-4.4005,-4.4005,-4.4005,-4.4005,-4.4005,-4.4005,-4.4005,-4.4005,-4.4005,-4.4005,-1.0033,0.0,0.0,0.0,0.0,0.0,0.0,0.0,0.0,0.0,0.0,0.0,0.0,0.0,0.0,0.0,0.0,0.0,0.0,0.0,0.0,0.0,0.0,0.0,0.0,0.0,0.0,0.0,-2.9213,-2.9701,-2.9701,-2.9701,-2.9701,-2.9701,-2.9701,-2.9701,-2.9701,-2.9701,-2.9814,-3.0039,-3.0621,-3.1128,-3.1635,-3.2856,-3.3531,-3.3757,-3.4339,-3.4602,-3.4561,-3.4517,-3.4495,-3.4473,-3.4427,-3.5413,-3.6883,-3.6833,-3.7806,-3.9156,-3.9129,-3.9101,-3.9101,-3.9101,-3.9101,-3.9101,-3.9101,-3.9101,-3.9101,-3.9101,-3.9101,-3.9658,-4.2036,-4.3318,-4.4005,-4.4005,-4.4005,-4.4005,-4.4005,-4.4005,-4.4005,-4.4005,-4.4005,-4.4005,-4.4005,-4.4005,-4.4005,-4.4005,-4.4005,-4.4005,-4.4005,-4.4005,-4.4005,-4.4005,-4.4005,-4.4005,-4.4005,-4.4005,-4.4005,-4.4005,-4.4005,-4.4005,-4.4005,-4.4005,-4.4005,-4.4005,-4.4005,-4.4005,-4.4005,-4.4005,-4.4005,-4.4005,-4.4005,-4.4005,-1.0903,-1.104,-1.0967,-1.0679,0.0,0.0,0.0,-1.4367,0.0,0.0,0.0,0.0,0.0,0.0,0.0,0.0,0.0,0.0,0.0,0.0,0.0,0.0,0.0,0.0,0.0,-2.6209,-2.6885,-2.7355,-2.8181,-2.88,-2.9138,-2.9157,-2.9326,-2.9683,-2.9701,-2.9701,-2.9701,-2.9701,-2.9701,-2.9701,-3.019,-3.0584,-3.094,-3.2274,-3.3062,-3.3438,-3.4245,-3.4602,-3.4602,-3.4561,-3.4539,-3.4539,-3.4495,-3.5502,-3.6932,-3.6883,-3.7839,-3.9183,-3.9129,-3.9101,-3.9101,-3.9101,-3.9101,-3.9101,-3.9101,-3.9101,-3.9101,-3.9101,-4.0085,-4.159,-4.3503,-4.4005,-4.4005,-4.4005,-4.4005,-4.4005,-4.4005,-4.4005,-4.4005,-4.4005,-4.4005,-4.4005,-4.4005,-4.4005,-4.4005,-4.4005,-4.4005,-4.4005,-4.4005,-4.4005,-4.4005,-4.4005,-4.4005,-4.4005,-4.4005,-4.4005,-4.4005,-4.4005,-4.4005,-4.4005,-4.4005,-4.4005,-4.4005,-4.4005,-4.4005,-4.4005,-4.4005,-4.4005,-4.4005,-4.4005,-4.4005,-4.4005,-1.28,-1.2725,-1.2471,-1.1763,-1.2017,0.0,-1.1596,-1.3201,-1.5073,0.0,0.0,0.0,0.0,0.0,0.0,0.0,0.0,0.0,0.0,0.0,0.0,0.0,0.0,0.0,-2.4707,-2.5477,-2.6,-2.6,-2.6735,-2.7505,-2.8219,-2.8351,-2.8745,-2.9532,-2.9645,-2.9701,-2.9701,-2.9701,-2.9701,-2.9701,-2.9701,-3.0077,-3.0809,-3.1692,-3.2518,-3.3306,-3.4207,-3.4602,-3.4602,-3.4602,-3.4602,-3.4602,-3.4602,-3.5514,-3.6892,-3.6894,-3.7809,-3.9099,-3.9091,-3.9101,-3.9101,-3.9101,-3.9101,-3.9101,-3.9101,-3.9101,-3.912,-3.925,-4.1553,-4.4005,-4.4005,-4.4005,-4.4005,-4.4005,-4.4005,-4.4005,-4.4005,-4.4005,-4.4005,-4.4005,-4.4005,-4.4005,-4.4005,-4.4005,-4.4005,-4.4005,-4.4005,-4.4005,-4.4005,-4.4005,-4.4005,-4.4005,-4.4005,-4.4005,-4.4005,-4.4005,-4.4005,-4.4005,-4.4005,-4.4005,-4.4005,-4.4005,-4.4005,-4.4005,-4.4005,-4.4005,-4.4005,-4.4005,-4.4005,-4.4005,-4.4005,-4.4005,-1.4577,-1.4085,-1.3507,-1.3354,0.0,0.0,-1.2221,-1.2737,-1.3316,0.0,0.0,0.0,0.0,0.0,0.0,0.0,0.0,0.0,0.0,0.0,0.0,0.0,0.0,0.0,-2.4707,-2.5477,-2.6,-2.6,-2.6735,-2.7279,-2.743,-2.805,-2.8482,-2.8651,-2.9326,-2.9701,-2.9701,-2.9701,-2.9701,-2.9701,-2.9701,-2.9777,-2.9983,-3.1447,-3.2198,-3.2443,-3.3944,-3.4602,-3.4602,-3.4602,-3.4602,-3.4602,-3.4602,-3.5221,-3.6171,-3.6713,-3.7499,-3.8387,-3.8933,-3.9101,-3.9101,-3.9101,-3.9101,-3.9101,-3.9101,-3.9101,-3.9287,-4.0197,-4.2166,-4.4005,-4.4005,-4.4005,-4.4005,-4.4005,-4.4005,-4.4005,-4.4005,-4.4005,-4.4005,-4.4005,-4.4005,-4.4005,-4.4005,-4.4005,-4.4005,-4.4005,-4.4005,-4.4005,-4.4005,-4.4005,-4.4005,-4.4005,-4.4005,-4.4005,-4.4005,-4.4005,-4.4005,-4.4005,-4.4005,-4.4005,-4.4005,-4.4005,-4.4005,-4.4005,-4.4005,-4.4005,-4.4005,-4.4005,-4.4005,-4.4005,-4.4005,-4.4005,-1.6326,-1.5712,-1.4945,-1.4558,0.0,0.0,0.0,-1.2915,-1.3316,-1.3723,0.0,0.0,0.0,0.0,0.0,0.0,0.0,0.0,0.0,0.0,0.0,0.0,0.0,0.0,-2.4122,-2.4858,-2.5346,-2.5346,-2.5721,-2.6134,-2.6566,-2.7355,-2.7975,-2.8388,-2.9251,-2.9701,-2.9701,-2.9701,-2.9701,-2.9701,-2.9701,-2.9701,-2.9739,-3.1372,-3.2105,-3.218,-3.3869,-3.4602,-3.4602,-3.4602,-3.4602,-3.4602,-3.4602,-3.5127,-3.5987,-3.6681,-3.7455,-3.8208,-3.8904,-3.9129,-3.9101,-3.9101,-3.9101,-3.9101,-3.9101,-3.9101,-3.9212,-3.9788,-4.133,-4.2983,-4.3782,-4.4005,-4.4005,-4.4005,-4.4005,-4.4005,-4.4005,-4.4005,-4.4005,-4.4005,-4.4005,-4.4005,-4.4005,-4.4005,-4.4005,-4.4005,-4.4005,-4.4005,-4.4005,-4.4005,-4.4005,-4.4005,-4.4005,-4.4005,-4.4005,-4.4005,-4.4005,-4.4005,-4.4005,-4.4005,-4.4005,-4.4005,-4.4005,-4.4005,-4.4005,-4.4005,-4.4005,-4.4005,-4.4005,-4.4005,-4.4005,-4.4005,0.0,0.0,0.0,0.0,0.0,-1.3838,0.0,0.0,0.0,-1.357,0.0,0.0,0.0,0.0,0.0,0.0,0.0,0.0,0.0,0.0,0.0,0.0,0.0,0.0,0.0,-2.3859,-2.4253,-2.4234,-2.4385,-2.4779,-2.5474,-2.6451,-2.7279,-2.7919,-2.8932,-2.9457,-2.9457,-2.9608,-2.9701,-2.9701,-2.9701,-2.9701,-2.9739,-3.1203,-3.1954,-3.218,-3.37,-3.4451,-3.4602,-3.4602,-3.4602,-3.4602,-3.4602,-3.5033,-3.5766,-3.6672,-3.7386,-3.8009,-3.8902,-3.9156,-3.9147,-3.9101,-3.9101,-3.9101,-3.9101,-3.9101,-3.912,-3.9305,-4.0197,-4.1553,-4.3503,-4.4005,-4.4005,-4.4005,-4.4005,-4.4005,-4.4005,-4.4005,-4.4005,-4.4005,-4.4005,-4.4005,-4.4005,-4.4005,-4.4005,-4.4005,-4.4005,-4.4005,-4.4005,-4.4005,-4.4005,-4.4005,-4.4005,-4.4005,-4.4005,-4.4005,-4.4005,-4.4005,-4.4005,-4.4005,-4.4005,-4.4005,-4.4005,-4.4005,-4.4005,-4.4005,-4.4005,-4.4005,-4.4005,-4.4005,-4.4005,-4.4005,0.0,0.0,0.0,0.0,-1.6132,0.0,0.0,0.0,-1.2737,-1.2737,0.0,0.0,0.0,0.0,0.0,0.0,0.0,0.0,0.0,0.0,0.0,0.0,0.0,0.0,0.0,-2.2515,-2.2566,-2.2574,-2.3225,-2.3685,-2.3779,-2.5268,-2.6188,-2.6282,-2.7749,-2.8538,-2.8538,-2.9307,-2.9701,-2.9701,-2.9701,-2.9701,-2.972,-3.064,-3.1429,-3.2142,-3.3118,-3.3944,-3.4602,-3.4602,-3.4602,-3.4602,-3.4602,-3.4658,-3.494,-3.6447,-3.7037,-3.7312,-3.8715,-3.9248,-3.9258,-3.9147,-3.9101,-3.9101,-3.9101,-3.9101,-3.925,-4.003,-3.9825,-4.0104,-4.3206,-4.4005,-4.4005,-4.4005,-4.4005,-4.4005,-4.4005,-4.4005,-4.4005,-4.4005,-4.4005,-4.4005,-4.4005,-4.4005,-4.4005,-4.4005,-4.4005,-4.4005,-4.4005,-4.4005,-4.4005,-4.4005,-4.4005,-4.4005,-4.4005,-4.4005,-4.4005,-4.4005,-4.4005,-4.4005,-4.4005,-4.4005,-4.4005,-4.4005,-4.4005,-4.4005,-4.4005,-4.4005,-4.4005,-4.4005,-4.4005,-4.4005,0.0,0.0,0.0,0.0,0.0,0.0,-1.4641,0.0,-1.4195,0.0,0.0,0.0,0.0,0.0,0.0,0.0,0.0,0.0,0.0,0.0,0.0,0.0,0.0,0.0,0.0,0.0,0.0,0.0,-2.2354,-2.3018,-2.3493,-2.508,-2.6,-2.6,-2.7111,-2.7919,-2.8388,-2.8745,-2.9194,-2.9701,-2.9701,-2.9701,-2.972,-3.0527,-3.1091,-3.1485,-3.2818,-3.3588,-3.3944,-3.4414,-3.4602,-3.4602,-3.4602,-3.4602,-3.4789,-3.6456,-3.7028,-3.7224,-3.8794,-3.9293,-3.9285,-3.9147,-3.9101,-3.9101,-3.9101,-3.9101,-3.9175,-3.9547,-3.938,-3.9417,-4.0791,-4.2575,-4.4005,-4.4005,-4.4005,-4.4005,-4.4005,-4.4005,-4.4005,-4.4005,-4.4005,-4.4005,-4.4005,-4.4005,-4.4005,-4.4005,-4.4005,-4.4005,-4.4005,-4.4005,-4.4005,-4.4005,-4.4005,-4.4005,-4.4005,-4.4005,-4.4005,-4.4005,-4.4005,-4.4005,-4.4005,-4.4005,-4.4005,-4.4005,-4.4005,-4.4005,-4.4005,-4.4005,-4.4005,-4.4005,-4.4005,-4.4005,-2.0394,0.0,0.0,0.0,0.0,0.0,0.0,0.0,0.0,0.0,0.0,0.0,0.0,0.0,-1.6411,-1.6411,0.0,-1.5322,0.0,0.0,0.0,0.0,0.0,0.0,0.0,0.0,0.0,0.0,0.0,-2.209,-2.3112,-2.4531,-2.5418,-2.5643,-2.6435,-2.7261,-2.805,-2.8294,-2.8857,-2.9701,-2.9701,-2.9701,-2.972,-3.0302,-3.0696,-3.0977,-3.2424,-3.3193,-3.3456,-3.4264,-3.4602,-3.4602,-3.4602,-3.4752,-3.5127,-3.6554,-3.7207,-3.7547,-3.8913,-3.9339,-3.9239,-3.9147,-3.9101,-3.9101,-3.9101,-3.9101,-3.9101,-3.9101,-3.9101,-3.9101,-3.9101,-4.1534,-4.4005,-4.4005,-4.4005,-4.4005,-4.4005,-4.4005,-4.4005,-4.4005,-4.4005,-4.4005,-4.4005,-4.4005,-4.4005,-4.4005,-4.4005,-4.4005,-4.4005,-4.4005,-4.4005,-4.4005,-4.4005,-4.4005,-4.4005,-4.4005,-4.4005,-4.4005,-4.4005,-4.4005,-4.4005,-4.4005,-4.4005,-4.4005,-4.4005,-4.4005,-4.4005,-4.4005,-4.4005,-4.4005,-4.4005,-4.4005,0.0,0.0,0.0,-1.7814,0.0,0.0,0.0,0.0,-1.6372,0.0,0.0,0.0,0.0,-1.6946,-1.6411,-1.6411,-1.5666,0.0,0.0,0.0,0.0,0.0,0.0,0.0,0.0,0.0,0.0,0.0,0.0,0.0,-2.2248,-2.3136,-2.3938,-2.4726,-2.5606,-2.6432,-2.7223,-2.7994,-2.8857,-2.9701,-2.9701,-2.9701,-2.9701,-2.972,-3.0171,-3.094,-3.1785,-3.263,-3.3456,-3.4264,-3.4602,-3.4602,-3.4602,-3.5108,-3.5953,-3.6779,-3.7587,-3.837,-3.9126,-3.9275,-3.9101,-3.9101,-3.9101,-3.9101,-3.9101,-3.9101,-3.9101,-3.9101,-3.9101,-3.9101,-3.9101,-4.1534,-4.4005,-4.4005,-4.4005,-4.4005,-4.4005,-4.4005,-4.4005,-4.4005,-4.4005,-4.4005,-4.4005,-4.4005,-4.4005,-4.4005,-4.4005,-4.4005,-4.4005,-4.4005,-4.4005,-4.4005,-4.4005,-4.4005,-4.4005,-4.4005,-4.4005,-4.4005,-4.4005,-4.4005,-4.4005,-4.4005,-4.4005,-4.4005,-4.4005,-4.4005,-4.4005,-4.4005,-4.4005,-4.4005,-4.4005,-4.4005,0.0,0.0,-1.8818,-1.854,0.0,0.0,0.0,0.0,0.0,0.0,0.0,0.0,0.0,-1.9847,-1.8729,-1.8155,-1.6885,-1.5761,0.0,0.0,0.0,0.0,0.0,0.0,0.0,0.0,0.0,0.0,-1.9084,0.0,0.0,-2.3065,-2.3863,-2.467,-2.4989,-2.5796,-2.7186,-2.7467,-2.8312,-2.9701,-2.9701,-2.9701,-2.9701,-2.9701,-3.0133,-3.094,-3.1748,-3.2593,-3.3456,-3.4264,-3.4602,-3.4602,-3.4602,-3.5237,-3.6189,-3.6475,-3.7188,-3.8158,-3.9088,-3.9275,-3.9101,-3.9101,-3.9101,-3.9101,-3.9101,-3.9101,-3.9101,-3.9101,-3.9101,-3.9101,-3.9101,-4.1534,-4.4005,-4.4005,-4.4005,-4.4005,-4.4005,-4.4005,-4.4005,-4.4005,-4.4005,-4.4005,-4.4005,-4.4005,-4.4005,-4.4005,-4.4005,-4.4005,-4.4005,-4.4005,-4.4005,-4.4005,-4.4005,-4.4005,-4.4005,-4.4005,-4.4005,-4.4005,-4.4005,-4.4005,-4.4005,-4.4005,-4.4005,-4.4005,-4.4005,-4.4005,-4.4005,-4.4005,-4.4005,-4.4005,-4.4005,-4.4005,-2.2199,-2.1082,0.0,-1.9801,-1.9124,0.0,-1.7461,0.0,0.0,0.0,0.0,0.0,0.0,0.0,-1.9956,-1.9092,-1.7509,-1.6108,0.0,-1.5092,0.0,0.0,0.0,0.0,0.0,0.0,-1.7435,-1.7396,-1.8337,0.0,0.0,0.0,-2.3112,-2.4238,-2.4858,-2.5815,-2.7186,-2.7486,-2.8331,-2.9701,-2.9701,-2.9701,-2.9701,-3.0002,-3.0415,-3.0959,-3.2086,-3.2874,-3.3456,-3.4264,-3.4602,-3.462,-3.494,-3.5691,-3.6587,-3.6587,-3.7371,-3.8521,-3.9137,-3.9256,-3.9101,-3.9101,-3.9101,-3.9101,-3.9101,-3.9101,-3.9101,-3.9101,-3.9101,-3.9101,-3.9101,-4.1534,-4.4005,-4.4005,-4.4005,-4.4005,-4.4005,-4.4005,-4.4005,-4.4005,-4.4005,-4.4005,-4.4005,-4.4005,-4.4005,-4.4005,-4.4005,-4.4005,-4.4005,-4.4005,-4.4005,-4.4005,-4.4005,-4.4005,-4.4005,-4.4005,-4.4005,-4.4005,-4.4005,-4.4005,-4.4005,-4.4005,-4.4005,-4.4005,-4.4005,-4.4005,-4.4005,-4.4005,-4.4005,-4.4005,-4.4005,-4.4005]},{"header":{"parameterUnit":"m.s-1","parameterCategory":1,"la1":30.6,"la2":29.2853,"lo1":-89.7004,"lo2":-87.6739,"dy":0.0162,"dx":0.0183,"nx":112,"ny":82,"refTime":"2026-05-05T12:00:00:Z","depth":0,"parameterNumber":3,"parameterNumberName":"V-component_of_WINDS"},"data":[0.0,0.0,0.0,0.0,0.0,0.0,0.0,0.0,0.0,0.0,0.0,0.0,0.0,0.0,0.0,0.0,0.0,0.0,0.0,0.0,0.0,0.0,0.0,0.0,0.0,0.0,0.0,0.0,0.0,0.0,0.0,0.0,0.0,0.0,0.0,0.0,0.0,0.0,0.0,0.0,0.0,0.0,0.0,0.0,0.0,0.0,0.0,0.0,0.0,0.0,0.0,0.0,0.0,0.0,0.0,0.0,0.0,0.0,0.0,0.0,0.0,0.0,0.0,0.0,0.0,0.0,0.0,0.0,0.0,0.0,0.0,0.0,0.0,0.0,0.0,0.0,0.0,0.0,0.0,0.0,0.0,0.0,0.0,0.0,0.0,0.0,0.0,0.0,0.0,0.0,-0.691,-0.7759,-0.867,-0.9217,-0.9217,-0.8841,-0.8348,-0.7805,0.0,0.0,0.0,0.0,0.0,0.0,0.0,0.0,0.0,0.0,0.0,0.0,0.0,0.0,0.0,0.0,0.0,0.0,0.0,0.0,0.0,0.0,0.0,0.0,0.0,0.0,0.0,0.0,0.0,0.0,0.0,0.0,0.0,0.0,0.0,0.0,0.0,0.0,0.0,0.0,0.0,0.0,0.0,0.0,0.0,0.0,0.0,0.0,0.0,0.0,0.0,0.0,0.0,0.0,0.0,0.0,0.0,0.0,0.0,0.0,0.0,0.0,0.0,0.0,0.0,0.0,0.0,0.0,0.0,0.0,0.0,0.0,0.0,0.0,0.0,0.0,0.0,0.0,0.0,0.0,0.0,0.0,0.0,0.0,0.0,0.0,0.0,0.0,0.0,0.0,0.0,0.0,0.0,0.0,0.0,0.0,0.0,0.0,0.0,0.0,0.0,0.0,0.0,0.0,-0.7047,-0.8415,-0.8979,-0.9248,-0.9217,-0.9124,-0.8669,-0.7679,0.0,0.0,0.0,0.0,0.0,0.0,0.0,0.0,0.0,0.0,0.0,0.0,0.0,0.0,0.0,0.0,0.0,0.0,0.0,0.0,0.0,0.0,0.0,0.0,0.0,0.0,0.0,0.0,0.0,0.0,0.0,0.0,0.0,0.0,0.0,0.0,0.0,0.0,0.0,0.0,0.0,0.0,0.0,0.0,0.0,0.0,0.0,0.0,0.0,0.0,0.0,0.0,0.0,0.0,0.0,0.0,0.0,0.0,0.0,0.0,0.0,0.0,0.0,0.0,0.0,0.0,0.0,0.0,0.0,0.0,0.0,0.0,0.0,0.0,0.0,0.0,0.0,0.0,0.0,0.0,0.0,0.0,0.0,0.0,0.0,0.0,0.0,0.0,0.0,0.0,0.0,0.0,0.0,0.0,0.0,0.0,0.0,0.0,0.0,0.0,0.0,0.0,0.0,-0.6881,-0.7745,-0.8832,-0.9072,-0.9128,-0.9096,-0.8906,-0.8391,-0.7328,-0.6372,0.0,0.0,0.0,0.0,0.0,0.0,0.0,0.0,0.0,0.0,0.0,0.0,0.0,0.0,0.0,0.0,0.0,0.0,0.0,0.0,0.0,0.0,0.0,0.0,0.0,0.0,0.0,0.0,0.0,0.0,0.0,0.0,0.0,0.0,0.0,0.0,0.0,0.0,0.0,0.0,0.0,0.0,0.0,0.0,0.0,0.0,0.0,0.0,0.0,0.0,0.0,0.0,0.0,0.0,0.0,0.0,0.0,0.0,0.0,0.0,0.0,0.0,0.0,0.0,0.0,0.0,0.0,0.0,0.0,0.0,0.0,0.0,0.0,0.0,0.0,0.0,0.0,0.0,0.0,0.0,0.0,0.0,0.0,0.0,0.0,0.0,0.0,0.0,0.0,0.0,0.0,0.0,0.0,0.0,0.0,0.0,0.0,0.0,0.0,0.0,0.0,0.0,-0.772,-0.839,-0.9067,-0.9056,-0.8981,-0.8887,-0.8652,-0.8019,-0.6934,-0.6043,0.0,0.0,0.0,0.0,0.0,0.0,0.0,0.0,0.0,0.0,0.0,0.0,0.0,0.0,0.0,0.0,0.0,0.0,0.0,0.0,0.0,0.0,0.0,0.0,0.0,0.0,0.0,0.0,0.0,0.0,0.0,0.0,0.0,0.0,0.0,0.0,0.0,0.0,0.0,0.0,0.0,0.0,0.0,0.0,0.0,0.0,0.0,0.0,0.0,0.0,0.0,0.0,0.0,0.0,0.0,0.0,0.0,0.0,0.0,0.0,0.0,0.0,0.0,0.0,0.0,0.0,0.0,0.0,0.0,0.0,0.0,0.0,0.0,0.0,0.0,0.0,0.0,0.0,0.0,0.0,0.0,0.0,0.0,0.0,0.0,0.0,0.0,0.0,0.0,0.0,0.0,0.0,0.0,0.0,0.0,0.0,0.0,0.0,0.0,0.0,0.0,0.0,-0.8061,-0.8694,-0.8973,-0.9016,-0.8879,-0.8557,-0.8506,-0.7917,-0.652,-0.5636,0.0,0.0,0.0,0.0,0.0,0.0,0.0,0.0,0.0,0.0,0.0,0.0,0.0,0.0,0.0,0.0,0.0,0.0,0.0,0.0,0.0,0.0,0.0,0.0,0.0,0.0,0.0,0.0,0.0,0.0,0.0,0.0,0.0,0.0,0.0,0.0,0.0,0.0,0.0,0.0,0.0,0.0,0.0,0.0,0.0,0.0,0.0,0.0,0.0,0.0,0.0,0.0,0.0,0.0,0.0,0.0,0.0,0.0,0.0,0.0,0.0,0.0,0.0,0.0,0.0,0.0,0.0,0.0,0.0,0.0,0.0,0.0,0.0,0.0,0.0,0.0,0.0,0.0,0.0,0.0,0.0,0.0,0.0,0.0,0.0,0.0,0.0,0.0,0.0,0.0,0.0,0.0,0.0,0.0,0.0,0.0,0.0,0.0,0.0,0.0,0.0,0.0,-0.7921,-0.8643,0.0,-0.9016,-0.8964,-0.8819,-0.8374,-0.7619,-0.6486,0.0,0.0,0.0,0.0,0.0,0.0,0.0,0.0,0.0,0.0,0.0,0.0,0.0,0.0,0.0,0.0,0.0,0.0,0.0,0.0,0.0,0.0,0.0,0.0,0.0,0.0,0.0,0.0,0.0,0.0,0.0,0.0,0.0,0.0,0.0,0.0,0.0,0.0,0.0,0.0,0.0,0.0,0.0,0.0,0.0,0.0,0.0,0.0,0.0,0.0,0.0,0.0,0.0,0.0,0.0,0.0,0.0,0.0,0.0,0.0,0.0,0.0,0.0,0.0,0.0,0.0,0.0,0.0,0.0,0.0,0.0,0.0,0.0,0.0,0.0,0.0,0.0,0.0,0.0,0.0,0.0,0.0,0.0,0.0,0.0,0.0,0.0,0.0,0.0,0.0,0.0,0.0,0.0,0.0,0.0,0.0,0.0,0.0,0.0,0.0,0.0,0.0,-0.6824,-0.7972,-0.8733,0.0,-0.9016,-0.8973,-0.8844,-0.8262,-0.7425,-0.6307,0.0,0.0,0.0,0.0,0.0,0.0,0.0,0.0,0.0,0.0,0.0,0.0,0.0,0.0,0.0,0.0,0.0,0.0,0.0,0.0,0.0,0.0,0.0,0.0,0.0,0.0,0.0,0.0,0.0,0.0,0.0,0.0,0.0,0.0,0.0,0.0,0.0,0.0,0.0,0.0,0.0,0.0,0.0,0.0,0.0,0.0,0.0,0.0,0.0,0.0,0.0,0.0,0.0,0.0,0.0,0.0,0.0,0.0,0.0,0.0,0.0,0.0,0.0,0.0,0.0,0.0,0.0,0.0,0.0,0.0,0.0,0.0,0.0,0.0,0.0,0.0,0.0,0.0,0.0,0.0,0.0,0.0,0.0,0.0,0.0,0.0,0.0,0.0,0.0,0.0,0.0,0.0,0.0,0.0,0.0,0.0,0.0,0.0,0.0,0.0,0.0,0.0,-0.7209,-0.8305,-0.9016,-0.9016,-0.9016,-0.887,-0.8523,-0.8117,-0.7323,0.0,0.0,0.0,0.0,0.0,0.0,0.0,0.0,0.0,0.0,0.0,0.0,0.0,0.0,0.0,0.0,0.0,0.0,0.0,0.0,0.0,0.0,0.0,0.0,0.0,0.0,0.0,0.0,0.0,0.0,0.0,0.0,0.0,0.0,0.0,0.0,0.0,0.0,0.0,0.0,0.0,0.0,0.0,0.0,0.0,0.0,0.0,0.0,0.0,0.0,0.0,0.0,0.0,0.0,0.0,0.0,0.0,0.0,0.0,0.0,0.0,0.0,0.0,0.0,0.0,0.0,0.0,0.0,0.0,0.0,0.0,0.0,0.0,0.0,0.0,0.0,0.0,0.0,0.0,0.0,0.0,0.0,0.0,0.0,0.0,0.0,0.0,0.0,0.0,0.0,0.0,0.0,0.0,0.0,0.0,0.0,0.0,0.0,0.0,0.0,0.0,0.0,0.0,-0.6841,-0.816,-0.9016,-0.9016,-0.9016,-0.8973,-0.8862,-0.8271,-0.7467,-0.6392,0.0,0.0,0.0,0.0,0.0,0.0,0.0,0.0,0.0,0.0,0.0,0.0,0.0,0.0,0.0,0.0,0.0,0.0,0.0,0.0,0.0,0.0,0.0,0.0,0.0,0.0,0.0,0.0,0.0,0.0,0.0,0.0,0.0,0.0,0.0,0.0,0.0,0.0,0.0,0.0,0.0,0.0,0.0,0.0,0.0,0.0,0.0,0.0,0.0,0.0,0.0,0.0,0.0,0.0,0.0,0.0,0.0,0.0,0.0,0.0,0.0,0.0,0.0,0.0,0.0,0.0,0.0,0.0,0.0,0.0,0.0,0.0,0.0,0.0,0.0,0.0,0.0,0.0,0.0,0.0,0.0,0.0,0.0,0.0,0.0,0.0,0.0,0.0,0.0,0.0,0.0,0.0,0.0,0.0,0.0,0.0,0.0,0.0,0.0,0.0,0.0,0.0,-0.667,-0.7954,-0.8844,-0.9007,-0.9016,-0.9016,-0.9016,-0.8468,-0.7697,-0.6601,0.0,0.0,0.0,0.0,0.0,0.0,0.0,0.0,0.0,0.0,0.0,0.0,0.0,0.0,0.0,0.0,0.0,0.0,0.0,0.0,0.0,0.0,0.0,0.0,0.0,0.0,0.0,0.0,0.0,0.0,0.0,0.0,0.0,0.0,0.0,0.0,0.0,0.0,0.0,0.0,0.0,0.0,0.0,0.0,0.0,0.0,0.0,0.0,0.0,0.0,0.0,0.0,0.0,0.0,0.0,0.0,0.0,0.0,0.0,0.0,0.0,0.0,0.0,0.0,0.0,0.0,0.0,0.0,0.0,0.0,0.0,0.0,0.0,0.0,0.0,0.0,0.0,0.0,0.0,0.0,0.0,0.0,0.0,0.0,0.0,0.0,0.0,0.0,0.0,0.0,0.0,0.0,0.0,0.0,0.0,0.0,0.0,0.0,0.0,0.0,0.0,0.0,-0.6687,-0.7843,-0.8678,-0.8981,-0.9016,-0.9016,-0.9016,-0.8703,-0.798,-0.6744,0.0,0.0,0.0,0.0,0.0,0.0,0.0,0.0,0.0,0.0,0.0,0.0,0.0,0.0,0.0,0.0,0.0,0.0,0.0,0.0,0.0,0.0,0.0,0.0,0.0,0.0,0.0,0.0,0.0,0.0,0.0,0.0,0.0,0.0,0.0,0.0,0.0,0.0,0.0,0.0,0.0,0.0,0.0,0.0,0.0,0.0,0.0,0.0,0.0,0.0,0.0,0.0,0.0,0.0,0.0,0.0,0.0,0.0,0.0,0.0,-0.3663,0.0,0.0,0.0,0.0,0.0,0.0,0.0,0.0,0.0,0.0,0.0,0.0,0.0,0.0,0.0,0.0,0.0,0.0,0.0,0.0,0.0,0.0,0.0,0.0,0.0,0.0,0.0,0.0,0.0,0.0,0.0,0.0,0.0,0.0,0.0,0.0,0.0,0.0,0.0,0.0,0.0,-0.7089,-0.8194,-0.893,-0.9007,-0.9016,-0.9016,-0.9016,-0.8703,-0.81,-0.713,-0.6001,0.0,0.0,0.0,0.0,0.0,0.0,0.0,0.0,0.0,0.0,0.0,0.0,0.0,0.0,0.0,0.0,0.0,0.0,0.0,0.0,0.0,0.0,0.0,0.0,0.0,0.0,0.0,0.0,0.0,0.0,0.0,0.0,0.0,0.0,0.0,0.0,0.0,0.0,0.0,0.0,0.0,0.0,0.0,0.0,0.0,0.0,0.0,0.0,0.0,0.0,0.0,0.0,0.0,0.0,0.0,0.0,0.0,0.0,0.0,0.0,-0.5762,0.0,0.0,0.0,0.0,0.0,0.0,0.0,0.0,0.0,0.0,0.0,0.0,0.0,0.0,0.0,0.0,0.0,0.0,0.0,0.0,0.0,0.0,0.0,0.0,0.0,0.0,0.0,0.0,0.0,0.0,0.0,0.0,0.0,0.0,0.0,0.0,0.0,0.0,0.0,0.0,-0.7192,-0.8151,-0.8819,-0.8999,-0.9016,-0.9016,-0.9016,-0.8836,-0.8399,-0.7586,-0.6652,0.0,0.0,0.0,0.0,0.0,0.0,0.0,0.0,0.0,0.0,0.0,0.0,0.0,0.0,0.0,0.0,0.0,0.0,0.0,0.0,0.0,0.0,0.0,0.0,0.0,0.0,0.0,0.0,0.0,0.0,0.0,0.0,0.0,0.0,0.0,0.0,0.0,0.0,0.0,0.0,0.0,0.0,0.0,0.0,0.0,0.0,0.0,0.0,0.0,0.0,0.0,0.0,0.0,-0.9692,-1.1019,-1.1223,-0.8187,-0.7749,-0.9341,-0.81,-0.8117,-0.8922,0.0,0.0,0.0,0.0,0.0,0.0,0.0,0.0,0.0,0.0,0.0,0.0,0.0,0.0,0.0,0.0,0.0,0.0,0.0,0.0,0.0,0.0,0.0,0.0,0.0,-0.8288,-0.8108,0.0,0.0,0.0,0.0,0.0,0.0,0.0,0.0,0.0,0.0,0.0,0.0,-0.7372,-0.8153,-0.8703,-0.8981,-0.9016,-0.9016,-0.9016,-0.9016,-0.8725,-0.804,-0.7355,-0.6772,0.0,0.0,0.0,0.0,0.0,0.0,0.0,0.0,0.0,0.0,0.0,0.0,0.0,0.0,0.0,0.0,0.0,0.0,0.0,0.0,0.0,0.0,0.0,0.0,0.0,0.0,0.0,0.0,0.0,0.0,0.0,0.0,-0.2323,-0.3498,0.0,0.0,0.0,0.0,0.0,0.0,0.0,0.0,0.0,0.0,0.0,0.0,0.0,-0.6869,-0.8707,-0.8725,-0.8725,-0.8725,-0.9127,-1.0,-1.1223,-0.8187,-0.8351,-1.1017,-1.081,0.0,-0.9007,-0.8802,0.0,0.0,0.0,0.0,0.0,0.0,0.0,0.0,0.0,0.0,0.0,0.0,0.0,0.0,0.0,0.0,0.0,0.0,0.0,0.0,0.0,0.0,-0.9794,-0.9794,-0.9794,-0.9683,0.0,-0.8451,-0.762,-0.7151,-0.6807,0.0,0.0,0.0,0.0,0.0,0.0,0.0,-0.823,-0.8673,-0.8964,-0.9016,-0.9016,-0.9016,-0.9016,-0.9016,-0.8836,-0.8445,-0.8015,-0.744,-0.6768,-0.6233,0.0,0.0,0.0,0.0,0.0,0.0,0.0,0.0,0.0,0.0,0.0,0.0,0.0,0.0,0.0,0.0,0.0,0.0,0.0,0.0,0.0,0.0,0.0,0.0,0.0,0.0,0.0,0.0,0.0,-0.2105,-0.2901,-0.4252,-0.4737,-0.459,0.0,0.0,0.0,0.0,0.0,0.0,0.0,0.0,0.0,-0.5296,-0.6688,-0.7981,-0.8975,-0.9016,-0.9444,-1.0283,-1.0283,-1.0634,-1.1283,-0.995,-1.0071,-1.1326,-1.1326,-1.0899,-1.0283,-1.0283,-0.9786,-0.8956,0.0,0.0,0.0,0.0,-0.899,-1.0163,-0.9315,-0.8588,0.0,-0.9795,0.0,0.0,0.0,0.0,0.0,0.0,0.0,0.0,0.0,0.0,0.0,-1.0092,-1.0092,-1.0049,-0.9896,-0.947,-0.8922,0.0,-0.7663,-0.7286,-0.6892,0.0,0.0,0.0,0.0,-0.7843,-0.842,-0.8785,-0.9016,-0.9016,-0.9016,-0.9016,-0.9016,-0.9016,-0.8947,-0.8785,-0.8454,-0.8101,-0.7766,-0.7141,-0.649,0.0,0.0,0.0,0.0,0.0,0.0,0.0,0.0,0.0,0.0,0.0,0.0,0.0,0.0,0.0,0.0,0.0,0.0,0.0,0.0,0.0,0.0,0.0,0.0,0.0,0.0,0.0,0.0,-0.3164,-0.3722,-0.5116,-0.5678,-0.5773,0.0,0.0,0.0,0.0,0.0,0.0,-0.8262,-0.8915,-0.8512,-0.7057,-0.8374,-0.9296,-0.9598,-0.9598,-1.0163,-1.1326,-1.1326,-1.1326,-1.1326,-1.1326,-1.1326,-1.1344,-1.1678,-1.185,-1.1815,-1.1481,-1.0839,-1.0129,-0.9743,-0.9598,-0.9598,-0.9598,-1.0548,-1.1687,-1.0557,-1.0163,-1.0351,-1.1482,0.0,-1.2492,-1.012,0.0,0.0,0.0,0.0,-0.9427,-1.0076,-1.0342,-1.0428,-1.0428,-1.0428,-1.0403,-1.0262,-1.0245,-1.0009,0.0,-0.8588,-0.8211,-0.7817,0.0,0.0,0.0,0.0,-0.8288,-0.86,-0.893,-0.9127,-0.9033,-0.9016,-0.9016,-0.9016,-0.9016,-0.9016,-0.9016,-0.875,-0.8592,-0.8488,-0.7938,-0.7346,-0.682,0.0,0.0,0.0,0.0,0.0,0.0,0.0,0.0,0.0,0.0,0.0,0.0,0.0,0.0,0.0,0.0,0.0,0.0,0.0,0.0,0.0,0.0,0.0,0.0,0.0,0.0,0.0,0.0,0.0,-0.6433,-0.6455,0.0,0.0,0.0,0.0,-0.5671,-0.6826,-0.7777,-0.8365,-0.9273,-0.9473,-0.889,-1.0368,-1.1156,-1.1156,-1.1156,-1.1199,-1.1326,-1.1326,-1.1326,-1.1326,-1.1326,-1.1326,-1.1404,-1.2783,-1.3399,-1.3288,-1.1858,-1.2064,-1.3143,-1.1713,-1.1156,-1.1156,-1.1156,-1.2107,-1.3391,-1.3305,-1.328,-1.3297,-1.3374,-1.2483,-1.1267,-1.0642,-1.0,0.0,0.0,-0.9768,-1.0148,-1.0549,-1.0965,-1.1266,-1.1266,-1.1266,-1.1122,-1.0771,-1.0646,-1.0518,0.0,-0.9761,-0.9392,-0.8999,0.0,-0.8411,-0.8428,-0.8716,-0.8973,-0.8981,-0.9332,-0.9435,-0.9059,-0.9016,-0.9016,-0.9016,-0.9016,-0.9016,-0.9016,-0.8999,-0.8827,-0.8506,-0.8454,-0.7921,-0.6837,-0.6751,0.0,0.0,0.0,0.0,0.0,0.0,0.0,0.0,0.0,0.0,0.0,0.0,0.0,0.0,0.0,0.0,0.0,0.0,0.0,0.0,0.0,0.0,0.0,0.0,0.0,0.0,0.0,0.0,-0.6058,-0.6548,0.0,-0.652,-0.6207,-0.5978,-0.5826,-0.7741,-0.89,-0.8849,-0.9514,-0.9823,-0.9506,-1.0174,-1.0779,-1.1267,-1.1326,-1.1326,-1.1326,-1.1326,-1.1326,-1.1395,-1.3297,-1.4187,-1.4221,-1.4752,-1.4983,-1.4941,-1.441,-1.4504,-1.4932,-1.4393,-1.2988,-1.1326,-1.1326,-1.2218,-1.3511,-1.3511,-1.3511,-1.3511,-1.3511,-1.2714,-1.173,-1.1498,-1.1113,-1.0759,-1.0936,-1.1103,-1.1294,-1.1665,-1.1916,-1.1935,-1.1696,-1.1636,-1.1533,-1.1156,-1.1079,-1.1036,-1.0899,-1.0368,-0.9862,-0.9717,-0.9624,-0.9538,-0.9538,-0.9649,-0.9691,-0.9691,-0.9666,-0.9555,-0.941,-0.917,-0.9016,-0.9016,-0.9016,-0.9016,-0.9016,-0.9016,-0.8956,-0.8819,-0.8819,-0.8399,-0.7517,-0.7252,-0.6498,0.0,0.0,0.0,0.0,0.0,0.0,0.0,0.0,0.0,0.0,0.0,0.0,0.0,0.0,0.0,0.0,0.0,0.0,0.0,0.0,0.0,0.0,0.0,0.0,0.0,0.0,-0.6087,-0.6256,-0.6973,-0.7346,-0.7046,-0.7015,-0.6855,-0.6468,-0.8407,-0.9482,-0.9305,-0.9541,-0.9608,-0.9354,-1.0073,-1.0762,-1.1267,-1.1326,-1.1524,-1.2029,-1.2552,-1.2526,-1.2115,-1.4649,-1.5805,-1.5805,-1.5805,-1.5805,-1.5805,-1.5805,-1.5805,-1.5805,-1.5805,-1.4572,-1.28,-1.28,-1.3434,-1.4281,-1.4281,-1.4059,-1.3742,-1.3571,-1.3151,-1.2689,-1.2432,-1.2143,-1.1877,-1.1987,-1.2027,-1.2066,-1.2346,-1.2389,-1.2329,-1.2089,-1.1882,-1.172,-1.1524,-1.1362,-1.1326,-1.1326,-1.0865,-1.048,-1.0314,-1.0288,-1.0245,-1.0109,-1.0203,-1.0245,-1.0109,-0.9998,-0.9889,-0.9632,-0.9375,-0.9161,-0.9033,-0.9016,-0.9016,-0.9016,-0.9016,-0.9016,-0.9016,-0.9016,-0.8725,-0.81,-0.7457,-0.6704,-0.5805,0.0,0.0,0.0,0.0,0.0,0.0,0.0,0.0,0.0,0.0,0.0,0.0,0.0,0.0,0.0,0.0,0.0,0.0,0.0,0.0,0.0,0.0,0.0,-0.5725,-0.6331,-0.6862,-0.7168,-0.7829,-0.8231,-0.8246,-0.7938,-0.777,-0.7829,-0.8941,-0.9614,-0.9614,-0.9279,-0.8919,-0.846,-1.0326,-1.1326,-1.1326,-1.1362,-1.2115,-1.3528,-1.5018,-1.4949,-1.3554,-1.5069,-1.5754,-1.5754,-1.5762,-1.5771,-1.5771,-1.578,-1.578,-1.5788,-1.5797,-1.5805,-1.5805,-1.5805,-1.5805,-1.5805,-1.5805,-1.5163,-1.4256,-1.3725,-1.3802,-1.3964,-1.3228,-1.3053,-1.2954,-1.2556,-1.2408,-1.2461,-1.2427,-1.2423,-1.2423,-1.2406,-1.2132,-1.1822,-1.1797,-1.155,-1.1285,-1.1326,-1.1326,-1.1156,-1.0805,-1.0737,-1.0617,-1.0186,-1.045,0.0,-1.0177,-1.045,-1.0446,-0.9701,-0.9615,-0.9444,-0.905,-0.9016,-0.9016,-0.9016,-0.9016,-0.9016,-0.9016,-0.9016,-0.8836,-0.8497,-0.7396,-0.661,-0.6225,0.0,0.0,0.0,0.0,0.0,0.0,0.0,0.0,0.0,0.0,0.0,0.0,0.0,0.0,0.0,0.0,0.0,0.0,0.0,0.0,0.0,-0.6833,-0.6899,-0.6234,-0.7097,-0.7748,-0.7595,-0.837,-0.8992,-0.9204,-0.8736,-0.8999,-1.0397,-0.995,-0.9614,-0.9614,-0.9715,-0.9791,-0.9898,-1.0814,-1.1326,-1.1326,-1.3459,-1.4204,-1.3511,-1.3939,-1.3922,-1.3536,-1.4341,-1.4709,-1.4718,-1.4906,-1.4992,-1.5009,-1.5266,-1.5377,-1.5403,-1.5694,-1.5805,-1.5805,-1.5805,-1.5805,-1.5805,-1.5805,-1.5625,-1.53,-1.4778,-1.4375,-1.4059,-1.3853,-1.3571,-1.3365,-1.322,-1.3186,-1.3212,-1.322,-1.3202,-1.3134,-1.2877,-1.274,-1.2518,-1.1907,-1.1711,-1.1601,-1.1327,-1.1326,-1.1242,-1.1139,-1.1122,-1.1088,-1.0976,-1.1053,0.0,-1.0976,-1.0822,-1.0484,-0.9998,-0.9761,-0.9444,-0.905,-0.9016,-0.9016,-0.9016,-0.9016,-0.9016,-0.9016,-0.9016,-0.8836,-0.8497,-0.7603,-0.6994,0.0,0.0,0.0,0.0,0.0,0.0,0.0,0.0,0.0,0.0,0.0,0.0,0.0,0.0,0.0,0.0,0.0,0.0,0.0,0.0,0.0,0.0,-0.7697,-0.788,-0.7178,-0.7726,-0.8231,-0.8319,-0.8941,-0.9482,-0.979,-0.9614,-0.995,-1.107,-1.0199,-0.9718,-0.9984,-1.1226,-1.1713,-1.1193,-1.1428,-1.1633,-1.1738,-1.4136,-1.4889,-1.3999,-1.3665,-1.3511,-1.3528,-1.405,-1.429,0.0,-1.4572,-1.4684,-1.4701,-1.4906,-1.4992,0.0,0.0,0.0,0.0,0.0,-1.5805,-1.5805,-1.5805,-1.5805,-1.5711,-1.5189,-1.4812,-1.4538,-1.4393,-1.4036,-1.377,-1.3778,-1.3639,-1.3511,-1.3511,-1.3511,-1.3459,-1.3245,-1.3083,-1.2851,-1.2415,-1.2018,-1.172,-1.155,-1.1379,0.0,-1.1326,-1.1326,-1.1326,-1.1326,-1.1326,-1.1326,-1.1326,-1.1088,-1.0805,-1.0382,-1.0197,-0.9855,-0.9315,-0.9264,0.0,0.0,0.0,-0.9016,-0.9016,-0.9016,0.0,0.0,0.0,0.0,0.0,0.0,0.0,0.0,-0.6884,-0.7539,0.0,0.0,0.0,0.0,0.0,0.0,0.0,0.0,0.0,0.0,0.0,0.0,0.0,0.0,0.0,0.0,-0.8377,-0.8626,-0.8348,-0.8341,-0.8575,-0.9153,-0.9519,-0.9833,-1.0126,-1.0485,-1.0675,-1.0631,-1.0133,-1.0106,-1.0648,0.0,0.0,0.0,0.0,-1.2321,-1.2518,-1.387,-1.4555,-1.4547,-1.3845,-1.3511,-1.3528,-1.399,-1.4204,-1.4221,-1.4453,-1.4555,-1.4555,-1.4598,-1.4667,-1.4804,-1.5437,-1.5703,-1.5728,-1.5694,-1.5728,-1.5788,-1.5703,0.0,0.0,-1.5137,-1.5026,-1.5026,-1.4709,-1.4368,-1.404,-1.4027,-1.3776,-1.3511,-1.3511,-1.3511,-1.3511,-1.3511,-1.3271,-1.3031,-1.2988,-1.2449,-1.189,-1.1805,-1.1567,-1.1327,-1.1335,-1.1326,-1.1326,-1.1326,-1.1326,-1.1326,-1.1326,-1.1326,-1.113,-1.0762,0.0,0.0,-0.9726,-0.9666,-0.9521,-0.9161,-0.9103,-0.9103,-0.9103,-0.9103,-0.8981,-0.8686,-0.8669,-0.8468,-0.8114,-0.8476,-0.8867,-0.9246,-0.8445,-0.9208,0.0,0.0,0.0,0.0,0.0,0.0,0.0,0.0,0.0,0.0,0.0,0.0,0.0,0.0,0.0,-0.9204,-0.908,-0.8955,-0.8985,-0.919,-0.9387,-0.9511,-1.0046,-1.0426,-1.0485,-1.1026,-1.1231,-1.0872,-1.1055,-1.1368,-1.1796,-1.2841,-1.3459,-1.3713,-1.3712,-1.3539,-1.3297,-1.3588,-1.3733,-1.3733,0.0,0.0,-1.3511,-1.3613,-1.3656,-1.3665,-1.3716,-1.3733,-1.3759,-1.4076,-1.4572,-1.5095,-1.4958,-1.5078,-1.5292,-1.5,-1.5283,-1.5711,-1.5112,-1.5018,-1.512,-1.4838,-1.4555,-1.4298,-1.423,-1.3946,0.0,-1.3638,-1.3571,-1.3511,-1.3511,-1.3511,-1.3511,-1.3511,-1.3459,-1.3322,-1.304,-1.2869,-1.2577,-1.1907,-1.1728,-1.1636,-1.1327,-1.1326,-1.1326,-1.1326,-1.1326,-1.1326,-1.1326,-1.1326,-1.113,-1.0762,-1.068,-1.0493,-1.0032,-0.999,-0.9956,-0.9879,-0.9879,-0.9879,-0.9879,-0.9879,-0.9836,-0.9812,-0.9646,-0.9508,-0.9441,-0.9673,-1.0145,-1.0807,-0.9767,-0.9778,0.0,0.0,0.0,0.0,0.0,0.0,0.0,0.0,0.0,0.0,0.0,-0.6297,-0.6703,0.0,-0.919,-0.9292,-0.9314,-0.9329,-0.9387,-0.9658,-0.9921,-1.0082,-1.0389,-1.0653,-1.0814,-1.088,-1.0916,-1.0909,-1.1611,-1.2089,-1.2135,-1.2981,-1.3591,-1.3729,-1.3851,-1.3861,-1.367,-1.3544,-1.3511,-1.3511,-1.3511,-1.3511,-1.3511,-1.3511,-1.3511,-1.3519,-1.3716,-1.3802,-1.3827,-1.423,-1.4718,-1.518,-1.4821,-1.5026,-1.5489,-1.5309,-1.548,-1.5745,-1.5377,-1.5189,-1.5095,-1.4983,-1.4692,-1.441,-1.4374,-1.4118,-1.3772,-1.3814,-1.3638,-1.3511,-1.3511,-1.3511,-1.3511,-1.3511,-1.3374,-1.3245,-1.3245,-1.2946,-1.2629,-1.2449,-1.2107,-1.1728,-1.1593,-1.1404,-1.1326,-1.1326,-1.1326,-1.1326,-1.1326,-1.1326,-1.1199,-1.1019,-1.1002,-1.0848,-1.0416,-1.0203,-1.0092,-1.0092,-1.0092,-1.0092,-1.0092,-1.0092,-1.0038,-0.9976,-0.9976,-1.003,-1.0146,-1.0334,-1.0612,-1.0971,-1.0612,-1.0626,0.0,0.0,0.0,0.0,0.0,0.0,0.0,0.0,-0.4714,-0.6594,-0.7882,-0.8575,-0.8491,-0.8676,-0.8885,-0.9102,-0.9453,-0.9687,-0.9621,-0.995,-1.0272,-1.047,-1.055,-1.0667,-1.0865,-1.0563,-1.0455,-1.0909,-1.1802,-1.2357,-1.239,-1.3325,-1.3691,-1.3356,-1.3705,-1.3798,-1.3714,-1.3604,-1.3545,-1.3622,-1.3622,-1.3665,-1.3733,-1.3733,-1.3733,-1.375,-1.4076,-1.4213,-1.4238,-1.4632,-1.4958,-1.5197,-1.4983,-1.5274,-1.578,-1.5634,-1.5625,-1.5677,-1.5608,-1.542,-1.5206,-1.5129,-1.4915,-1.4701,-1.4596,-1.4351,-1.4077,-1.4001,-1.3757,-1.3511,-1.3511,-1.3511,-1.3511,-1.3511,-1.3288,-1.316,-1.3442,-1.3031,-1.268,-1.2928,-1.2483,-1.1959,-1.1814,-1.1584,-1.1362,-1.1335,-1.1326,-1.1326,-1.1326,-1.1326,-1.1326,-1.1326,-1.1326,-1.1156,-1.0857,-1.054,-1.0314,-1.0314,-1.0314,-1.0314,-1.0314,-1.0314,-1.025,-1.0077,-1.025,-1.0423,-1.0652,-1.0742,-1.0831,-1.0839,-1.1208,-1.141,-0.4522,-0.4743,-0.5269,-0.5645,-0.5867,-0.5981,0.0,0.0,-0.6667,-0.6926,-0.7516,-0.8212,-0.8971,-0.9224,-0.9393,-0.9496,-0.9826,-0.9943,-0.9658,-1.0148,-1.0441,-1.0185,-1.0411,-1.0485,-1.0236,-1.0243,-1.0541,-1.1019,-1.1436,-1.2082,-1.2935,-1.3369,-1.3581,-1.3586,-1.3903,-1.3859,-1.3518,-1.3528,-1.3682,-1.4033,-1.4033,-1.4213,-1.4555,-1.4555,-1.4555,-1.4555,-1.4598,-1.4624,-1.4649,-1.5009,-1.518,-1.524,-1.5557,-1.5728,-1.572,-1.5052,-1.5009,-1.5232,-1.4915,-1.4992,-1.5163,-1.4846,-1.4718,-1.4641,-1.4281,-1.4166,-1.4042,-1.3691,-1.3554,-1.3511,-1.3511,-1.3511,-1.3511,-1.3511,-1.3476,-1.3459,-1.3502,-1.3442,-1.3305,-1.3031,-1.2911,-1.2637,-1.1907,-1.1754,-1.1661,-1.1327,-1.1326,-1.1326,-1.1326,-1.1326,-1.1326,-1.1326,-1.1326,-1.1259,-1.1266,-1.1173,-1.1148,-1.1148,-1.1148,-1.1148,-1.1148,-1.1148,-1.1148,-1.1139,-1.1139,-1.1197,-1.1206,-1.124,-1.1216,-1.1225,-1.1601,-1.1756,-0.5284,-0.5471,-0.5907,-0.6236,-0.6473,-0.666,-0.666,-0.6847,-0.7111,-0.7583,-0.8103,-0.8514,-0.8887,-0.9106,-0.933,0.0,-0.9731,-0.9855,-0.998,-1.0009,-1.0038,-1.0089,-1.0221,-1.025,-1.0111,-1.0141,-1.0346,-1.0755,-1.1328,-1.1955,-1.276,-1.3103,-1.3348,-1.3578,-1.3684,-1.3673,-1.3511,-1.3733,-1.393,-1.4101,-1.4324,-1.4521,-1.4684,-1.4684,-1.4795,-1.4992,-1.4992,-1.512,-1.5343,-1.5497,-1.5557,-1.5574,-1.5737,-1.5805,-1.5762,-1.5454,-1.5429,-1.5531,-1.5386,-1.5283,-1.5189,-1.5043,-1.4855,-1.4667,-1.4473,-1.4316,-1.4087,-1.3918,-1.3666,-1.3511,-1.3511,-1.3511,-1.3511,-1.3511,-1.3348,-1.3254,-1.3468,-1.3348,-1.322,-1.328,-1.3117,-1.2877,-1.256,-1.2132,-1.1737,-1.1627,-1.1413,-1.1326,-1.1326,-1.1326,-1.1326,-1.1326,-1.1326,-1.1326,-1.1326,-1.1326,-1.1326,-1.1326,-1.1326,-1.1326,-1.1326,-1.1326,-1.1326,-1.1326,-1.1326,-1.1438,-1.1731,-1.161,-1.1713,-1.1927,-1.2081,-1.2286,-0.5972,-0.6172,-0.6505,-0.676,-0.7054,-0.7231,-0.7231,-0.7231,-0.7415,-0.7909,-0.831,-0.8572,-0.856,-0.8826,-0.9144,-0.9446,-0.9709,-0.9929,-1.0068,-0.9965,-0.9899,-0.9958,-0.9965,-1.0002,-1.0089,-1.0104,-1.0272,-1.0689,-1.1245,-1.1888,-1.2546,-1.2819,-1.3156,-1.343,-1.3473,-1.3562,-1.3665,-1.3956,-1.4196,-1.441,-1.4692,-1.4889,-1.4992,-1.4992,-1.5137,-1.5377,-1.5377,-1.554,-1.5805,-1.5805,-1.5805,-1.5805,-1.5805,-1.5805,-1.5805,-1.5805,-1.5805,-1.5805,-1.5805,-1.5617,-1.5377,-1.5377,-1.5206,-1.4983,-1.4899,-1.4567,-1.4233,-1.4109,-1.3813,-1.3511,-1.3511,-1.3511,-1.3511,-1.3511,-1.3314,-1.3194,-1.3451,-1.3305,-1.3202,-1.3459,-1.3297,-1.3091,-1.2997,-1.2518,-1.2061,-1.1959,-1.1756,-1.1507,-1.1352,-1.1326,-1.1326,-1.1326,-1.1326,-1.1326,-1.1326,-1.1326,-1.1326,-1.1326,-1.1326,-1.1326,-1.1326,-1.1326,-1.1326,-1.1326,-1.1438,-1.1636,-1.192,-1.1952,-1.2132,-1.2398,-1.25,-1.2706,-0.6413,-0.6774,-0.7068,-0.7412,-0.7675,-0.7855,-0.7855,-0.7855,-0.7822,-0.7587,-0.7828,-0.8091,-0.7968,-0.8452,-0.8962,-0.9182,-0.9958,-1.0338,-0.9716,-1.0163,-1.0331,-0.9702,-0.9629,-0.9753,0.0,-1.0104,-1.0368,-1.1011,-1.137,-1.1888,-1.2474,-1.2811,-1.298,-1.3014,-1.3338,-1.3691,-1.4076,-1.4093,-1.4461,-1.518,-1.5189,-1.5403,-1.5771,-1.5771,-1.5771,-1.578,-1.578,-1.5788,-1.5805,-1.5805,-1.5805,-1.5805,-1.5805,-1.5805,-1.5805,-1.5805,-1.5805,-1.5805,-1.5805,-1.5788,-1.578,-1.578,-1.578,-1.5683,-1.5325,-1.4925,-1.4586,-1.4197,-1.3813,-1.3511,-1.3511,-1.3511,-1.3511,-1.3511,-1.3502,-1.3494,-1.3511,-1.3502,-1.3494,-1.3511,-1.3502,-1.3382,-1.304,-1.2963,-1.2817,-1.2432,-1.2363,-1.2098,-1.1362,-1.1326,-1.1326,-1.1326,-1.1326,-1.1326,-1.1326,-1.1326,-1.1326,-1.1326,-1.1326,-1.1326,-1.1326,-1.1326,-1.1326,-1.1326,-1.1766,-1.1911,-1.1788,-1.2201,-1.2381,-1.2398,-1.2783,-1.2971,-0.672,-0.6947,-0.7188,-0.7896,-0.815,-0.8223,-0.8223,-0.8223,-0.8185,-0.793,-0.799,-0.8125,-0.8293,-0.8336,-0.8618,-0.9322,-1.0097,-1.0463,-1.0097,-1.0485,-1.0667,-1.0302,-1.0068,0.0,0.0,0.0,0.0,-1.1041,-1.1439,-1.1799,-1.2226,-1.2539,-1.2795,-1.2989,-1.3583,-1.3964,-1.4093,-1.459,-1.4966,-1.5215,-1.548,-1.5677,-1.5805,-1.5805,-1.5805,-1.5805,-1.5805,-1.5805,-1.5805,-1.5805,-1.5805,-1.5805,-1.5805,-1.5805,-1.5805,-1.5805,-1.5805,-1.5805,-1.5805,-1.5805,-1.5805,-1.5805,-1.5805,-1.5797,-1.563,-1.5189,-1.4677,-1.4567,-1.4038,-1.3511,-1.3511,-1.3511,-1.3511,-1.3511,-1.3511,-1.3511,-1.3511,-1.3511,-1.3511,-1.3511,-1.3511,-1.3468,-1.3348,-1.3134,-1.2843,-1.2449,-1.2389,-1.2295,-1.2047,-1.1798,-1.1653,-1.1653,-1.1422,-1.1326,-1.1326,-1.1326,-1.1326,-1.1326,-1.1326,-1.1326,-1.1326,-1.1516,-1.1653,-1.1653,-1.2021,-1.2393,-1.2595,-1.2723,-1.2903,-1.3134,-1.3271,-1.3331,-0.7047,-0.7341,-0.7642,-0.823,-0.8457,-0.8504,-0.8397,-0.829,-0.8178,-0.7916,-0.777,-0.7743,-0.8072,-0.8039,-0.8249,-0.9153,-0.9921,-1.0368,-1.0228,-1.0646,-1.0872,-1.0616,-1.0404,-1.0404,0.0,0.0,0.0,-1.1055,-1.1439,-1.1747,-1.2065,-1.2367,-1.2731,-1.317,-1.3777,-1.4221,-1.4495,-1.4975,-1.5283,-1.5429,-1.5677,-1.5805,-1.5805,-1.5805,-1.5805,-1.5805,-1.5805,-1.5805,-1.5805,-1.5805,-1.5805,-1.5805,-1.5805,-1.5805,-1.5805,-1.5805,-1.5805,-1.5805,-1.5805,-1.5805,-1.5805,-1.5805,-1.5805,-1.5805,-1.5805,-1.5369,-1.4835,-1.4772,-1.4337,-1.3763,-1.3566,-1.3585,-1.3559,-1.3432,-1.345,-1.3511,-1.3511,-1.3511,-1.3511,-1.3511,-1.3511,-1.3511,-1.3511,-1.3322,-1.3083,-1.2826,-1.2792,-1.2689,-1.2423,-1.2184,-1.1933,-1.1805,-1.1627,-1.1422,-1.1335,-1.1326,-1.1326,-1.1326,-1.1326,-1.1326,-1.1326,-1.1636,-1.1788,-1.1788,-1.2346,-1.2723,-1.298,-1.3108,-1.3288,-1.3511,-1.3511,-1.3511,-0.7473,-0.7983,-0.8377,-0.839,-0.8604,-0.8731,-0.8424,-0.8123,-0.7816,-0.7533,-0.7134,-0.6978,0.0,0.0,-0.7909,-0.8582,-0.9468,-1.0089,-1.0119,-1.0689,-1.0989,0.0,0.0,0.0,0.0,0.0,0.0,-1.1121,0.0,-1.1755,-1.2088,-1.239,-1.2859,-1.3595,-1.3946,-1.4495,-1.5206,-1.5232,-1.5429,-1.5805,-1.5805,-1.5805,-1.5805,-1.5805,-1.5805,-1.5805,-1.5805,-1.5805,-1.5805,-1.5805,-1.5805,-1.5805,-1.5805,-1.5805,-1.5805,-1.5805,-1.5805,-1.5805,-1.5805,-1.5805,-1.5805,-1.5805,-1.5805,-1.5805,-1.5805,-1.5531,-1.5163,-1.4956,-1.4678,-1.4254,-1.3758,-1.3713,-1.3685,-1.3411,-1.3424,-1.3511,-1.3511,-1.3511,-1.3511,-1.3511,-1.3511,-1.3511,-1.3511,-1.3511,-1.3511,-1.3511,-1.3511,-1.3254,-1.2543,-1.2432,-1.2286,-1.1882,-1.1831,-1.1721,-1.1362,-1.1387,-1.1387,-1.1387,-1.1387,-1.1387,-1.1387,-1.1696,-1.1848,-1.1848,-1.2629,-1.3006,-1.3006,-1.3339,-1.3511,-1.3511,-1.3511,-1.3511,-0.8051,-0.8306,-0.8424,-0.8644,-0.8751,-0.8671,-0.8163,-0.7802,-0.7486,-0.7058,-0.6696,-0.6595,-0.7083,0.0,0.0,-0.8538,-0.9277,0.0,-1.0397,-1.1026,0.0,-1.1648,0.0,-1.1436,-1.1758,-1.1787,0.0,0.0,-1.1648,-1.1859,-1.2424,-1.2623,-1.3036,-1.3704,-1.4372,-1.4807,-1.4993,-1.5428,-1.5703,-1.5805,-1.5805,-1.5805,-1.5805,-1.5805,-1.5805,-1.5805,-1.5805,-1.5805,-1.5805,-1.5805,-1.5805,-1.5805,-1.5805,-1.5805,-1.5805,-1.5805,-1.5805,-1.5805,-1.5805,-1.5805,-1.5805,-1.5805,-1.5805,-1.5805,-1.5805,-1.5531,-1.5189,-1.4976,-1.4572,-1.4172,-1.4007,-1.3785,-1.3562,-1.366,-1.3602,-1.3511,-1.3511,-1.3511,-1.3511,-1.3511,-1.3511,-1.3511,-1.3511,-1.3511,-1.3511,-1.3511,-1.3511,-1.3442,-1.3245,-1.2988,-1.2792,-1.2697,-1.2432,-1.2209,-1.2115,-1.2107,-1.2107,-1.2107,-1.2107,-1.2107,-1.2107,-1.2483,-1.2689,-1.2689,-1.3143,-1.3374,-1.3374,-1.3468,-1.3511,-1.3511,-1.3511,-1.3511,-0.8333,-0.847,-0.8604,-0.8764,-0.8711,-0.8497,-0.7988,-0.7589,-0.719,-0.6774,-0.6416,-0.6312,-0.6763,-0.6896,-0.7245,0.0,0.0,0.0,-1.0287,-1.1055,-1.1626,0.0,-1.1919,0.0,-1.2028,-1.2102,-1.2189,0.0,-1.2006,-1.2195,-1.2644,-1.2783,-1.3201,-1.3934,-1.4484,-1.494,-1.5324,-1.5615,-1.5805,-1.5805,-1.5805,-1.5805,-1.5805,-1.5805,-1.5805,-1.5805,0.0,-1.5805,-1.5805,-1.5805,-1.5805,-1.5805,-1.5805,-1.5805,-1.5805,-1.5805,-1.5805,-1.5805,-1.5805,-1.5805,-1.5797,-1.5726,-1.5576,-1.5505,-1.5426,-1.5213,-1.4899,-1.4735,-1.4458,-1.4219,-1.399,-1.3947,-1.3893,-1.3924,-1.398,-1.4024,-1.4024,-1.4024,-1.3973,-1.3802,-1.3622,-1.3511,-1.3511,-1.3511,-1.3511,-1.3511,-1.3511,-1.3511,-1.3511,-1.3339,-1.3151,-1.2997,-1.2783,-1.2577,-1.2406,-1.2389,-1.2389,-1.2389,-1.2389,-1.2389,-1.2389,-1.2766,-1.298,-1.298,-1.3322,-1.3511,-1.3511,-1.3511,-1.3511,-1.3511,-1.3511,-1.3511,-0.843,-0.8617,-0.8798,-0.8758,-0.8564,-0.8277,-0.7896,-0.7341,-0.6814,-0.6486,-0.6122,-0.5963,-0.6314,-0.6507,-0.6964,-0.7975,0.0,-0.9343,-1.0009,-1.0946,-1.1659,-1.174,-1.2219,-1.2475,-1.2189,-1.246,-1.2511,-1.2189,-1.2467,-1.2704,-1.2871,-1.2999,-1.3415,-1.4242,-1.4535,-1.5038,-1.5797,-1.5805,-1.5805,-1.5805,-1.5805,-1.5805,-1.5805,-1.5805,-1.5805,-1.5805,-1.5805,0.0,-1.5805,-1.5805,-1.5805,-1.5805,-1.5805,-1.5805,-1.5805,-1.5805,-1.5805,-1.5805,-1.5805,-1.5805,-1.5726,-1.5505,-1.5275,-1.5054,-1.4832,-1.4625,-1.4353,-1.4255,-1.424,-1.414,-1.3902,-1.4079,-1.432,-1.4205,-1.4446,-1.4684,-1.4684,-1.4649,-1.4504,-1.4161,-1.3776,-1.3511,-1.3511,-1.3511,-1.3511,-1.3511,-1.3511,-1.3511,-1.3511,-1.3511,-1.3391,-1.3083,-1.3048,-1.2911,-1.2569,-1.2543,-1.2543,-1.2543,-1.2543,-1.2543,-1.2543,-1.2869,-1.3048,-1.3048,-1.3348,-1.3511,-1.3511,-1.3511,-1.3511,-1.3511,-1.3511,-1.3536,-0.8731,-0.8771,-0.8751,-0.851,-0.841,-0.8163,-0.7361,-0.6727,0.0,-0.5692,-0.5387,-0.532,-0.5745,-0.6049,-0.6564,-0.7597,-0.8348,-0.9087,-0.9972,-1.0946,-1.1758,0.0,-1.2694,-1.2899,-1.2848,-1.3133,0.0,0.0,0.0,-1.3356,-1.3438,-1.3492,-1.3987,-1.4956,-1.5035,-1.5288,-1.5805,-1.5805,-1.5805,-1.5805,-1.5805,-1.5805,-1.5805,-1.5805,-1.5805,-1.5805,-1.5805,0.0,-1.5805,-1.5805,-1.5805,-1.5805,-1.5805,-1.5805,-1.5805,-1.5805,-1.5805,-1.5805,-1.5805,-1.5805,-1.5726,-1.5355,-1.4982,-1.4609,-1.4106,-1.3673,-1.3382,-1.3244,-1.3317,-1.3448,-1.3757,-1.3971,-1.4239,-1.4533,-1.4639,-1.4684,-1.4684,-1.4427,-1.4179,-1.411,-1.3776,-1.3511,-1.3511,-1.3511,-1.3511,-1.3511,-1.3511,-1.3511,-1.3511,-1.3511,-1.3485,-1.3425,-1.3417,-1.3391,-1.3322,-1.3314,-1.3314,-1.3314,-1.3314,-1.3314,-1.3314,-1.3382,-1.3417,-1.3417,-1.3476,-1.3511,-1.3511,-1.3511,-1.3511,-1.3511,-1.3511,-1.3682,-0.8804,-0.8804,-0.8738,-0.8444,-0.8306,-0.8038,-0.7287,0.0,0.0,-0.5531,-0.5129,-0.4956,-0.5369,-0.5708,-0.6268,-0.7262,-0.8012,-0.8765,-0.9716,-1.0836,-1.1736,-1.2211,-1.2855,-1.3192,-1.3023,-1.3301,-1.336,0.0,0.0,-1.3578,-1.3709,-1.3978,-1.4474,-1.5196,-1.5275,-1.5505,-1.5805,-1.5805,-1.5805,-1.5805,-1.5805,-1.5805,-1.5805,-1.5805,-1.5805,-1.5805,-1.5805,0.0,-1.6062,-1.5882,-1.5917,-1.6071,-1.5874,-1.5805,-1.5805,-1.5805,-1.5805,-1.5805,-1.5805,-1.5805,-1.5726,-1.507,-1.4625,-1.4178,-1.3608,-1.3032,-1.2586,-1.2586,-1.2659,-1.2879,-1.3331,-1.3863,-1.4316,-1.4684,-1.5049,-1.5266,-1.5266,-1.4958,-1.4624,-1.4435,-1.4084,-1.381,-1.381,-1.3648,-1.3579,-1.3785,-1.3639,-1.3511,-1.3511,-1.3511,-1.3511,-1.3511,-1.3511,-1.3511,-1.3511,-1.3511,-1.3511,-1.3511,-1.3511,-1.3511,-1.3511,-1.3511,-1.3511,-1.3511,-1.3511,-1.3511,-1.3511,-1.3511,-1.3511,-1.3511,-1.3716,-1.3913,-0.8837,-0.8804,-0.8724,-0.8414,-0.8193,-0.7921,-0.7231,-0.6435,-0.5781,-0.5411,-0.4955,-0.4696,-0.4946,-0.5385,-0.5948,0.0,-0.7521,-0.8326,-0.9285,-1.0536,-1.1502,0.0,-1.2797,0.0,-1.3031,-1.3301,0.0,0.0,0.0,0.0,-1.3935,-1.4433,-1.4856,-1.5275,-1.5426,-1.5576,-1.5805,-1.5805,-1.5805,-1.5805,-1.5805,-1.5805,-1.5805,-1.5805,-1.5805,-1.5805,-1.5805,0.0,0.0,-1.5837,-1.5897,-1.6127,-1.5766,-1.5655,-1.5655,-1.5726,-1.5726,-1.5797,-1.5726,-1.5726,-1.5505,-1.4784,-1.4194,-1.3753,-1.3112,-1.2378,-1.1781,-1.1855,-1.2003,-1.215,-1.2826,-1.355,-1.4346,-1.4935,-1.5443,-1.5805,-1.5805,-1.5489,-1.5129,-1.4855,-1.4487,-1.4221,-1.4221,-1.3964,-1.3862,-1.4179,-1.3887,-1.3639,-1.3639,-1.3562,-1.3511,-1.3511,-1.3511,-1.3511,-1.3511,-1.3511,-1.3511,-1.3511,-1.3511,-1.3511,-1.3511,-1.3511,-1.3511,-1.3511,-1.3511,-1.3511,-1.3511,-1.3596,-1.3639,-1.3648,-1.4042,-1.4264,-0.8881,-0.891,-0.8671,-0.8248,-0.8133,-0.7811,-0.681,0.0,-0.5404,-0.4877,-0.4538,-0.435,-0.4388,-0.4917,-0.5465,-0.5853,-0.6702,-0.766,-0.8633,-0.987,-1.0909,-1.1531,0.0,0.0,-1.3009,-1.3301,0.0,0.0,0.0,0.0,-1.4353,-1.4649,-1.5078,-1.5434,-1.5497,-1.5576,-1.5805,-1.5805,-1.5805,-1.5805,-1.5805,-1.5805,-1.5805,-1.5805,-1.5805,-1.5805,-1.5805,0.0,0.0,-1.5593,-1.5443,-1.5325,-1.5292,-1.5275,-1.5275,-1.5426,-1.5647,-1.5797,-1.5576,-1.5426,-1.5133,-1.4418,-1.3905,-1.339,-1.2365,-1.1558,-1.0887,-1.0738,-1.0962,-1.1335,-1.1929,-1.2945,-1.4114,-1.5434,-1.5735,-1.5805,-1.5805,-1.5489,-1.5206,-1.5172,-1.4881,-1.4632,-1.4632,-1.4598,-1.459,-1.4624,-1.429,-1.4042,-1.4042,-1.3733,-1.3511,-1.3511,-1.3511,-1.3511,-1.3511,-1.3511,-1.3511,-1.3511,-1.3511,-1.3511,-1.3511,-1.3511,-1.3511,-1.3511,-1.3511,-1.3511,-1.3511,-1.387,-1.4042,-1.405,-1.4444,-1.4804,-0.8795,-0.8916,-0.8916,-0.8352,-0.8294,-0.8018,-0.6817,-0.6113,-0.5506,-0.4893,-0.4381,-0.4105,-0.4264,-0.469,-0.5173,-0.5723,-0.6599,-0.7499,-0.829,-0.949,-1.0463,-1.0924,-1.1767,0.0,0.0,0.0,0.0,0.0,0.0,0.0,-1.4346,-1.4784,-1.5284,-1.5655,-1.5655,-1.5726,-1.5805,-1.5805,-1.5805,-1.5805,-1.5805,-1.5805,-1.5805,-1.5805,-1.5805,-1.5805,-1.5805,0.0,0.0,-1.5518,-1.5265,-1.5138,-1.4784,-1.476,-1.4824,-1.5054,-1.5426,-1.5726,-1.5426,-1.5125,-1.4689,-1.397,-1.3317,-1.2659,-1.2137,-1.1477,-1.0812,-1.0887,-1.0887,-1.1111,-1.1781,-1.3025,-1.4338,-1.5505,-1.5726,-1.5576,-1.5426,-1.5246,-1.4932,-1.4571,-1.4416,-1.4326,-1.4326,-1.4146,-1.4081,-1.4293,-1.4015,-1.364,-1.3484,-1.3328,-1.3149,-1.2928,-1.3268,-1.3511,-1.3511,-1.3511,-1.3511,-1.3511,-1.3511,-1.3511,-1.3511,-1.3733,-1.3862,-1.3862,-1.4093,-1.4213,-1.4221,-1.4375,-1.4453,-1.4461,-1.4829,-1.5078,-0.8609,-0.877,-0.8812,-0.8341,-0.8229,-0.7924,-0.685,-0.6108,-0.548,-0.4924,-0.4318,-0.3957,-0.4141,-0.4522,-0.4961,-0.5422,-0.6387,-0.7241,-0.7836,-0.8933,-0.9833,-1.0195,0.0,-1.1375,0.0,0.0,0.0,0.0,0.0,0.0,-1.4122,-1.4697,-1.5284,-1.5805,-1.5805,-1.5805,-1.5805,-1.5805,-1.5805,-1.5805,-1.5805,-1.5805,-1.5805,-1.5805,-1.5805,-1.5805,-1.5805,0.0,0.0,-1.5392,-1.4993,-1.482,-1.4294,-1.4194,-1.4314,-1.4617,-1.5133,-1.5576,-1.5141,-1.4768,-1.4322,-1.3535,-1.2813,-1.2077,-1.1909,-1.1397,-1.0887,-1.0962,-1.0962,-1.1186,-1.2144,-1.3317,-1.4489,-1.5584,-1.5576,-1.5346,-1.5054,-1.4848,-1.4498,-1.4026,-1.3909,-1.3909,-1.3909,-1.3716,-1.3569,-1.3878,-1.3562,-1.3261,-1.3014,-1.2891,-1.2698,-1.2359,-1.2811,-1.3202,-1.3346,-1.3398,-1.3459,-1.3511,-1.3511,-1.3562,-1.3682,-1.3885,-1.4018,-1.4128,-1.4399,-1.4544,-1.4544,-1.4654,-1.4771,-1.4846,-1.5215,-1.5386,-0.8311,-0.8388,-0.8278,-0.8065,-0.7752,-0.7353,-0.6818,-0.596,-0.5202,-0.4873,-0.4318,-0.3911,-0.3911,-0.4399,-0.4807,-0.4814,-0.5873,-0.6826,-0.7153,-0.8085,-0.8885,0.0,0.0,-1.0223,-1.0752,0.0,0.0,0.0,0.0,0.0,-1.3673,-1.4266,-1.4999,-1.5797,-1.5805,-1.5805,-1.5805,-1.5805,-1.5805,-1.5805,-1.5805,-1.5805,-1.5805,-1.5805,-1.5805,0.0,0.0,0.0,0.0,-1.5158,-1.4569,-1.3977,-1.3855,-1.3702,-1.3608,-1.4122,-1.4697,-1.5133,-1.4784,-1.4338,-1.3897,-1.3185,-1.2378,-1.1706,-1.1484,-1.126,-1.1037,-1.0887,-1.1111,-1.17,-1.2872,-1.3608,-1.4418,-1.5513,-1.5497,-1.5054,-1.4681,-1.4322,-1.3897,-1.36,-1.3528,-1.3528,-1.3528,-1.3528,-1.352,-1.3528,-1.3192,-1.2917,-1.2917,-1.2557,-1.2164,-1.192,-1.2086,-1.2409,-1.2952,-1.318,-1.3354,-1.3511,-1.3511,-1.3682,-1.4076,-1.3895,-1.3872,-1.4115,-1.4123,-1.4123,-1.4123,-1.4605,-1.4993,-1.5215,-1.5608,-1.5797,-0.7549,-0.7759,-0.781,-0.7534,-0.7382,-0.7136,-0.6563,-0.5839,-0.5202,-0.4873,-0.4318,-0.3911,-0.3911,-0.4359,-0.4736,-0.4781,-0.5826,-0.6695,-0.684,0.0,0.0,-0.8914,-0.9775,-1.0661,0.0,0.0,0.0,0.0,0.0,0.0,-1.3105,-1.3615,-1.4418,-1.5735,-1.5805,-1.5805,-1.5805,-1.5805,-1.5805,-1.5805,-1.5805,-1.5805,-1.5805,-1.5805,-1.5805,0.0,0.0,0.0,0.0,-1.5007,-1.4274,-1.3608,-1.3185,-1.2893,-1.2739,-1.3185,-1.397,-1.4752,-1.4194,-1.3905,-1.3535,-1.2739,-1.1929,-1.126,-1.1186,-1.1186,-1.1037,-1.0887,-1.1186,-1.1781,-1.2592,-1.3324,-1.4122,-1.5133,-1.5062,-1.4705,-1.4258,-1.3833,-1.3331,-1.2813,-1.2666,-1.2666,-1.2666,-1.2666,-1.2666,-1.2666,-1.2583,-1.2374,-1.2168,-1.2059,-1.1812,-1.1506,-1.1815,-1.2196,-1.2637,-1.285,-1.3103,-1.3511,-1.3759,-1.3964,-1.4093,-1.4254,-1.4244,-1.4078,-1.418,-1.4291,-1.4423,-1.4746,-1.5171,-1.5617,-1.5745,-1.5805,-0.6768,-0.7097,-0.7255,-0.7059,-0.6913,-0.6724,-0.6238,-0.5575,-0.5019,-0.469,-0.423,-0.389,-0.3877,-0.4271,-0.4613,-0.4677,-0.573,-0.6592,0.0,0.0,0.0,-0.8991,0.0,0.0,0.0,0.0,0.0,0.0,0.0,0.0,-1.2305,-1.2732,-1.3535,-1.4776,-1.5141,-1.5363,-1.5363,-1.5363,-1.5363,-1.5363,-1.5363,-1.5363,-1.5363,-1.5363,-1.5363,0.0,0.0,0.0,0.0,-1.4569,-1.3905,-1.3251,-1.2666,-1.2298,-1.2157,-1.2599,-1.3462,-1.4322,-1.3833,-1.3615,-1.339,-1.2592,-1.1781,-1.1111,-1.1111,-1.1111,-1.1037,-1.0962,-1.126,-1.1706,-1.2305,-1.2966,-1.3688,-1.476,-1.4625,-1.4194,-1.3897,-1.3324,-1.2673,-1.2003,-1.1855,-1.1855,-1.1855,-1.1855,-1.1855,-1.1855,-1.1855,-1.179,-1.1537,-1.1518,-1.1409,-1.1128,-1.1375,-1.1723,-1.199,-1.2552,-1.3076,-1.3438,-1.3788,-1.4109,-1.4252,-1.4361,-1.4311,-1.4089,-1.4094,-1.4122,-1.4178,-1.4617,-1.4991,-1.5363,-1.5363,-1.5438,0.0,-0.636,-0.6608,-0.6629,-0.6431,-0.6157,-0.5848,-0.5239,0.0,-0.4359,-0.409,-0.3877,-0.385,-0.4142,-0.4435,-0.4575,-0.5598,-0.6565,0.0,-0.8041,0.0,0.0,-1.0354,0.0,0.0,0.0,0.0,0.0,0.0,0.0,-1.1335,-1.1706,-1.2291,-1.3091,-1.3977,-1.4425,-1.4497,-1.4497,-1.4497,-1.4497,-1.4497,-1.4497,-1.4497,-1.4497,-1.4497,0.0,0.0,0.0,0.0,-1.3977,-1.3411,-1.2854,-1.2405,-1.2035,-1.1738,-1.2338,-1.3127,-1.3897,-1.3557,-1.3477,-1.339,-1.2519,-1.1706,-1.1111,-1.1111,-1.1111,-1.1111,-1.1111,-1.126,-1.1558,-1.2077,-1.2599,-1.3185,-1.425,-1.4106,-1.3688,-1.3462,-1.2813,-1.2003,-1.126,-1.1111,-1.1111,-1.1111,-1.1111,-1.1111,-1.1111,-1.1111,-1.1111,-1.1111,-1.1111,-1.1015,-1.0773,-1.0893,-1.1146,-1.1289,-1.2262,-1.3065,-1.34,-1.3608,-1.3969,-1.4522,-1.4271,-1.4011,-1.3962,-1.3775,-1.363,-1.3462,-1.4201,-1.4497,-1.4497,-1.4497,-1.4686,-0.4802,0.0,-0.5614,-0.5948,-0.5742,-0.5457,0.0,-0.489,-0.4386,-0.4315,-0.4053,-0.3894,-0.4148,-0.4297,-0.4631,-0.5384,-0.6017,-0.6673,-0.744,0.0,0.0,-1.0597,0.0,0.0,0.0,0.0,0.0,0.0,0.0,-1.1335,-1.0962,-1.1186,-1.1626,-1.2291,-1.2519,-1.2952,-1.3753,-1.376,-1.376,-1.376,-1.376,-1.376,-1.376,-1.376,-1.376,0.0,0.0,0.0,-1.3753,-1.3251,-1.2959,-1.2714,-1.2272,-1.1891,-1.1585,-1.2043,-1.2791,-1.3535,-1.3185,-1.3251,-1.3244,-1.1848,-1.126,-1.1111,-1.1111,-1.1111,-1.1111,-1.1111,-1.126,-1.1484,-1.1781,-1.2231,-1.2813,-1.3608,-1.3542,-1.3266,-1.3112,-1.2519,-1.1855,-1.126,-1.1111,-1.1111,-1.1111,-1.1111,-1.1111,-1.1111,-1.1111,-1.1111,-1.1111,-1.1111,-1.1087,-1.1027,-1.1169,-1.1359,-1.1589,-1.1817,-1.2098,-1.2571,-1.3066,-1.3592,-1.4178,-1.401,-1.3822,-1.3608,-1.2959,-1.2673,-1.282,-1.347,-1.376,-1.376,-1.376,-1.3932,-0.4269,-0.4794,-0.5296,-0.5543,-0.5434,-0.5185,-0.4969,-0.4563,-0.4155,-0.4022,-0.3957,-0.3992,-0.4179,-0.4574,-0.5062,-0.572,-0.6406,0.0,0.0,0.0,-1.0435,-1.1389,0.0,0.0,0.0,0.0,0.0,0.0,0.0,-1.1037,-1.0443,-1.0513,-1.0812,-1.1335,-1.1335,-1.1848,-1.2952,-1.2952,-1.2952,-1.2952,-1.2952,-1.2952,-1.2952,-1.2952,-1.2952,0.0,0.0,0.0,-1.2952,-1.2592,-1.2478,-1.235,-1.1917,-1.1649,-1.1516,-1.184,-1.2438,-1.3178,-1.2893,-1.2813,-1.2659,-1.1477,-1.1111,-1.1111,-1.1111,-1.1111,-1.1111,-1.1111,-1.1186,-1.126,-1.1409,-1.1706,-1.2224,-1.2813,-1.2813,-1.2673,-1.2599,-1.2231,-1.1706,-1.1186,-1.1111,-1.1111,-1.1111,-1.1111,-1.1111,-1.1111,-1.1111,-1.1111,-1.1111,-1.1111,-1.1111,-1.1111,-1.1186,-1.1335,-1.1409,-1.1427,-1.1675,-1.2241,-1.2749,-1.327,-1.3775,-1.3598,-1.3324,-1.2959,-1.2438,-1.2221,-1.2305,-1.2878,-1.3163,-1.3163,-1.3163,-1.3334,-0.4,-0.4649,-0.5207,-0.5295,-0.5302,-0.5137,-0.461,-0.4298,-0.4042,-0.3738,0.0,-0.4162,-0.4283,-0.494,0.0,0.0,0.0,0.0,-0.9799,-1.037,-1.0959,0.0,0.0,0.0,0.0,0.0,0.0,0.0,0.0,-1.0663,-0.9922,-0.9922,-1.0143,-1.0513,-1.0513,-1.1037,-1.2077,-1.215,-1.215,-1.215,-1.215,-1.215,-1.215,-1.215,-1.215,-1.215,0.0,0.0,-1.2077,-1.1929,-1.1953,-1.1972,-1.157,-1.1474,-1.1504,-1.164,-1.2197,-1.2746,-1.2599,-1.2298,-1.1855,-1.126,-1.1111,-1.1111,-1.1111,-1.1111,-1.1111,-1.1111,-1.1111,-1.1186,-1.1186,-1.1335,-1.1632,-1.2157,-1.215,-1.2003,-1.215,-1.1929,-1.1558,-1.1186,-1.1111,-1.1111,-1.1111,-1.1111,-1.1111,-1.1111,-1.1111,-1.1111,-1.1111,-1.1111,-1.1111,-1.1111,-1.1111,-1.1111,-1.1111,-1.1111,-1.1409,-1.2077,-1.2452,-1.2813,-1.3244,-1.3112,-1.2847,-1.2297,-1.2101,-1.1967,-1.199,-1.2374,-1.2575,-1.2575,-1.2575,-1.287,-0.3813,-0.427,-0.4692,-0.4985,-0.5055,-0.4941,-0.4581,-0.4339,-0.4147,-0.4037,0.0,0.0,0.0,-0.5538,-0.618,0.0,0.0,-0.9254,0.0,0.0,0.0,0.0,0.0,0.0,0.0,0.0,0.0,0.0,0.0,-1.0368,-0.9916,-1.0067,-1.0293,-1.0513,-1.0663,-1.0887,-1.126,-1.126,-1.126,-1.126,-1.126,-1.126,-1.126,-1.126,-1.126,-1.126,0.0,-1.126,-1.126,-1.126,-1.135,-1.1605,-1.1479,-1.1492,-1.1522,-1.171,-1.2074,-1.2378,-1.2378,-1.2077,-1.1706,-1.126,-1.1111,-1.1111,-1.1111,-1.1111,-1.1111,-1.1111,-1.1186,-1.1335,-1.1335,-1.1632,-1.1929,-1.2003,-1.2003,-1.1929,-1.1855,-1.1632,-1.1409,-1.1186,-1.1111,-1.1111,-1.1111,-1.1111,-1.1111,-1.1111,-1.1111,-1.1111,-1.1111,-1.1111,-1.1111,-1.1111,-1.1111,-1.1111,-1.1111,-1.1111,-1.1186,-1.126,-1.1484,-1.1781,-1.2218,-1.2372,-1.235,-1.2152,-1.1818,-1.1696,-1.1958,-1.1994,-1.2019,-1.2019,-1.2019,-1.2184,-0.3471,-0.3882,-0.4306,-0.4549,-0.4854,-0.5055,-0.4766,-0.4525,-0.4358,-0.4317,0.0,0.0,0.0,0.0,-0.6969,-0.8143,0.0,-0.935,0.0,0.0,0.0,0.0,0.0,0.0,0.0,0.0,0.0,0.0,0.0,0.0,-1.0067,-1.0143,-1.0368,-1.0663,-1.0738,-1.0887,-1.1111,-1.1111,-1.1111,-1.1111,-1.1111,-1.1111,-1.1111,-1.1111,-1.1111,-1.1111,0.0,-1.1111,-1.1111,-1.1111,-1.1359,-1.1715,-1.1419,-1.1486,-1.1727,-1.1893,-1.2063,-1.2194,-1.235,-1.2145,-1.1714,-1.1411,-1.1232,-1.1141,-1.1292,-1.1313,-1.134,-1.1473,-1.1487,-1.1484,-1.1781,-1.1929,-1.2003,-1.215,-1.2003,-1.1781,-1.1409,-1.1335,-1.1186,-1.1111,-1.1111,-1.1111,-1.1111,-1.1111,-1.1111,-1.1111,-1.1111,-1.1111,-1.1111,-1.1111,-1.1111,-1.1111,-1.1111,-1.1111,-1.1111,-1.1111,-1.1186,-1.126,-1.1484,-1.1632,-1.1855,-1.2091,-1.2081,-1.1914,-1.1964,-1.1944,-1.192,-1.2065,-1.2131,-1.2131,-1.2131,-1.2276,-0.318,-0.356,-0.3975,-0.4189,-0.4707,-0.5096,-0.4876,-0.4761,-0.47,-0.4643,0.0,0.0,0.0,-0.6655,0.0,-0.8724,-0.8974,0.0,0.0,0.0,0.0,0.0,0.0,0.0,0.0,0.0,0.0,0.0,0.0,0.0,-1.0143,-1.0218,-1.0443,-1.0738,-1.0812,-1.0962,-1.1111,-1.1111,-1.1111,-1.1111,-1.1111,-1.1111,-1.1111,-1.1111,-1.1111,-1.1111,-1.1111,-1.1111,-1.1117,-1.1184,-1.1455,-1.1793,-1.1437,-1.1558,-1.189,-1.1936,-1.2035,-1.2045,-1.233,-1.211,-1.1768,-1.1552,-1.1425,-1.1329,-1.1486,-1.1514,-1.1643,-1.1811,-1.1781,-1.175,-1.2313,-1.2355,-1.2287,-1.2437,-1.2159,-1.1733,-1.1283,-1.1154,-1.1111,-1.1111,-1.1111,-1.1111,-1.1111,-1.1111,-1.1111,-1.1111,-1.1111,-1.1111,-1.1111,-1.1111,-1.1111,-1.1111,-1.1111,-1.1111,-1.1111,-1.1111,-1.1186,-1.1335,-1.1484,-1.1558,-1.1558,-1.184,-1.1945,-1.1858,-1.2158,-1.2246,-1.2107,-1.2306,-1.2403,-1.2403,-1.2403,-1.2512,-0.3013,-0.3358,-0.3766,-0.3958,-0.4519,-0.4958,-0.4678,-0.4976,-0.5278,-0.5079,0.0,0.0,0.0,-0.7187,-0.8057,-0.8777,-0.8928,0.0,0.0,0.0,0.0,0.0,0.0,0.0,0.0,0.0,0.0,0.0,0.0,0.0,-0.9916,-1.0293,-1.0513,-1.0513,-1.0887,-1.1111,-1.1111,-1.1111,-1.1111,-1.1111,-1.1111,-1.1111,-1.1111,-1.1111,-1.1111,-1.1111,-1.1111,-1.1111,-1.1129,-1.1395,-1.1522,-1.1582,-1.1787,-1.189,-1.189,-1.163,-1.1685,-1.1896,-1.192,-1.1908,-1.1854,-1.1612,-1.1685,-1.1823,-1.16,-1.1691,-1.1878,-1.1914,-1.2058,-1.2272,-1.2769,-1.2969,-1.3061,-1.2883,-1.2531,-1.2049,-1.1581,-1.1298,-1.1111,-1.1111,-1.1111,-1.1111,-1.1111,-1.1111,-1.1111,-1.1111,-1.1111,-1.1111,-1.1111,-1.1111,-1.1111,-1.1111,-1.1111,-1.1111,-1.1111,-1.1111,-1.1111,-1.1111,-1.1111,-1.1111,-1.1111,-1.1383,-1.1648,-1.189,-1.2168,-1.2421,-1.265,-1.2668,-1.2674,-1.2674,-1.2674,-1.2687,-0.3027,-0.3213,-0.3472,-0.3903,-0.4284,-0.462,-0.4793,-0.5225,-0.558,-0.559,-0.5909,0.0,0.0,0.0,-0.7961,-0.8498,0.0,0.0,0.0,0.0,0.0,0.0,0.0,0.0,0.0,0.0,0.0,0.0,0.0,0.0,0.0,-0.9991,-1.0217,-1.051,-1.0736,-1.0962,-1.1111,-1.1111,-1.1111,-1.1111,-1.1111,-1.1111,-1.1111,-1.1111,-1.1111,-1.1111,-1.1111,-1.1111,-1.1135,-1.1413,-1.1624,-1.1799,-1.2065,-1.2065,-1.1926,-1.1992,-1.2083,-1.2192,-1.2355,-1.23,-1.2149,-1.2047,-1.1974,-1.1932,-1.1999,-1.2067,-1.2172,-1.2318,-1.2554,-1.2837,-1.3007,-1.3028,-1.2956,-1.3015,-1.2706,-1.2205,-1.1648,-1.1449,-1.1323,-1.1148,-1.1111,-1.1111,-1.1111,-1.1111,-1.1111,-1.1111,-1.1111,-1.1111,-1.1111,-1.1111,-1.1111,-1.1111,-1.1111,-1.1184,-1.1359,-1.1371,-1.1443,-1.1606,-1.1461,-1.1371,-1.1371,-1.1787,-1.2065,-1.2161,-1.2421,-1.2608,-1.2705,-1.2705,-1.2705,-1.2705,-1.2705,-1.2795,-0.3082,-0.3212,-0.338,-0.3784,-0.409,-0.4389,-0.4798,-0.5306,-0.5736,-0.5912,-0.6302,-0.6716,-0.7338,0.0,0.0,0.0,0.0,0.0,0.0,0.0,0.0,0.0,0.0,0.0,0.0,0.0,0.0,0.0,0.0,0.0,0.0,-0.9663,-0.9935,-1.0298,-1.0533,-1.0804,-1.1037,-1.1037,-1.1111,-1.1111,-1.1111,-1.1111,-1.1111,-1.1111,-1.1111,-1.1111,-1.1111,-1.1111,-1.1141,-1.1504,-1.186,-1.218,-1.2276,-1.2252,-1.218,-1.2276,-1.2367,-1.2463,-1.2644,-1.2584,-1.2421,-1.2337,-1.2246,-1.2186,-1.2282,-1.234,-1.2429,-1.2608,-1.2802,-1.2959,-1.2881,-1.2911,-1.2982,-1.3131,-1.2911,-1.2401,-1.1897,-1.1715,-1.1594,-1.1407,-1.1365,-1.1365,-1.1365,-1.1365,-1.1365,-1.1365,-1.1298,-1.1244,-1.1244,-1.1166,-1.1148,-1.1232,-1.1241,-1.1366,-1.1636,-1.1655,-1.1727,-1.1914,-1.183,-1.1739,-1.1661,-1.2077,-1.2312,-1.2312,-1.2572,-1.2705,-1.2705,-1.2705,-1.2705,-1.2705,-1.2705,-1.2856,-0.3235,-0.3341,-0.3534,-0.3584,0.0,0.0,-0.4552,-0.5116,-0.5701,-0.6032,-0.6511,-0.7041,-0.7419,-0.7311,0.0,0.0,0.0,0.0,0.0,0.0,0.0,0.0,0.0,0.0,0.0,0.0,0.0,0.0,0.0,0.0,0.0,-0.9351,-0.9613,-0.9852,-1.0298,-1.056,-1.0807,-1.1037,-1.1111,-1.1111,-1.1111,-1.1111,-1.1111,-1.1111,-1.1111,-1.1111,-1.1111,-1.1111,-1.1154,-1.1697,-1.2234,-1.2681,-1.2415,-1.2475,-1.2674,-1.2415,-1.2481,-1.2705,-1.2705,-1.2705,-1.2662,-1.2403,-1.2493,-1.2656,-1.2397,-1.2499,-1.2705,-1.2705,-1.2705,-1.2644,-1.2385,-1.2847,-1.3392,-1.3385,-1.3015,-1.2649,-1.2312,-1.2107,-1.1926,-1.192,-1.192,-1.192,-1.192,-1.192,-1.192,-1.192,-1.1703,-1.1534,-1.1534,-1.1286,-1.1226,-1.1504,-1.1599,-1.1748,-1.1926,-1.1926,-1.1926,-1.1926,-1.2174,-1.2198,-1.1932,-1.2174,-1.2318,-1.2318,-1.2572,-1.2705,-1.2705,-1.2705,-1.2705,-1.2705,-1.2705,-1.2862,-0.3205,-0.3379,0.0,-0.3822,0.0,0.0,0.0,-0.5233,0.0,0.0,-0.6956,-0.7217,-0.7616,0.0,0.0,0.0,0.0,0.0,0.0,0.0,0.0,0.0,0.0,0.0,0.0,0.0,0.0,0.0,0.0,0.0,0.0,-0.8945,-0.9207,-0.9416,-0.9828,-1.026,-1.0621,-1.0799,-1.0962,-1.1111,-1.1111,-1.1111,-1.1111,-1.1111,-1.1111,-1.1111,-1.1111,-1.1111,-1.1154,-1.1697,-1.2234,-1.2699,-1.262,-1.2638,-1.2693,-1.2614,-1.2638,-1.2705,-1.2705,-1.2705,-1.2693,-1.2614,-1.2644,-1.2693,-1.2614,-1.2644,-1.2705,-1.2705,-1.2705,-1.2687,-1.2608,-1.2729,-1.2783,-1.241,-1.2404,-1.2346,-1.2077,-1.2119,-1.2143,-1.1956,-1.192,-1.192,-1.192,-1.192,-1.192,-1.192,-1.186,-1.1805,-1.1805,-1.1403,-1.126,-1.1696,-1.2148,-1.2358,-1.2186,-1.2198,-1.2276,-1.2457,-1.2542,-1.2469,-1.221,-1.2451,-1.2584,-1.2584,-1.2662,-1.2705,-1.2705,-1.2705,-1.2705,-1.2705,-1.291,-1.3145,-0.3402,-0.366,0.0,-0.4082,-0.4342,-0.4648,-0.5065,0.0,0.0,0.0,-0.7043,-0.7286,-0.7699,-0.7801,0.0,0.0,0.0,0.0,0.0,0.0,0.0,0.0,0.0,0.0,0.0,0.0,0.0,0.0,0.0,0.0,0.0,-0.8646,-0.8874,-0.9196,-0.9569,-0.9957,-1.0369,-1.0662,-1.0887,-1.0962,-1.1037,-1.1111,-1.1111,-1.1111,-1.1111,-1.1111,-1.1111,-1.1232,-1.1455,-1.1787,-1.2234,-1.2705,-1.2705,-1.2705,-1.2705,-1.2705,-1.2705,-1.2705,-1.2705,-1.2705,-1.2705,-1.2705,-1.2705,-1.2705,-1.2705,-1.2705,-1.2705,-1.2705,-1.2705,-1.2681,-1.2578,-1.2548,-1.2493,-1.2282,-1.2355,-1.2421,-1.227,-1.2355,-1.2421,-1.2264,-1.2234,-1.2234,-1.2234,-1.2234,-1.2234,-1.2234,-1.2234,-1.2077,-1.1655,-1.1306,-1.1315,-1.1822,-1.2382,-1.2661,-1.2457,-1.2469,-1.2536,-1.2693,-1.2705,-1.2632,-1.2475,-1.262,-1.2705,-1.2705,-1.2705,-1.2759,-1.2874,-1.2874,-1.2922,-1.3031,-1.32,-1.3423,-0.3709,-0.4028,-0.4332,-0.4304,-0.4631,0.0,-0.5234,-0.5677,-0.6119,-0.6677,0.0,-0.7213,-0.7757,-0.7865,0.0,0.0,0.0,0.0,0.0,0.0,0.0,0.0,0.0,0.0,0.0,0.0,0.0,0.0,0.0,0.0,0.0,-0.8517,-0.8716,-0.9157,-0.9346,-0.9724,-1.0185,-1.0576,-1.0738,-1.0812,-1.0962,-1.1111,-1.1111,-1.1111,-1.1111,-1.1111,-1.1111,-1.1419,-1.192,-1.192,-1.2234,-1.2705,-1.2705,-1.2705,-1.2705,-1.2705,-1.2705,-1.2705,-1.2705,-1.2705,-1.2705,-1.2705,-1.2705,-1.2705,-1.2705,-1.2705,-1.2705,-1.2705,-1.2705,-1.265,-1.2409,-1.2349,-1.2409,-1.265,-1.2687,-1.2668,-1.2668,-1.2687,-1.2705,-1.2705,-1.2705,-1.2705,-1.2705,-1.2705,-1.2705,-1.2705,-1.2705,-1.2355,-1.1383,-1.1132,-1.1324,-1.19,-1.2421,-1.2705,-1.2705,-1.2705,-1.2705,-1.2705,-1.2705,-1.2705,-1.2705,-1.2705,-1.2717,-1.2741,-1.2741,-1.288,-1.3157,-1.3157,-1.3284,-1.3513,-1.3544,-1.3676,-0.3445,-0.3977,0.0,0.0,-0.4822,-0.5164,-0.5263,-0.5576,-0.6054,-0.6754,-0.7131,-0.7555,-0.8217,0.0,0.0,0.0,0.0,0.0,0.0,0.0,0.0,0.0,0.0,0.0,0.0,0.0,0.0,0.0,0.0,0.0,-0.8517,-0.8517,-0.8646,-0.8926,-0.9184,-0.9493,-0.9941,-1.0198,-1.0513,0.0,-1.0812,-1.0962,-1.1111,-1.1111,-1.1111,-1.1111,-1.1111,-1.1419,-1.192,-1.192,-1.2234,-1.2705,-1.2705,-1.2705,-1.2705,-1.2705,-1.2705,-1.2705,-1.2705,-1.2705,-1.2705,-1.2705,-1.2705,-1.2705,-1.2705,-1.2705,-1.2705,-1.2705,-1.2705,-1.2693,-1.2638,-1.262,-1.2638,-1.2693,-1.2548,-1.2397,-1.2397,-1.256,-1.2705,-1.2705,-1.2705,-1.2705,-1.2705,-1.2705,-1.2705,-1.2705,-1.2705,-1.262,-1.2391,-1.1653,-1.1456,-1.2404,-1.2638,-1.2705,-1.2705,-1.2705,-1.2705,-1.2705,-1.2705,-1.2705,-1.2705,-1.2705,-1.2807,-1.3031,-1.3031,-1.3163,-1.3429,-1.3429,-1.3459,-1.3519,-1.3725,-1.3851,-0.3404,0.0,0.0,-0.4946,0.0,-0.522,-0.5271,-0.5576,-0.599,-0.6629,-0.7126,-0.7607,0.0,0.0,0.0,0.0,0.0,0.0,0.0,0.0,0.0,0.0,0.0,0.0,0.0,0.0,0.0,0.0,0.0,-0.8517,-0.8517,-0.8517,-0.8624,-0.8923,-0.898,-0.9281,-0.9723,-0.999,-1.0181,-1.0519,-1.0588,-1.0738,-1.0812,-1.1037,-1.1111,-1.1111,-1.1111,-1.1419,-1.192,-1.192,-1.2234,-1.2705,-1.2705,-1.2705,-1.2705,-1.2705,-1.2705,-1.2705,-1.2705,-1.2705,-1.2705,-1.2705,-1.2705,-1.2705,-1.2705,-1.2705,-1.2705,-1.2705,-1.2705,-1.2705,-1.2705,-1.2705,-1.2705,-1.2705,-1.2602,-1.2499,-1.2499,-1.2608,-1.2705,-1.2705,-1.2705,-1.2705,-1.2705,-1.2705,-1.2705,-1.2705,-1.2705,-1.2705,-1.2705,-1.2194,-1.204,-1.2674,-1.2705,-1.2705,-1.2705,-1.2705,-1.2705,-1.2705,-1.2705,-1.2765,-1.2904,-1.2904,-1.2976,-1.3121,-1.3248,-1.3441,-1.3701,-1.3701,-1.3767,-1.3894,-1.4032,-1.4093,-0.3409,0.0,-0.5026,-0.5349,-0.5336,0.0,-0.523,-0.555,-0.5949,-0.6389,-0.6939,0.0,0.0,0.0,0.0,0.0,0.0,0.0,0.0,0.0,0.0,0.0,0.0,0.0,0.0,0.0,0.0,0.0,0.0,-0.8517,-0.8517,-0.8517,-0.8624,-0.8923,-0.8929,-0.9071,-0.9507,-0.9774,-0.9968,-1.0157,-1.0421,-1.0513,-1.0519,-1.0812,-1.1037,-1.1037,-1.1037,-1.1318,-1.186,-1.1902,-1.2204,-1.2644,-1.2687,-1.2705,-1.2705,-1.2705,-1.2705,-1.2705,-1.2705,-1.2705,-1.2705,-1.2705,-1.2705,-1.2705,-1.2705,-1.2705,-1.2705,-1.2705,-1.2705,-1.2705,-1.2705,-1.2705,-1.2705,-1.2705,-1.2705,-1.2705,-1.2705,-1.2705,-1.2705,-1.2705,-1.2705,-1.2705,-1.2705,-1.2705,-1.2705,-1.2705,-1.2705,-1.2705,-1.2705,-1.2705,-1.2705,-1.2705,-1.2705,-1.2705,-1.2705,-1.2705,-1.2705,-1.2705,-1.2759,-1.2904,-1.3139,-1.3218,-1.326,-1.326,-1.3471,-1.3713,-1.3972,-1.3972,-1.4087,-1.4298,-1.4298,-1.4298,-0.3324,0.0,-0.4749,0.0,-0.5227,-0.5173,0.0,0.0,-0.5854,0.0,0.0,0.0,0.0,0.0,0.0,0.0,0.0,0.0,0.0,0.0,0.0,0.0,0.0,0.0,0.0,0.0,0.0,0.0,-0.8517,-0.8517,-0.8517,-0.8517,-0.8624,-0.8923,-0.8929,-0.899,-0.9249,-0.9542,-0.9739,-0.9918,-1.0341,-1.0513,-1.0513,-1.0588,-1.0663,-1.0812,-1.0812,-1.1141,-1.16,-1.183,-1.2095,-1.2391,-1.2614,-1.2705,-1.2705,-1.2705,-1.2705,-1.2705,-1.2705,-1.2705,-1.2705,-1.2705,-1.2705,-1.2705,-1.2705,-1.2705,-1.2705,-1.2705,-1.2705,-1.2705,-1.2705,-1.2705,-1.2705,-1.2705,-1.2705,-1.2705,-1.2705,-1.2705,-1.2705,-1.2705,-1.2705,-1.2705,-1.2705,-1.2705,-1.2705,-1.2705,-1.2705,-1.2705,-1.2705,-1.2705,-1.2705,-1.2705,-1.2705,-1.2705,-1.2705,-1.2705,-1.2705,-1.2705,-1.3,-1.3105,-1.323,-1.3598,-1.3803,-1.3803,-1.3839,-1.3984,-1.4244,-1.4244,-1.4262,-1.4298,-1.4298,-1.4298,-0.3815,-0.4341,-0.47,0.0,-0.5209,-0.5168,-0.5091,0.0,-0.5736,0.0,0.0,0.0,0.0,0.0,0.0,0.0,0.0,0.0,0.0,0.0,0.0,0.0,0.0,0.0,0.0,0.0,0.0,0.0,-0.8517,-0.8517,-0.8517,-0.8517,-0.856,-0.8667,-0.8667,-0.8781,-0.9012,-0.9125,-0.9384,-0.9728,-1.0032,-1.0143,-1.0143,-1.0143,-1.0368,-1.0663,-1.0738,-1.0971,-1.1385,-1.1576,-1.186,-1.2107,-1.2222,-1.2355,-1.2487,-1.2487,-1.2578,-1.2705,-1.2705,-1.2705,-1.2705,-1.2705,-1.2705,-1.2705,-1.2705,-1.2705,-1.2705,-1.2705,-1.2705,-1.2705,-1.2705,-1.2705,-1.2705,-1.2705,-1.2705,-1.2705,-1.2705,-1.2705,-1.2705,-1.2705,-1.2705,-1.2705,-1.2705,-1.2705,-1.2705,-1.2705,-1.2705,-1.2705,-1.2705,-1.2705,-1.2705,-1.2705,-1.2705,-1.2946,-1.3544,-1.3598,-1.3598,-1.3598,-1.3749,-1.3749,-1.3556,-1.3779,-1.3972,-1.4123,-1.4123,-1.4183,-1.4298,-1.4298,-1.4298,-1.4298,-1.4298,-1.4298,-0.4066,-0.4428,-0.4522,-0.4857,-0.4973,-0.5009,0.0,0.0,-0.5554,0.0,0.0,0.0,0.0,0.0,0.0,0.0,0.0,0.0,0.0,0.0,0.0,0.0,0.0,0.0,0.0,0.0,0.0,0.0,-0.8517,-0.8517,-0.8517,-0.8517,-0.8517,-0.8517,-0.8517,-0.8597,-0.8775,-0.8834,-0.9104,-0.9583,-0.975,-0.9863,-0.9922,-0.9922,-1.0067,-1.0368,-1.0588,-1.0854,-1.1124,-1.1343,-1.157,-1.183,-1.1896,-1.2083,-1.2312,-1.2312,-1.2481,-1.2705,-1.2705,-1.2705,-1.2705,-1.2705,-1.2705,-1.2705,-1.2705,-1.2705,-1.2705,-1.2705,-1.2705,-1.2705,-1.2705,-1.2705,-1.2705,-1.2705,-1.2705,-1.2705,-1.2705,-1.2705,-1.2705,-1.2705,-1.2705,-1.2705,-1.2705,-1.2705,-1.2705,-1.2705,-1.2705,-1.2705,-1.2705,-1.2705,-1.2705,-1.2705,-1.2946,-1.3429,-1.4226,-1.4298,-1.4298,-1.4298,-1.4298,-1.4183,-1.3924,-1.3972,-1.4099,-1.4292,-1.4298,-1.4298,-1.4298,-1.4298,-1.4298,-1.4298,-1.4298,-1.4298,-0.364,-0.3883,-0.3995,-0.4182,-0.4426,0.0,0.0,0.0,0.0,0.0,0.0,0.0,0.0,0.0,0.0,0.0,0.0,0.0,0.0,0.0,0.0,0.0,0.0,0.0,0.0,0.0,0.0,0.0,-0.8517,-0.8517,-0.8517,-0.8517,-0.8517,-0.8517,-0.8517,-0.8522,-0.8533,-0.8754,-0.9104,-0.9577,-0.9588,-0.9712,-0.9922,-0.9922,-0.9922,-0.9922,-1.0143,-1.0449,-1.0854,-1.1118,-1.1307,-1.1576,-1.1823,-1.2083,-1.2312,-1.2312,-1.2481,-1.2705,-1.2705,-1.2705,-1.2705,-1.2705,-1.2705,-1.2705,-1.2705,-1.2705,-1.2705,-1.2705,-1.2705,-1.2705,-1.2705,-1.2705,-1.2705,-1.2705,-1.2705,-1.2705,-1.2705,-1.2705,-1.2705,-1.2705,-1.2705,-1.2705,-1.2705,-1.2705,-1.2705,-1.2705,-1.2705,-1.2705,-1.2705,-1.2705,-1.2705,-1.2705,-1.361,-1.4238,-1.4292,-1.4298,-1.4298,-1.4298,-1.4298,-1.4286,-1.4268,-1.4274,-1.4286,-1.4298,-1.4298,-1.4298,-1.4298,-1.4298,-1.4298,-1.4298,-1.4298,-1.4298,-0.3345,-0.358,0.0,-0.3782,-0.3972,-0.4134,-0.4123,-0.4484,0.0,0.0,0.0,0.0,0.0,0.0,0.0,0.0,0.0,0.0,0.0,0.0,0.0,0.0,0.0,0.0,0.0,0.0,0.0,0.0,0.0,-0.8517,-0.8517,-0.8517,-0.8517,-0.8517,-0.8517,-0.8517,-0.8517,-0.8748,-0.9015,-0.9125,-0.9432,-0.962,-0.9707,-0.9852,-0.9922,-0.9922,-0.9992,-1.0143,-1.0449,-1.0767,-1.0959,-1.1041,-1.1288,-1.1673,-1.2065,-1.2065,-1.2337,-1.2705,-1.2705,-1.2705,-1.2705,-1.2705,-1.2705,-1.2705,-1.2705,-1.2705,-1.2705,-1.2705,-1.2705,-1.2705,-1.2705,-1.2705,-1.2874,-1.3562,-1.3725,-1.3725,-1.3725,-1.3725,-1.3725,-1.3725,-1.3725,-1.3725,-1.3725,-1.3725,-1.3725,-1.3725,-1.3725,-1.3725,-1.3725,-1.3725,-1.3725,-1.3725,-1.4069,-1.4298,-1.4298,-1.4298,-1.4298,-1.4298,-1.4298,-1.4298,-1.4298,-1.4298,-1.4298,-1.4298,-1.4298,-1.4298,-1.4298,-1.4298,-1.4298,-1.4298,-1.4298,-1.4298,-0.3083,-0.3245,0.0,0.0,0.0,-0.3709,-0.372,0.0,0.0,0.0,0.0,0.0,0.0,0.0,0.0,0.0,0.0,0.0,0.0,0.0,0.0,0.0,0.0,0.0,0.0,0.0,0.0,0.0,0.0,0.0,-0.8517,-0.8517,-0.8517,-0.8517,-0.8517,-0.8517,-0.8517,-0.8667,-0.8786,-0.8934,-0.9184,-0.9427,-0.9583,-0.9733,-0.9846,-0.9922,-0.9922,-0.9992,-1.0218,-1.0513,-1.0663,-1.0738,-1.0887,-1.1289,-1.176,-1.176,-1.217,-1.2705,-1.2705,-1.2705,-1.2705,-1.2705,-1.2705,-1.2705,-1.2705,-1.2705,-1.2705,-1.2705,-1.2705,-1.2705,-1.2705,-1.297,-1.3417,-1.4129,-1.4298,-1.4298,-1.4298,-1.4298,-1.4298,-1.4298,-1.4298,-1.4298,-1.4298,-1.4298,-1.4298,-1.4298,-1.4298,-1.4298,-1.4298,-1.4298,-1.4298,-1.4298,-1.4298,-1.4298,-1.4298,-1.4298,-1.4298,-1.4298,-1.4298,-1.4298,-1.4298,-1.4298,-1.4298,-1.4298,-1.4298,-1.4298,-1.4298,-1.4298,-1.4298,-1.4298,-1.4298,-1.4298,0.0,0.0,0.0,0.0,0.0,0.0,-0.32,0.0,0.0,0.0,0.0,0.0,0.0,0.0,0.0,0.0,0.0,0.0,0.0,0.0,0.0,0.0,0.0,0.0,0.0,0.0,0.0,0.0,-0.8377,-0.8517,-0.8517,-0.8517,-0.8517,-0.8517,-0.8517,-0.8517,-0.8517,-0.8517,-0.863,-0.8918,-0.8929,-0.9109,-0.9561,-0.9572,-0.9701,-0.9911,-0.9916,-0.9992,-1.0218,-1.0218,-1.0293,-1.0513,-1.0513,-1.0981,-1.1599,-1.1605,-1.2087,-1.2705,-1.2705,-1.2705,-1.2705,-1.2705,-1.2705,-1.2705,-1.2705,-1.2705,-1.2705,-1.2705,-1.2705,-1.2711,-1.2741,-1.3519,-1.4298,-1.4298,-1.4298,-1.4298,-1.4298,-1.4298,-1.4298,-1.4298,-1.4298,-1.4298,-1.4298,-1.4298,-1.4298,-1.4298,-1.4298,-1.4298,-1.4298,-1.4298,-1.4298,-1.4298,-1.4298,-1.4298,-1.4298,-1.4298,-1.4298,-1.4298,-1.4298,-1.4298,-1.4298,-1.4298,-1.4298,-1.4298,-1.4298,-1.4298,-1.4298,-1.4298,-1.4298,-1.4298,-1.4298,-1.4298,-0.2548,0.0,0.0,0.0,0.0,0.0,0.0,0.0,0.0,0.0,0.0,0.0,0.0,0.0,0.0,0.0,0.0,0.0,0.0,0.0,0.0,0.0,0.0,0.0,0.0,0.0,0.0,0.0,-0.8377,-0.8517,-0.8517,-0.8517,-0.8517,-0.8517,-0.8517,-0.8517,-0.8517,-0.8517,-0.8549,-0.8614,-0.8781,-0.8999,-0.9071,-0.9421,-0.9615,-0.968,-0.9846,-0.9922,-0.9992,-1.0143,-1.0218,-1.0293,-1.0443,-1.0827,-1.1364,-1.1525,-1.2011,-1.2534,-1.2619,-1.2705,-1.2705,-1.2705,-1.2705,-1.2705,-1.2705,-1.2705,-1.2705,-1.2705,-1.2705,-1.2886,-1.3658,-1.4075,-1.4298,-1.4298,-1.4298,-1.4298,-1.4298,-1.4298,-1.4298,-1.4298,-1.4298,-1.4298,-1.4298,-1.4298,-1.4298,-1.4298,-1.4298,-1.4298,-1.4298,-1.4298,-1.4298,-1.4298,-1.4298,-1.4298,-1.4298,-1.4298,-1.4298,-1.4298,-1.4298,-1.4298,-1.4298,-1.4298,-1.4298,-1.4298,-1.4298,-1.4298,-1.4298,-1.4298,-1.4298,-1.4298,-1.4298,-1.4298,-0.2693,-0.2625,-0.2507,-0.227,0.0,0.0,0.0,-0.3054,0.0,0.0,0.0,0.0,0.0,0.0,0.0,0.0,0.0,0.0,0.0,0.0,0.0,0.0,0.0,0.0,0.0,-0.7515,-0.7709,-0.7844,-0.8081,-0.8258,-0.8355,-0.8361,-0.8409,-0.8511,-0.8517,-0.8517,-0.8517,-0.8517,-0.8517,-0.8517,-0.8657,-0.877,-0.8945,-0.9254,-0.948,-0.9588,-0.982,-0.9922,-0.9922,-0.9992,-1.0067,-1.0067,-1.0218,-1.06,-1.1203,-1.1364,-1.184,-1.2448,-1.2619,-1.2705,-1.2705,-1.2705,-1.2705,-1.2705,-1.2705,-1.2705,-1.2705,-1.2705,-1.3025,-1.3513,-1.4135,-1.4298,-1.4298,-1.4298,-1.4298,-1.4298,-1.4298,-1.4298,-1.4298,-1.4298,-1.4298,-1.4298,-1.4298,-1.4298,-1.4298,-1.4298,-1.4298,-1.4298,-1.4298,-1.4298,-1.4298,-1.4298,-1.4298,-1.4298,-1.4298,-1.4298,-1.4298,-1.4298,-1.4298,-1.4298,-1.4298,-1.4298,-1.4298,-1.4298,-1.4298,-1.4298,-1.4298,-1.4298,-1.4298,-1.4298,-1.4298,-1.4298,-0.3073,-0.2967,-0.2851,-0.2527,-0.2554,0.0,-0.2465,-0.2806,-0.3204,0.0,0.0,0.0,0.0,0.0,0.0,0.0,0.0,0.0,0.0,0.0,0.0,0.0,0.0,0.0,-0.7085,-0.7305,-0.7394,-0.7394,-0.7666,-0.7887,-0.8158,-0.8196,-0.831,-0.8468,-0.8501,-0.8517,-0.8517,-0.8517,-0.8517,-0.8517,-0.8517,-0.8624,-0.8834,-0.9087,-0.9324,-0.955,-0.9809,-0.9922,-0.9922,-0.9922,-0.9922,-0.9922,-0.9922,-1.0351,-1.0928,-1.1192,-1.174,-1.2328,-1.2607,-1.2705,-1.2705,-1.2705,-1.2705,-1.2705,-1.2705,-1.2705,-1.2711,-1.2753,-1.3501,-1.4298,-1.4298,-1.4298,-1.4298,-1.4298,-1.4298,-1.4298,-1.4298,-1.4298,-1.4298,-1.4298,-1.4298,-1.4298,-1.4298,-1.4298,-1.4298,-1.4298,-1.4298,-1.4298,-1.4298,-1.4298,-1.4298,-1.4298,-1.4298,-1.4298,-1.4298,-1.4298,-1.4298,-1.4298,-1.4298,-1.4298,-1.4298,-1.4298,-1.4298,-1.4298,-1.4298,-1.4298,-1.4298,-1.4298,-1.4298,-1.4298,-1.4298,-1.4298,-0.3365,-0.3155,-0.2963,-0.2838,0.0,0.0,-0.2626,-0.2736,-0.283,0.0,0.0,0.0,0.0,0.0,0.0,0.0,0.0,0.0,0.0,0.0,0.0,0.0,0.0,0.0,-0.7085,-0.7305,-0.7394,-0.7394,-0.7666,-0.7822,-0.7865,-0.811,-0.8234,-0.8283,-0.8409,-0.8517,-0.8517,-0.8517,-0.8517,-0.8517,-0.8517,-0.8538,-0.8597,-0.9017,-0.9233,-0.9303,-0.9733,-0.9922,-0.9922,-0.9922,-0.9922,-0.9922,-0.9922,-1.01,-1.0543,-1.1049,-1.1554,-1.192,-1.2462,-1.2705,-1.2705,-1.2705,-1.2705,-1.2705,-1.2705,-1.2705,-1.2765,-1.3061,-1.3701,-1.4298,-1.4298,-1.4298,-1.4298,-1.4298,-1.4298,-1.4298,-1.4298,-1.4298,-1.4298,-1.4298,-1.4298,-1.4298,-1.4298,-1.4298,-1.4298,-1.4298,-1.4298,-1.4298,-1.4298,-1.4298,-1.4298,-1.4298,-1.4298,-1.4298,-1.4298,-1.4298,-1.4298,-1.4298,-1.4298,-1.4298,-1.4298,-1.4298,-1.4298,-1.4298,-1.4298,-1.4298,-1.4298,-1.4298,-1.4298,-1.4298,-1.4298,-1.4298,-0.3694,-0.3483,-0.3245,-0.3094,0.0,0.0,0.0,-0.2745,-0.283,-0.2886,0.0,0.0,0.0,0.0,0.0,0.0,0.0,0.0,0.0,0.0,0.0,0.0,0.0,0.0,-0.686,-0.7128,-0.7268,-0.7268,-0.7375,-0.7494,-0.7618,-0.7844,-0.8088,-0.8207,-0.8388,-0.8517,-0.8517,-0.8517,-0.8517,-0.8517,-0.8517,-0.8517,-0.8528,-0.8996,-0.9206,-0.9227,-0.9712,-0.9922,-0.9922,-0.9922,-0.9922,-0.9922,-0.9922,-1.0073,-1.0404,-1.0952,-1.1362,-1.1773,-1.236,-1.2619,-1.2705,-1.2705,-1.2705,-1.2705,-1.2705,-1.2705,-1.2741,-1.2928,-1.3429,-1.3966,-1.4226,-1.4298,-1.4298,-1.4298,-1.4298,-1.4298,-1.4298,-1.4298,-1.4298,-1.4298,-1.4298,-1.4298,-1.4298,-1.4298,-1.4298,-1.4298,-1.4298,-1.4298,-1.4298,-1.4298,-1.4298,-1.4298,-1.4298,-1.4298,-1.4298,-1.4298,-1.4298,-1.4298,-1.4298,-1.4298,-1.4298,-1.4298,-1.4298,-1.4298,-1.4298,-1.4298,-1.4298,-1.4298,-1.4298,-1.4298,-1.4298,-1.4298,0.0,0.0,0.0,0.0,0.0,-0.291,0.0,0.0,0.0,-0.2854,0.0,0.0,0.0,0.0,0.0,0.0,0.0,0.0,0.0,0.0,0.0,0.0,0.0,0.0,0.0,-0.6785,-0.6897,-0.6892,-0.6935,-0.7047,-0.7245,-0.7522,-0.7822,-0.8072,-0.8296,-0.8447,-0.8447,-0.849,-0.8517,-0.8517,-0.8517,-0.8517,-0.8528,-0.8947,-0.9163,-0.9227,-0.9663,-0.9879,-0.9922,-0.9922,-0.9922,-0.9922,-0.9922,-1.0046,-1.0256,-1.0776,-1.1252,-1.1621,-1.2172,-1.2534,-1.2625,-1.2705,-1.2705,-1.2705,-1.2705,-1.2705,-1.2711,-1.2771,-1.3061,-1.3501,-1.4135,-1.4298,-1.4298,-1.4298,-1.4298,-1.4298,-1.4298,-1.4298,-1.4298,-1.4298,-1.4298,-1.4298,-1.4298,-1.4298,-1.4298,-1.4298,-1.4298,-1.4298,-1.4298,-1.4298,-1.4298,-1.4298,-1.4298,-1.4298,-1.4298,-1.4298,-1.4298,-1.4298,-1.4298,-1.4298,-1.4298,-1.4298,-1.4298,-1.4298,-1.4298,-1.4298,-1.4298,-1.4298,-1.4298,-1.4298,-1.4298,-1.4298,0.0,0.0,0.0,0.0,-0.3392,0.0,0.0,0.0,-0.2736,-0.2736,0.0,0.0,0.0,0.0,0.0,0.0,0.0,0.0,0.0,0.0,0.0,0.0,0.0,0.0,0.0,-0.6297,-0.6258,-0.6155,-0.6441,-0.668,-0.6706,-0.7186,-0.7448,-0.7474,-0.7957,-0.8251,-0.8251,-0.8404,-0.8517,-0.8517,-0.8517,-0.8517,-0.8522,-0.8786,-0.9012,-0.9217,-0.9497,-0.9733,-0.9922,-0.9922,-0.9922,-0.9922,-0.9922,-0.9938,-1.0019,-1.071,-1.1059,-1.1229,-1.2114,-1.2375,-1.2472,-1.2625,-1.2705,-1.2705,-1.2705,-1.2705,-1.2753,-1.3006,-1.294,-1.3031,-1.4039,-1.4298,-1.4298,-1.4298,-1.4298,-1.4298,-1.4298,-1.4298,-1.4298,-1.4298,-1.4298,-1.4298,-1.4298,-1.4298,-1.4298,-1.4298,-1.4298,-1.4298,-1.4298,-1.4298,-1.4298,-1.4298,-1.4298,-1.4298,-1.4298,-1.4298,-1.4298,-1.4298,-1.4298,-1.4298,-1.4298,-1.4298,-1.4298,-1.4298,-1.4298,-1.4298,-1.4298,-1.4298,-1.4298,-1.4298,-1.4298,-1.4298,0.0,0.0,0.0,0.0,0.0,0.0,-0.3079,0.0,-0.3017,0.0,0.0,0.0,0.0,0.0,0.0,0.0,0.0,0.0,0.0,0.0,0.0,0.0,0.0,0.0,0.0,0.0,0.0,0.0,-0.6147,-0.6383,-0.657,-0.7132,-0.7394,-0.7394,-0.7774,-0.8072,-0.8207,-0.831,-0.8371,-0.8517,-0.8517,-0.8517,-0.8522,-0.8754,-0.8915,-0.9028,-0.941,-0.9631,-0.9733,-0.9868,-0.9922,-0.9922,-0.9922,-0.9922,-0.9976,-1.054,-1.088,-1.1115,-1.186,-1.2295,-1.2386,-1.2625,-1.2705,-1.2705,-1.2705,-1.2705,-1.2729,-1.285,-1.2795,-1.2807,-1.3254,-1.3833,-1.4298,-1.4298,-1.4298,-1.4298,-1.4298,-1.4298,-1.4298,-1.4298,-1.4298,-1.4298,-1.4298,-1.4298,-1.4298,-1.4298,-1.4298,-1.4298,-1.4298,-1.4298,-1.4298,-1.4298,-1.4298,-1.4298,-1.4298,-1.4298,-1.4298,-1.4298,-1.4298,-1.4298,-1.4298,-1.4298,-1.4298,-1.4298,-1.4298,-1.4298,-1.4298,-1.4298,-1.4298,-1.4298,-1.4298,-1.4298,-0.4381,0.0,0.0,0.0,0.0,0.0,0.0,0.0,0.0,0.0,0.0,0.0,0.0,0.0,-0.3488,-0.3488,0.0,-0.3257,0.0,0.0,0.0,0.0,0.0,0.0,0.0,0.0,0.0,0.0,0.0,-0.6074,-0.641,-0.6919,-0.7228,-0.7293,-0.758,-0.7817,-0.811,-0.818,-0.8274,-0.8517,-0.8517,-0.8517,-0.8522,-0.8689,-0.8802,-0.8956,-0.9297,-0.9518,-0.9593,-0.9825,-0.9922,-0.9922,-0.9922,-0.9965,-1.0073,-1.0482,-1.0757,-1.1122,-1.1804,-1.2215,-1.2466,-1.2625,-1.2705,-1.2705,-1.2705,-1.2705,-1.2705,-1.2705,-1.2705,-1.2705,-1.2705,-1.3495,-1.4298,-1.4298,-1.4298,-1.4298,-1.4298,-1.4298,-1.4298,-1.4298,-1.4298,-1.4298,-1.4298,-1.4298,-1.4298,-1.4298,-1.4298,-1.4298,-1.4298,-1.4298,-1.4298,-1.4298,-1.4298,-1.4298,-1.4298,-1.4298,-1.4298,-1.4298,-1.4298,-1.4298,-1.4298,-1.4298,-1.4298,-1.4298,-1.4298,-1.4298,-1.4298,-1.4298,-1.4298,-1.4298,-1.4298,-1.4298,0.0,0.0,0.0,-0.3746,0.0,0.0,0.0,0.0,-0.348,0.0,0.0,0.0,0.0,-0.3602,-0.3488,-0.3488,-0.333,0.0,0.0,0.0,0.0,0.0,0.0,0.0,0.0,0.0,0.0,0.0,0.0,0.0,-0.6014,-0.647,-0.6864,-0.709,-0.7282,-0.7517,-0.7806,-0.8093,-0.8274,-0.8517,-0.8517,-0.8517,-0.8517,-0.8522,-0.8651,-0.8945,-0.9114,-0.9357,-0.9593,-0.9825,-0.9922,-0.9922,-0.9922,-1.0067,-1.0309,-1.0546,-1.0778,-1.1093,-1.1775,-1.2289,-1.2705,-1.2705,-1.2705,-1.2705,-1.2705,-1.2705,-1.2705,-1.2705,-1.2705,-1.2705,-1.2705,-1.3495,-1.4298,-1.4298,-1.4298,-1.4298,-1.4298,-1.4298,-1.4298,-1.4298,-1.4298,-1.4298,-1.4298,-1.4298,-1.4298,-1.4298,-1.4298,-1.4298,-1.4298,-1.4298,-1.4298,-1.4298,-1.4298,-1.4298,-1.4298,-1.4298,-1.4298,-1.4298,-1.4298,-1.4298,-1.4298,-1.4298,-1.4298,-1.4298,-1.4298,-1.4298,-1.4298,-1.4298,-1.4298,-1.4298,-1.4298,-1.4298,0.0,0.0,-0.4,-0.3899,0.0,0.0,0.0,0.0,0.0,0.0,0.0,0.0,0.0,-0.4038,-0.3853,-0.3735,-0.3512,-0.335,0.0,0.0,0.0,0.0,0.0,0.0,0.0,0.0,0.0,0.0,-0.5069,0.0,0.0,-0.6505,-0.6842,-0.7074,-0.7165,-0.7397,-0.7795,-0.7876,-0.8118,-0.8517,-0.8517,-0.8517,-0.8517,-0.8517,-0.8641,-0.8945,-0.9104,-0.9346,-0.9593,-0.9825,-0.9922,-0.9922,-0.9922,-1.0187,-1.0548,-1.0545,-1.0751,-1.1122,-1.1764,-1.2289,-1.2705,-1.2705,-1.2705,-1.2705,-1.2705,-1.2705,-1.2705,-1.2705,-1.2705,-1.2705,-1.2705,-1.3495,-1.4298,-1.4298,-1.4298,-1.4298,-1.4298,-1.4298,-1.4298,-1.4298,-1.4298,-1.4298,-1.4298,-1.4298,-1.4298,-1.4298,-1.4298,-1.4298,-1.4298,-1.4298,-1.4298,-1.4298,-1.4298,-1.4298,-1.4298,-1.4298,-1.4298,-1.4298,-1.4298,-1.4298,-1.4298,-1.4298,-1.4298,-1.4298,-1.4298,-1.4298,-1.4298,-1.4298,-1.4298,-1.4298,-1.4298,-1.4298,-0.4719,-0.4433,0.0,-0.4164,-0.4065,0.0,-0.3712,0.0,0.0,0.0,0.0,0.0,0.0,0.0,-0.3789,-0.3625,-0.3483,-0.3314,0.0,-0.3208,0.0,0.0,0.0,0.0,0.0,0.0,-0.4428,-0.4499,-0.4914,0.0,0.0,0.0,-0.6627,-0.695,-0.7128,-0.7402,-0.7795,-0.7881,-0.8124,-0.8517,-0.8517,-0.8517,-0.8517,-0.8603,-0.8721,-0.895,-0.92,-0.9427,-0.9593,-0.9825,-0.9922,-0.9927,-1.0019,-1.0234,-1.0578,-1.0578,-1.0893,-1.1411,-1.1872,-1.2283,-1.2705,-1.2705,-1.2705,-1.2705,-1.2705,-1.2705,-1.2705,-1.2705,-1.2705,-1.2705,-1.2705,-1.3495,-1.4298,-1.4298,-1.4298,-1.4298,-1.4298,-1.4298,-1.4298,-1.4298,-1.4298,-1.4298,-1.4298,-1.4298,-1.4298,-1.4298,-1.4298,-1.4298,-1.4298,-1.4298,-1.4298,-1.4298,-1.4298,-1.4298,-1.4298,-1.4298,-1.4298,-1.4298,-1.4298,-1.4298,-1.4298,-1.4298,-1.4298,-1.4298,-1.4298,-1.4298,-1.4298,-1.4298,-1.4298,-1.4298,-1.4298,-1.4298]}]]